[[{"header":{"parameterUnit":"m.s-1","parameterCategory":1,"la1":30.6,"la2":28.766,"lo1":-90.7593,"lo2":-88.6598,"dx":0.0162,"dy":0.0183,"nx":116,"ny":114,"refTime":"2023-02-21T18:00:00:Z","depth":0,"parameterNumber":2,"parameterNumberName":"U-component_of_WINDS"},"data":[0.0,0.0,0.0,0.0,0.0,0.0,0.0,0.0,0.0,0.0,0.0,0.0,0.0,0.0,0.0,0.0,0.0,0.0,0.0,0.0,0.0,0.0,0.0,0.0,0.0,0.0,0.0,0.0,0.0,0.0,0.0,0.0,0.0,0.0,0.0,0.0,0.0,0.0,0.0,0.0,0.0,0.0,0.0,0.0,0.0,0.0,0.0,0.0,0.0,0.0,0.0,0.0,0.0,0.0,0.0,0.0,0.0,0.0,0.0,0.0,0.0,0.0,0.0,0.0,0.0,0.0,0.0,0.0,0.0,0.0,0.0,0.0,0.0,0.0,0.0,0.0,0.0,0.0,0.0,0.0,0.0,0.0,0.0,0.0,0.0,0.0,0.0,0.0,0.0,0.0,0.0,0.0,0.0,0.0,0.0,0.0,0.0,0.0,0.0,0.0,0.0,0.0,0.0,0.0,0.0,0.0,0.0,0.0,0.0,0.0,0.0,0.0,0.0,0.0,0.0,0.0,0.0,0.0,0.0,0.0,0.0,0.0,0.0,0.0,0.0,0.0,0.0,0.0,0.0,0.0,0.0,0.0,0.0,0.0,0.0,0.0,0.0,0.0,0.0,0.0,0.0,0.0,0.0,0.0,0.0,0.0,0.0,0.0,0.0,0.0,0.0,0.0,0.0,0.0,0.0,0.0,0.0,0.0,0.0,0.0,0.0,0.0,0.0,0.0,0.0,0.0,0.0,0.0,0.0,0.0,0.0,0.0,0.0,0.0,0.0,0.0,0.0,0.0,0.0,0.0,0.0,0.0,0.0,0.0,0.0,0.0,0.0,0.0,0.0,0.0,0.0,0.0,0.0,0.0,0.0,0.0,0.0,0.0,0.0,0.0,0.0,0.0,0.0,0.0,0.0,0.0,0.0,0.0,0.0,0.0,0.0,0.0,0.0,0.0,0.0,0.0,0.0,0.0,0.0,0.0,0.0,0.0,0.0,0.0,0.0,0.0,0.0,0.0,0.0,0.0,0.0,0.0,0.0,0.0,0.0,0.0,0.0,0.0,0.0,0.0,0.0,0.0,0.0,0.0,0.0,0.0,0.0,0.0,0.0,0.0,0.0,0.0,0.0,0.0,0.0,0.0,0.0,0.0,0.0,0.0,0.0,0.0,0.0,0.0,0.0,0.0,0.0,0.0,0.0,0.0,0.0,0.0,0.0,0.0,0.0,0.0,0.0,0.0,0.0,0.0,0.0,0.0,0.0,0.0,0.0,0.0,0.0,0.0,0.0,0.0,0.0,0.0,0.0,0.0,0.0,0.0,0.0,0.0,0.0,0.0,0.0,0.0,0.0,0.0,0.0,0.0,0.0,0.0,0.0,0.0,0.0,0.0,0.0,0.0,0.0,0.0,0.0,0.0,0.0,0.0,0.0,0.0,0.0,0.0,0.0,0.0,0.0,0.0,0.0,0.0,0.0,0.0,0.0,0.0,0.0,0.0,0.0,0.0,0.0,0.0,0.0,0.0,0.0,0.0,0.0,0.0,0.0,0.0,0.0,0.0,0.0,0.0,0.0,0.0,0.0,0.0,0.0,0.0,0.0,0.0,0.0,0.0,0.0,0.0,0.0,0.0,0.0,0.0,0.0,0.0,0.0,0.0,0.0,0.0,0.0,0.0,0.0,0.0,0.0,0.0,0.0,0.0,0.0,0.0,0.0,0.0,0.0,0.0,0.0,0.0,0.0,0.0,0.0,0.0,0.0,0.0,0.0,0.0,0.0,0.0,0.0,0.0,0.0,0.0,0.0,0.0,0.0,0.0,0.0,0.0,0.0,0.0,0.0,0.0,0.0,0.0,0.0,0.0,0.0,0.0,0.0,0.0,0.0,0.0,0.0,0.0,0.0,0.0,0.0,0.0,0.0,0.0,0.0,0.0,0.0,0.0,0.0,0.0,0.0,0.0,0.0,0.0,0.0,0.0,0.0,0.0,0.0,0.0,0.0,0.0,0.0,0.0,0.0,0.0,0.0,0.0,0.0,0.0,0.0,0.0,0.0,0.0,0.0,0.0,0.0,0.0,0.0,0.0,0.0,0.0,0.0,0.0,0.0,0.0,0.0,0.0,0.0,0.0,0.0,0.0,0.0,0.0,0.0,0.0,0.0,0.0,0.0,0.0,0.0,0.0,0.0,0.0,0.0,0.0,0.0,0.0,0.0,0.0,0.0,0.0,0.0,0.0,0.0,0.0,0.0,0.0,0.0,0.0,0.0,0.0,0.0,0.0,0.0,0.0,0.0,0.0,0.0,0.0,0.0,0.0,0.0,0.0,0.0,0.0,0.0,0.0,0.0,0.0,0.0,0.0,0.0,0.0,0.0,0.0,0.0,0.0,0.0,0.0,0.0,0.0,0.0,0.0,0.0,0.0,0.0,0.0,0.0,0.0,0.0,0.0,0.0,0.0,0.0,0.0,0.0,0.0,0.0,0.0,0.0,0.0,0.0,0.0,0.0,0.0,0.0,0.0,0.0,0.0,0.0,0.0,0.0,0.0,0.0,0.0,0.0,0.0,0.0,0.0,0.0,0.0,0.0,0.0,0.0,0.0,0.0,0.0,0.0,0.0,0.0,0.0,0.0,0.0,0.0,0.0,0.0,0.0,0.0,0.0,0.0,0.0,0.0,0.0,0.0,0.0,0.0,0.0,0.0,0.0,0.0,0.0,0.0,0.0,0.0,0.0,0.0,0.0,0.0,0.0,0.0,0.0,0.0,0.0,0.0,0.0,0.0,0.0,0.0,0.0,0.0,0.0,0.0,0.0,0.0,0.0,0.0,0.0,0.0,0.0,0.0,0.0,0.0,0.0,0.0,0.0,0.0,0.0,0.0,0.0,0.0,0.0,0.0,0.0,0.0,0.0,0.0,0.0,0.0,0.0,0.0,0.0,0.0,0.0,0.0,0.0,0.0,0.0,0.0,0.0,0.0,0.0,0.0,0.0,0.0,0.0,0.0,0.0,0.0,0.0,0.0,0.0,0.0,0.0,0.0,0.0,0.0,0.0,0.0,0.0,0.0,0.0,0.0,0.0,0.0,0.0,0.0,0.0,0.0,0.0,0.0,0.0,0.0,0.0,0.0,0.0,0.0,0.0,0.0,0.0,0.0,0.0,0.0,0.0,0.0,0.0,0.0,0.0,0.0,0.0,0.0,0.0,0.0,0.0,0.0,0.0,0.0,0.0,0.0,0.0,0.0,0.0,0.0,0.0,0.0,0.0,0.0,0.0,0.0,0.0,0.0,0.0,0.0,0.0,0.0,0.0,0.0,0.0,0.0,0.0,0.0,0.0,0.0,0.0,0.0,0.0,0.0,0.0,0.0,0.0,0.0,0.0,0.0,0.0,0.0,0.0,0.0,0.0,0.0,0.0,0.0,0.0,0.0,0.0,0.0,0.0,0.0,0.0,0.0,0.0,0.0,0.0,0.0,0.0,0.0,0.0,0.0,0.0,0.0,0.0,0.0,0.0,0.0,0.0,0.0,0.0,0.0,0.0,0.0,0.0,0.0,0.0,0.0,0.0,0.0,0.0,0.0,0.0,0.0,0.0,0.0,0.0,0.0,0.0,0.0,0.0,0.0,0.0,0.0,0.0,0.0,0.0,0.0,0.0,0.0,0.0,0.0,0.0,0.0,0.0,0.0,0.0,0.0,0.0,0.0,0.0,0.0,0.0,0.0,0.0,0.0,0.0,0.0,0.0,0.0,0.0,0.0,0.0,0.0,0.0,0.0,0.0,0.0,0.0,0.0,0.0,0.0,0.0,0.0,0.0,0.0,0.0,0.0,0.0,0.0,0.0,0.0,0.0,0.0,0.0,0.0,0.0,0.0,0.0,0.0,0.0,0.0,0.0,0.0,0.0,0.0,0.0,0.0,0.0,0.0,0.0,0.0,0.0,0.0,0.0,0.0,0.0,0.0,0.0,0.0,0.0,0.0,0.0,0.0,0.0,0.0,0.0,0.0,0.0,0.0,0.0,0.0,0.0,0.0,0.0,0.0,0.0,0.0,0.0,0.0,0.0,0.0,0.0,0.0,0.0,0.0,0.0,0.0,0.0,0.0,0.0,0.0,0.0,0.0,0.0,0.0,0.0,0.0,0.0,0.0,0.0,0.0,0.0,0.0,0.0,0.0,0.0,0.0,0.0,0.0,0.0,0.0,0.0,0.0,0.0,0.0,0.0,0.0,0.0,0.0,0.0,0.0,0.0,0.0,0.0,0.0,0.0,0.0,0.0,0.0,0.0,0.0,0.0,0.0,0.0,0.0,0.0,0.0,0.0,0.0,0.0,0.0,0.0,0.0,0.0,0.0,0.0,0.0,0.0,0.0,0.0,0.0,0.0,0.0,0.0,0.0,0.0,0.0,0.0,0.0,0.0,0.0,0.0,0.0,0.0,0.0,0.0,0.0,0.0,0.0,0.0,0.0,0.0,0.0,0.0,0.0,0.0,0.0,0.0,0.0,0.0,0.0,0.0,0.0,0.0,0.0,0.0,0.0,0.0,0.0,0.0,0.0,0.0,0.0,0.0,0.0,0.0,0.0,0.0,0.0,0.0,0.0,0.0,0.0,0.0,0.0,0.0,0.0,0.0,0.0,0.0,0.0,0.0,0.0,0.0,0.0,0.0,0.0,0.0,0.0,0.0,0.0,0.0,0.0,0.0,0.0,0.0,0.0,0.0,0.0,0.0,0.0,0.0,0.0,0.0,0.0,0.0,0.0,0.0,0.0,0.0,0.0,0.0,0.0,0.0,0.0,0.0,0.0,0.0,0.0,0.0,0.0,0.0,0.0,0.0,0.0,0.0,0.0,0.0,0.0,0.0,0.0,0.0,0.0,0.0,0.0,0.0,0.0,0.0,0.0,0.0,0.0,0.0,0.0,0.0,0.0,0.0,0.0,0.0,0.0,0.0,0.0,0.0,0.0,0.0,0.0,0.0,0.0,0.0,0.0,0.0,0.0,0.0,0.0,0.0,0.0,0.0,0.0,0.0,0.0,0.0,0.0,0.0,0.0,0.0,0.0,0.0,0.0,0.0,0.0,0.0,0.0,0.0,0.0,0.0,0.0,0.0,0.0,0.0,0.0,0.0,0.0,0.0,0.0,0.0,0.0,0.0,0.0,0.0,0.0,0.0,0.0,0.0,0.0,0.0,0.0,0.0,0.0,0.0,0.0,0.0,0.0,0.0,0.0,0.0,0.0,0.0,0.0,0.0,0.0,0.0,0.0,0.0,0.0,0.0,0.0,0.0,0.0,0.0,0.0,0.0,0.0,0.0,0.0,0.0,0.0,0.0,0.0,0.0,0.0,0.0,0.0,0.0,0.0,0.0,0.0,0.0,0.0,0.0,0.0,0.0,0.0,0.0,0.0,0.0,0.0,0.0,0.0,0.0,0.0,0.0,0.0,0.0,0.0,0.0,0.0,0.0,0.0,0.0,0.0,0.0,0.0,0.0,0.0,0.0,0.0,0.0,0.0,0.0,0.0,0.0,0.0,0.0,0.0,0.0,0.0,0.0,0.0,0.0,0.0,0.0,0.0,0.0,0.0,0.0,0.0,0.0,0.0,0.0,0.0,0.0,0.0,0.0,0.0,0.0,0.0,0.0,0.0,0.0,0.0,0.0,0.0,0.0,0.0,0.0,0.0,0.0,0.0,0.0,0.0,0.0,0.0,0.0,0.0,0.0,0.0,0.0,0.0,0.0,0.0,0.0,0.0,0.0,0.0,0.0,0.0,0.0,0.0,0.0,0.0,0.0,0.0,0.0,0.0,0.0,0.0,0.0,0.0,0.0,0.0,0.0,0.0,0.0,0.0,0.0,0.0,0.0,0.0,0.0,0.0,0.0,0.0,0.0,0.0,0.0,0.0,0.0,0.0,0.0,0.0,0.0,0.0,0.0,0.0,0.0,0.0,0.0,0.0,0.0,0.0,0.0,0.0,0.0,0.0,0.0,0.0,0.0,0.0,0.0,0.0,0.0,0.0,0.0,0.0,0.0,0.0,0.0,0.0,0.0,0.0,0.0,0.0,0.0,0.0,0.0,0.0,0.0,0.0,0.0,0.0,0.0,0.0,0.0,0.0,0.0,0.0,0.0,-3.5469,0.0,0.0,0.0,0.0,0.0,0.0,0.0,0.0,0.0,0.0,0.0,0.0,0.0,0.0,0.0,0.0,0.0,0.0,0.0,0.0,0.0,0.0,0.0,0.0,0.0,0.0,0.0,0.0,0.0,0.0,0.0,0.0,0.0,0.0,0.0,0.0,0.0,0.0,0.0,0.0,0.0,0.0,0.0,0.0,0.0,0.0,0.0,0.0,0.0,0.0,0.0,0.0,0.0,0.0,0.0,0.0,0.0,0.0,0.0,0.0,0.0,0.0,0.0,0.0,0.0,0.0,0.0,0.0,0.0,0.0,0.0,0.0,0.0,0.0,0.0,0.0,0.0,0.0,0.0,0.0,0.0,0.0,0.0,0.0,0.0,0.0,0.0,0.0,0.0,0.0,0.0,0.0,0.0,0.0,0.0,0.0,0.0,0.0,0.0,0.0,0.0,0.0,0.0,0.0,0.0,0.0,0.0,0.0,0.0,0.0,0.0,0.0,0.0,0.0,0.0,0.0,-3.5445,0.0,0.0,0.0,0.0,0.0,0.0,0.0,0.0,0.0,0.0,0.0,0.0,0.0,0.0,0.0,0.0,0.0,0.0,0.0,0.0,0.0,0.0,0.0,0.0,0.0,0.0,0.0,0.0,0.0,0.0,0.0,0.0,0.0,0.0,0.0,0.0,0.0,0.0,0.0,0.0,0.0,0.0,0.0,0.0,0.0,0.0,0.0,0.0,0.0,0.0,0.0,0.0,0.0,0.0,0.0,0.0,0.0,0.0,0.0,0.0,0.0,0.0,0.0,0.0,0.0,0.0,0.0,0.0,0.0,0.0,0.0,0.0,0.0,0.0,0.0,0.0,0.0,0.0,0.0,0.0,0.0,0.0,0.0,0.0,0.0,0.0,0.0,0.0,0.0,0.0,0.0,0.0,0.0,0.0,0.0,0.0,0.0,0.0,0.0,0.0,0.0,0.0,0.0,0.0,0.0,0.0,0.0,0.0,-3.5136,-3.5122,-3.5227,-3.5227,-3.5163,-3.5044,-3.5155,-3.5203,-3.5192,-3.5307,0.0,0.0,0.0,0.0,0.0,0.0,0.0,0.0,0.0,0.0,0.0,0.0,0.0,0.0,0.0,0.0,0.0,0.0,0.0,0.0,0.0,0.0,0.0,0.0,0.0,0.0,0.0,0.0,0.0,0.0,0.0,0.0,0.0,0.0,0.0,0.0,0.0,0.0,0.0,0.0,0.0,0.0,0.0,0.0,0.0,0.0,0.0,0.0,0.0,0.0,0.0,0.0,0.0,0.0,0.0,0.0,0.0,0.0,0.0,0.0,0.0,0.0,0.0,0.0,0.0,0.0,0.0,0.0,0.0,0.0,0.0,0.0,0.0,0.0,0.0,0.0,0.0,0.0,0.0,0.0,0.0,0.0,0.0,0.0,0.0,0.0,-3.502,-3.4783,0.0,0.0,0.0,0.0,0.0,0.0,0.0,0.0,0.0,0.0,0.0,0.0,0.0,-3.4945,-3.4936,-3.4936,-3.4945,-3.4973,-3.4936,-3.4945,-3.4945,-3.4945,-3.4908,-3.4849,-3.4868,0.0,-3.5122,-3.5138,0.0,0.0,0.0,0.0,0.0,0.0,0.0,0.0,0.0,0.0,0.0,0.0,0.0,0.0,0.0,0.0,0.0,0.0,0.0,0.0,0.0,0.0,0.0,0.0,0.0,0.0,0.0,0.0,0.0,0.0,0.0,0.0,0.0,0.0,0.0,0.0,0.0,0.0,0.0,0.0,0.0,0.0,0.0,0.0,0.0,0.0,0.0,0.0,0.0,0.0,0.0,0.0,0.0,0.0,0.0,0.0,0.0,0.0,0.0,0.0,0.0,0.0,0.0,0.0,0.0,0.0,0.0,0.0,0.0,0.0,0.0,0.0,0.0,0.0,0.0,0.0,0.0,0.0,0.0,0.0,0.0,0.0,0.0,0.0,0.0,-3.4992,-3.487,-3.487,-3.487,-3.486,0.0,0.0,0.0,0.0,0.0,0.0,0.0,0.0,0.0,-3.4513,-3.4649,-3.473,-3.473,-3.481,-3.485,-3.4908,-3.485,-3.485,-3.4908,-3.4908,-3.485,-3.4788,-3.4639,-3.4609,-3.4672,-3.4763,-3.4908,-3.5008,0.0,0.0,0.0,0.0,-3.4595,-3.4502,0.0,0.0,0.0,0.0,0.0,0.0,0.0,0.0,0.0,0.0,0.0,0.0,0.0,0.0,0.0,-3.3199,0.0,0.0,0.0,0.0,0.0,0.0,0.0,0.0,0.0,0.0,0.0,0.0,0.0,0.0,0.0,0.0,0.0,0.0,0.0,0.0,0.0,0.0,0.0,0.0,0.0,0.0,0.0,0.0,0.0,0.0,0.0,0.0,0.0,0.0,0.0,0.0,0.0,0.0,0.0,0.0,0.0,0.0,0.0,0.0,0.0,0.0,0.0,0.0,0.0,0.0,0.0,0.0,0.0,0.0,0.0,0.0,0.0,0.0,0.0,0.0,0.0,-3.4762,-3.4672,-3.4682,-3.463,-3.4548,0.0,0.0,0.0,0.0,0.0,0.0,-3.4209,-3.4386,-3.4416,-3.4209,-3.4363,-3.4454,-3.4454,-3.4594,-3.4689,-3.4752,-3.4749,-3.4769,-3.4831,-3.4772,-3.4691,-3.4612,-3.433,-3.4177,-3.4136,-3.4351,-3.4491,-3.4551,-3.4458,-3.4472,-3.451,-3.4032,-3.3796,-3.3647,0.0,0.0,0.0,0.0,0.0,0.0,0.0,0.0,0.0,0.0,0.0,0.0,0.0,0.0,-3.3184,-3.2842,-3.2811,-3.2795,0.0,0.0,0.0,0.0,0.0,0.0,0.0,0.0,0.0,0.0,0.0,0.0,0.0,0.0,0.0,0.0,0.0,0.0,0.0,0.0,0.0,0.0,0.0,0.0,0.0,0.0,0.0,0.0,0.0,0.0,0.0,0.0,0.0,0.0,0.0,0.0,0.0,0.0,0.0,0.0,0.0,0.0,0.0,0.0,0.0,0.0,0.0,0.0,0.0,0.0,0.0,0.0,0.0,0.0,0.0,0.0,0.0,0.0,0.0,0.0,0.0,-3.3921,-3.4086,0.0,0.0,0.0,0.0,-3.4197,-3.4209,-3.4209,-3.4197,-3.4209,-3.4209,-3.4197,-3.4093,-3.4031,-3.4031,-3.4239,-3.4328,-3.4328,-3.4517,-3.4623,-3.4623,-3.4409,-3.4257,-3.4124,-3.3852,-3.3698,-3.3643,-3.3852,-3.3931,-3.3944,-3.3931,-3.3931,-3.3839,-3.3011,-3.2671,-3.2548,0.0,0.0,0.0,0.0,0.0,0.0,0.0,0.0,0.0,0.0,0.0,0.0,0.0,-3.2908,-3.262,-3.2487,-3.2266,-3.2056,-3.1842,0.0,0.0,0.0,0.0,0.0,0.0,0.0,0.0,0.0,0.0,0.0,0.0,0.0,0.0,0.0,0.0,0.0,0.0,0.0,0.0,0.0,0.0,0.0,0.0,0.0,0.0,0.0,0.0,0.0,0.0,0.0,0.0,0.0,0.0,0.0,0.0,0.0,0.0,0.0,0.0,0.0,0.0,0.0,0.0,0.0,0.0,0.0,0.0,0.0,0.0,0.0,0.0,0.0,0.0,0.0,0.0,0.0,0.0,0.0,0.0,-3.4061,-3.3985,0.0,-3.3947,-3.3947,-3.3868,-3.3698,-3.386,-3.3855,-3.3684,-3.3842,-3.3842,-3.3633,-3.373,-3.3765,-3.3688,-3.3821,-3.3955,-3.4043,-3.4031,-3.4068,-3.4153,-3.408,-3.3968,-3.3826,-3.3611,-3.3433,-3.3339,-3.3291,-3.3433,-3.3703,-3.3703,-3.3703,-3.3597,-3.2634,-3.2274,-3.2123,0.0,0.0,0.0,0.0,0.0,0.0,0.0,0.0,0.0,0.0,0.0,-3.3552,-3.3184,-3.2619,-3.2249,-3.2144,-3.182,-3.1504,-3.1201,0.0,0.0,0.0,0.0,0.0,0.0,0.0,0.0,0.0,0.0,0.0,0.0,0.0,0.0,0.0,0.0,0.0,0.0,0.0,0.0,0.0,0.0,0.0,-3.4152,0.0,0.0,0.0,0.0,0.0,0.0,0.0,0.0,0.0,0.0,0.0,0.0,0.0,0.0,0.0,0.0,0.0,0.0,0.0,0.0,0.0,0.0,0.0,0.0,0.0,0.0,0.0,0.0,0.0,0.0,0.0,0.0,0.0,0.0,0.0,-3.3829,-3.3921,-3.378,-3.3657,-3.3657,-3.3657,-3.3591,-3.3408,-3.3563,-3.3591,-3.3408,-3.3549,-3.352,-3.331,-3.3404,-3.3412,-3.3332,-3.3458,-3.3584,-3.3661,-3.3666,-3.3707,-3.38,-3.372,-3.3607,-3.3528,-3.3317,-3.3172,-3.3101,-3.2945,-3.3008,-3.3157,-3.3313,-3.3357,-3.3215,-3.2003,-3.1564,-3.1361,0.0,0.0,0.0,0.0,0.0,0.0,0.0,0.0,0.0,0.0,-3.4384,-3.3449,-3.2858,-3.2504,-3.2161,-3.1801,-3.1485,-3.1181,-3.0897,-3.0629,0.0,0.0,0.0,0.0,0.0,0.0,0.0,0.0,0.0,0.0,0.0,0.0,0.0,0.0,0.0,0.0,0.0,0.0,0.0,0.0,0.0,0.0,-3.3802,0.0,0.0,0.0,0.0,0.0,0.0,0.0,0.0,0.0,0.0,0.0,0.0,0.0,0.0,0.0,0.0,0.0,0.0,0.0,0.0,0.0,0.0,0.0,0.0,0.0,0.0,0.0,0.0,0.0,0.0,0.0,0.0,0.0,-3.3753,-3.3793,-3.3684,-3.3422,-3.3393,-3.3393,-3.3393,-3.3393,-3.3393,-3.3393,-3.3393,-3.3393,-3.3393,-3.3337,-3.331,-3.3292,-3.3106,-3.2995,-3.3013,-3.3132,-3.319,-3.319,-3.3459,-3.3591,-3.3577,-3.3309,-3.319,-3.3175,-3.2961,-3.2884,-3.2884,-3.2868,-3.2621,-3.2283,-3.2702,-3.2848,-3.2636,-3.1049,-3.0428,-3.0119,0.0,0.0,0.0,0.0,0.0,0.0,0.0,0.0,0.0,0.0,-3.3753,-3.2981,-3.2811,-3.2283,-3.1802,-3.1466,-3.1353,-3.1064,-3.0506,0.0,0.0,0.0,0.0,0.0,0.0,0.0,0.0,0.0,0.0,0.0,0.0,0.0,0.0,0.0,0.0,0.0,0.0,0.0,0.0,0.0,0.0,0.0,-3.3133,0.0,0.0,0.0,0.0,0.0,0.0,0.0,0.0,0.0,0.0,0.0,0.0,0.0,0.0,0.0,0.0,0.0,0.0,0.0,0.0,0.0,0.0,0.0,0.0,0.0,0.0,0.0,0.0,0.0,0.0,0.0,0.0,-3.3422,-3.3509,-3.3506,-3.3495,-3.3408,-3.3393,-3.3393,-3.3393,-3.3393,-3.3393,-3.3393,-3.3393,-3.3393,-3.3393,-3.3337,-3.3262,-3.3165,-3.3042,-3.2981,-3.2932,-3.2945,-3.2977,-3.2977,-3.3055,-3.3086,-3.3086,-3.3008,-3.2977,-3.2961,-3.2605,-3.2454,-3.2437,-3.2162,-3.1637,-3.1116,-3.1771,-3.1706,-3.1079,-2.9816,-2.8681,-2.7731,0.0,0.0,0.0,0.0,0.0,0.0,0.0,0.0,0.0,0.0,-3.3575,-3.297,-3.2829,-3.2335,-3.182,-3.1334,-3.1179,-3.0845,-3.0208,0.0,0.0,0.0,0.0,0.0,0.0,0.0,0.0,0.0,0.0,0.0,0.0,0.0,0.0,0.0,0.0,0.0,0.0,0.0,0.0,0.0,0.0,0.0,-3.2827,-3.3096,-3.3301,-3.3393,-3.3294,-3.3327,-3.3378,-3.3253,0.0,0.0,0.0,0.0,0.0,0.0,0.0,0.0,0.0,0.0,0.0,0.0,0.0,0.0,0.0,0.0,0.0,0.0,0.0,0.0,0.0,0.0,0.0,0.0,-3.3162,-3.3162,-3.3162,-3.3286,-3.3538,-3.3864,-3.39,-3.39,-3.39,-3.39,-3.3755,-3.3429,-3.3393,-3.3393,-3.3393,-3.3274,-3.3165,-3.3101,-3.3011,-3.2932,-3.29,-3.29,-3.29,-3.29,-3.29,-3.29,-3.29,-3.29,-3.2802,-3.2639,-3.2403,-3.2197,-3.2021,-3.1459,-3.0882,-3.0414,0.0,0.0,0.0,0.0,-2.7833,-2.6791,0.0,0.0,0.0,0.0,0.0,0.0,0.0,0.0,0.0,0.0,0.0,-3.3169,-3.2827,-3.2504,-3.202,-3.1353,-3.0985,-3.0559,0.0,0.0,0.0,0.0,0.0,0.0,0.0,0.0,0.0,0.0,0.0,0.0,0.0,0.0,0.0,0.0,0.0,0.0,0.0,0.0,0.0,0.0,0.0,0.0,-3.2682,-3.2731,-3.2957,-3.3226,-3.286,-3.2972,-3.3226,-3.286,0.0,0.0,0.0,0.0,0.0,0.0,0.0,0.0,0.0,0.0,0.0,0.0,0.0,0.0,0.0,0.0,0.0,0.0,0.0,0.0,0.0,0.0,0.0,0.0,-3.2747,-3.2782,-3.2855,-3.3209,-3.3747,-3.4501,-3.4679,-3.4715,-3.4624,-3.4606,-3.428,-3.3465,-3.3393,-3.3411,-3.3396,0.0,0.0,0.0,0.0,-3.29,-3.29,-3.29,-3.29,-3.29,-3.29,-3.29,-3.29,-3.29,-3.2688,-3.2301,-3.2249,-3.2003,-3.157,-3.0778,-3.0166,-2.9734,-3.0085,-2.9799,-2.9058,-2.8236,-2.7402,-2.6657,0.0,0.0,0.0,0.0,0.0,0.0,0.0,0.0,0.0,-3.5627,-3.4218,-3.3169,-3.2827,-3.2504,-3.202,-3.1353,-3.0985,-3.046,0.0,0.0,0.0,0.0,0.0,0.0,0.0,0.0,0.0,0.0,0.0,0.0,0.0,0.0,0.0,0.0,0.0,0.0,0.0,0.0,0.0,0.0,0.0,0.0,-3.195,-3.2265,-3.2453,-3.2503,-3.2436,-3.2453,-3.2503,-3.2436,-3.2402,-3.2419,-3.2486,0.0,0.0,0.0,0.0,0.0,0.0,0.0,0.0,0.0,0.0,0.0,0.0,0.0,0.0,0.0,0.0,0.0,0.0,0.0,0.0,-3.2435,-3.2402,-3.2596,-3.3196,-3.3626,-3.4058,-3.454,-3.517,-3.5315,-3.4645,-3.4606,-3.428,-3.3465,-3.3393,-3.3382,-3.3322,-3.318,-3.3088,-3.3011,-3.2948,-3.29,-3.29,-3.29,-3.29,-3.29,-3.29,0.0,-3.29,-3.29,-3.2688,-3.2283,-3.1967,-3.1584,-3.1133,-3.006,-2.8934,-2.7827,-2.792,-2.758,-2.7029,-2.6528,-2.6163,-2.5886,0.0,0.0,0.0,0.0,0.0,0.0,0.0,0.0,0.0,0.0,-3.4837,-3.38,-3.2912,-3.2651,-3.2196,-3.1355,-3.0764,0.0,0.0,0.0,0.0,0.0,0.0,0.0,0.0,0.0,0.0,0.0,0.0,0.0,0.0,0.0,0.0,0.0,0.0,0.0,0.0,0.0,0.0,0.0,0.0,0.0,-3.1487,-3.186,-3.2109,-3.2283,-3.2074,-3.2144,-3.2283,-3.2074,-3.2003,-3.2021,-3.2248,-3.2162,-3.2039,0.0,0.0,0.0,0.0,0.0,0.0,0.0,0.0,0.0,0.0,0.0,0.0,0.0,0.0,-3.2502,0.0,0.0,-3.2559,-3.2597,-3.2595,-3.2873,-3.3601,-3.4207,-3.4746,-3.51,-3.5356,-3.5328,-3.4898,-3.4519,-3.4042,-3.3451,-3.3393,-3.3367,-3.3292,-3.3165,-3.3055,-3.2995,-3.2932,-3.29,-3.29,-3.29,-3.29,-3.29,-3.29,-3.29,-3.29,-3.2688,-3.2386,-3.1985,-3.1565,-3.1181,-3.0697,-2.9413,-2.8042,-2.675,-2.675,-2.6539,-2.6227,-2.599,-2.5809,-2.5682,0.0,0.0,0.0,0.0,0.0,0.0,0.0,0.0,0.0,0.0,0.0,-3.4585,-3.3273,-3.2932,-3.2401,0.0,0.0,0.0,0.0,0.0,0.0,0.0,0.0,0.0,0.0,0.0,0.0,0.0,0.0,0.0,0.0,0.0,0.0,0.0,0.0,0.0,0.0,0.0,0.0,0.0,0.0,0.0,-3.123,-3.1506,-3.1787,-3.2039,-3.1731,-3.1805,-3.2039,-3.1712,-3.1601,-3.1657,-3.1985,-3.186,-3.1675,-3.1985,-3.2127,0.0,0.0,0.0,0.0,0.0,0.0,0.0,0.0,0.0,-3.2144,-3.2092,-3.2144,-3.2162,-3.2092,-3.2267,-3.2492,-3.2726,-3.2909,-3.325,-3.4003,-3.4726,-3.5267,-3.5451,-3.5382,-3.5189,-3.4816,-3.4314,-3.3799,-3.3325,-3.3334,-3.3352,-3.3262,-3.315,-3.3057,-3.2979,-3.2932,-3.29,-3.29,-3.29,-3.29,-3.29,-3.2818,-3.2786,-3.277,-3.2369,-3.1967,-3.1565,-3.1162,-3.0717,-3.0191,-2.8903,-2.763,-2.6402,-2.6252,-2.6115,-2.599,-2.5917,-2.5809,-2.5682,0.0,0.0,0.0,0.0,0.0,0.0,0.0,0.0,0.0,0.0,0.0,0.0,0.0,0.0,0.0,0.0,0.0,0.0,0.0,0.0,0.0,0.0,0.0,0.0,0.0,0.0,0.0,0.0,0.0,0.0,0.0,0.0,0.0,0.0,0.0,0.0,0.0,0.0,0.0,0.0,0.0,0.0,-3.121,-3.1249,-3.1271,-3.131,-3.1271,-3.1271,-3.131,-3.1269,-3.1269,-3.1252,-3.131,-3.1291,-3.1252,-3.131,0.0,-3.1769,-3.1769,-3.2039,-3.2196,-3.186,-3.2039,-3.2127,0.0,0.0,-3.1694,-3.137,-3.1562,-3.1675,-3.1387,-3.2147,-3.2743,-3.2417,-3.293,-3.3588,-3.4355,-3.4867,-3.5063,-3.4666,-3.5283,-3.5184,-3.3812,-3.3859,-3.3702,-3.2914,-3.315,-3.3262,-3.3135,-3.3057,-3.2979,-3.2916,-3.29,-3.29,-3.29,-3.29,-3.29,-3.29,-3.2538,-3.2369,-3.2352,-3.1949,-3.1547,-3.1142,-3.074,-3.0166,-2.9446,-2.8704,-2.7912,-2.7116,-2.6468,-2.6115,-2.599,-2.5917,-2.5809,-2.5682,0.0,0.0,0.0,0.0,0.0,0.0,0.0,0.0,0.0,0.0,0.0,0.0,0.0,0.0,0.0,0.0,0.0,0.0,0.0,0.0,0.0,0.0,0.0,0.0,0.0,0.0,0.0,0.0,0.0,0.0,0.0,0.0,0.0,0.0,0.0,0.0,0.0,0.0,0.0,0.0,0.0,0.0,-3.119,-3.119,-3.119,-3.119,-3.119,-3.119,0.0,0.0,-3.119,-3.119,-3.119,-3.119,-3.119,-3.119,-3.1291,0.0,-3.1408,-3.1524,0.0,0.0,-3.1199,-3.0946,-3.0624,-3.0681,-3.0721,-3.0603,-3.1004,-3.137,-3.123,-3.1941,-3.2647,0.0,-3.3558,-3.4281,-3.4975,-3.4907,-3.4534,-3.3832,-3.3751,-3.3596,-3.3183,-3.2842,-3.2616,-3.252,-3.283,-3.2943,-3.2818,-3.2786,-3.2802,-3.29,-3.2672,-3.2672,-3.29,-3.29,-3.277,-3.2538,-3.2386,-3.2179,-3.1949,-3.1528,-3.1142,-3.074,-3.0572,-3.0075,-2.9383,-2.9102,-2.8575,-2.7912,-2.7613,-2.7443,-2.729,-2.6321,-2.5846,-2.5701,0.0,0.0,0.0,0.0,0.0,0.0,0.0,0.0,0.0,0.0,0.0,0.0,0.0,0.0,0.0,0.0,0.0,0.0,0.0,0.0,0.0,0.0,0.0,0.0,0.0,0.0,0.0,0.0,0.0,0.0,0.0,0.0,0.0,0.0,0.0,0.0,0.0,0.0,0.0,0.0,0.0,0.0,-3.1329,-3.1249,-3.119,-3.119,-3.119,-3.119,0.0,0.0,-3.119,-3.119,-3.119,-3.119,-3.119,-3.119,-3.119,-3.1157,-3.0954,0.0,0.0,-3.0632,-3.0192,-2.9854,-3.0057,-3.0108,-3.0176,-3.0362,-3.0835,-3.119,-3.1151,-3.1782,-3.2527,-3.3263,-3.3842,-3.445,-3.5138,-3.4626,-3.3866,-3.3043,-3.2508,-3.2266,-3.2361,-3.2077,-3.195,-3.2127,-3.2502,-3.2702,-3.2622,-3.2437,-3.2521,-3.29,-3.2505,-3.2488,-3.29,-3.2786,-3.2589,-3.2301,-3.2074,-3.1822,-3.1509,-3.1123,-3.0781,-3.0506,-3.0506,-3.0191,-2.9678,-2.9479,-2.9118,-2.8674,-2.8475,-2.8392,-2.8257,-2.709,-2.651,-2.6292,0.0,0.0,0.0,0.0,0.0,0.0,0.0,0.0,0.0,0.0,0.0,0.0,0.0,0.0,0.0,0.0,0.0,0.0,0.0,0.0,0.0,0.0,0.0,0.0,0.0,0.0,0.0,0.0,0.0,0.0,0.0,0.0,0.0,0.0,0.0,0.0,0.0,0.0,0.0,0.0,0.0,0.0,-3.1657,-3.1329,-3.119,-3.119,-3.119,0.0,0.0,0.0,-3.119,-3.119,-3.119,-3.119,0.0,-3.119,-3.119,0.0,0.0,0.0,-2.9973,-2.9247,-2.9044,-2.923,-2.9939,-3.0108,-3.0311,-3.1021,-3.1173,-3.1151,-3.1035,-3.1722,-3.2523,-3.3174,-3.3394,-3.3694,-3.4421,-3.3845,-3.3098,-3.2408,-3.2139,-3.1754,0.0,-3.1804,-3.2127,-3.175,-3.2266,-3.2588,-3.2606,-3.2056,-3.2091,-3.2884,-3.2505,-3.2488,-3.29,-3.2505,-3.2318,-3.2283,-3.1509,-3.1142,-3.1103,-3.0699,-3.051,-3.0506,-3.0506,-3.0489,-3.0406,-2.9694,-2.938,-2.9317,-2.8658,-2.8392,-2.8392,-2.8343,-2.8154,-2.7827,0.0,0.0,0.0,0.0,0.0,0.0,0.0,0.0,0.0,0.0,0.0,0.0,0.0,0.0,0.0,0.0,0.0,0.0,0.0,0.0,0.0,0.0,0.0,0.0,0.0,0.0,0.0,0.0,0.0,0.0,0.0,0.0,0.0,0.0,0.0,0.0,0.0,0.0,0.0,0.0,0.0,0.0,-3.2056,-3.1675,-3.1543,-3.1506,0.0,0.0,0.0,0.0,0.0,0.0,-3.119,0.0,0.0,-3.119,0.0,0.0,0.0,0.0,-2.9314,-2.9061,-2.8602,-2.8416,-2.9178,-2.9364,-2.9567,-3.0328,-3.0852,-3.119,-3.1151,-3.1374,-3.1647,-3.1877,-3.2337,-3.2726,-3.2875,-3.2669,-3.2412,-3.2118,-3.1603,0.0,0.0,0.0,0.0,-3.1254,-3.1913,-3.2301,-3.2214,-3.1932,-3.2109,-3.2884,-3.2249,-3.2091,-3.2488,-3.2369,-3.2038,-3.149,-3.0945,-3.0699,-3.0716,-3.0551,-3.0506,-3.0506,-3.0506,-3.0506,-3.0472,-3.0224,-3.0125,-3.0108,-2.988,-2.9798,-2.9798,-2.9798,-2.9716,-2.9412,0.0,0.0,0.0,0.0,0.0,0.0,0.0,0.0,0.0,0.0,0.0,0.0,0.0,0.0,0.0,0.0,0.0,0.0,0.0,0.0,0.0,0.0,0.0,0.0,0.0,0.0,0.0,0.0,0.0,0.0,0.0,0.0,0.0,0.0,0.0,0.0,0.0,0.0,0.0,0.0,0.0,0.0,-3.2435,-3.2056,-3.1823,0.0,0.0,0.0,0.0,0.0,0.0,0.0,0.0,0.0,0.0,0.0,0.0,0.0,0.0,-2.8941,-2.8501,-2.8248,-2.7791,-2.7689,-2.8756,-2.8993,-2.9281,-3.0294,-3.0869,-3.1106,-3.0796,-3.0782,-3.0782,-3.0746,-3.0954,-3.1252,-3.1634,-3.1446,-3.1338,-3.1578,-3.1095,-3.0794,0.0,0.0,0.0,-3.1072,-3.1749,-3.2109,-3.2003,-3.1861,-3.2144,-3.2884,-3.2127,-3.195,-3.2505,-3.2231,-3.175,-3.1103,-3.0679,-3.0506,-3.0506,-3.0506,-3.0506,-3.0506,-3.0506,-3.0506,-3.0506,-3.0506,-3.0506,-3.0506,-3.0506,-3.0506,-3.0468,-3.0321,-3.03,-3.0215,0.0,0.0,0.0,0.0,0.0,0.0,0.0,0.0,0.0,0.0,0.0,0.0,0.0,0.0,0.0,0.0,0.0,0.0,0.0,0.0,0.0,0.0,0.0,0.0,0.0,0.0,0.0,0.0,0.0,0.0,0.0,0.0,0.0,0.0,0.0,0.0,0.0,0.0,0.0,0.0,0.0,0.0,-3.2795,-3.2452,0.0,0.0,0.0,0.0,0.0,0.0,0.0,0.0,0.0,0.0,0.0,0.0,0.0,-2.9666,-2.8246,-2.7841,-2.7621,-2.6928,-2.6759,-2.7148,-2.8654,-2.8993,-2.9416,-3.0835,-3.114,-3.0883,0.0,0.0,-2.9935,-2.9806,-2.9308,-2.9377,-3.0645,-3.0174,-2.9981,0.0,0.0,0.0,0.0,0.0,0.0,-3.1171,0.0,-3.2057,-3.1985,-3.1878,-3.2144,-3.2852,-3.2109,-3.2091,-3.2868,-3.2056,-3.1471,-3.1103,-3.0679,-3.0506,-3.0506,-3.0506,-3.0506,-3.0506,-3.0506,-3.0506,-3.0506,-3.0506,-3.0506,-3.0506,-3.0506,-3.0506,-3.0447,-2.9984,-3.0044,-3.0239,0.0,0.0,0.0,0.0,0.0,0.0,0.0,0.0,0.0,0.0,0.0,0.0,0.0,0.0,0.0,0.0,0.0,0.0,0.0,0.0,0.0,0.0,0.0,0.0,0.0,0.0,0.0,0.0,0.0,0.0,0.0,0.0,0.0,0.0,0.0,0.0,0.0,0.0,0.0,0.0,0.0,0.0,-3.3193,0.0,0.0,0.0,0.0,0.0,0.0,0.0,0.0,0.0,0.0,0.0,-3.0345,0.0,0.0,-2.8432,-2.8636,-2.8264,-2.7756,-2.757,-2.7519,-2.7773,-2.8773,-2.8993,-2.9264,-3.0192,-3.0378,-3.014,0.0,0.0,0.0,-2.8273,-2.814,0.0,-2.8434,-2.9142,0.0,-2.9902,0.0,-3.0568,-3.0692,-3.0733,0.0,0.0,-3.1658,-3.1914,-3.1637,-3.1967,-3.2249,-3.2437,-3.195,-3.1932,-3.2437,-3.1658,-3.1184,-3.1103,-3.0679,-3.0506,-3.0506,-3.0506,-3.0506,-3.0506,-3.0506,-3.0506,-3.0506,-3.0506,-3.0506,-3.0506,-3.0506,-3.0506,-3.0447,-2.9984,-2.9859,-2.9924,0.0,0.0,0.0,0.0,0.0,0.0,0.0,0.0,0.0,0.0,0.0,0.0,0.0,0.0,0.0,0.0,0.0,0.0,0.0,0.0,0.0,0.0,0.0,0.0,0.0,0.0,0.0,0.0,0.0,0.0,0.0,0.0,0.0,0.0,0.0,0.0,0.0,0.0,0.0,0.0,0.0,0.0,0.0,0.0,0.0,0.0,0.0,0.0,0.0,0.0,0.0,-3.119,-3.119,-3.0683,-3.004,-2.9702,0.0,-2.8349,-2.845,-2.8399,-2.8247,-2.7891,-2.7807,-2.7925,-2.8383,-2.8467,-2.8687,-2.9448,-2.9617,0.0,0.0,0.0,0.0,0.0,0.0,0.0,-2.747,-2.8431,-2.9207,0.0,-3.01,0.0,-3.0692,-3.0753,-3.0851,0.0,-3.162,-3.1841,-3.1504,-3.2197,-3.2505,-3.2301,-3.1913,-3.1714,-3.1769,-3.149,-3.1261,-3.1103,-3.0679,-3.0506,-3.0506,-3.0506,-3.0506,-3.0506,-3.0506,-3.0506,-3.0506,-3.0506,-3.0506,-3.0506,-3.0506,-3.0506,-3.0447,-2.9984,-2.9793,-2.9772,0.0,0.0,0.0,0.0,0.0,0.0,0.0,0.0,0.0,0.0,0.0,0.0,0.0,0.0,0.0,0.0,0.0,0.0,0.0,0.0,0.0,0.0,0.0,0.0,0.0,0.0,0.0,0.0,0.0,0.0,0.0,0.0,0.0,0.0,0.0,0.0,0.0,0.0,0.0,0.0,0.0,0.0,0.0,0.0,0.0,0.0,0.0,0.0,0.0,0.0,-3.1468,-3.119,-3.119,-3.0632,-2.9837,-2.9196,-2.8925,-2.8704,-2.8111,-2.8535,-2.8959,-2.8145,-2.7959,-2.7925,-2.7824,-2.7807,-2.8027,-2.884,0.0,-2.8738,-2.7942,-2.7807,-2.7535,-2.6724,0.0,-2.6738,-2.7178,-2.7892,-2.8569,-2.9185,-2.991,-3.0431,-3.0654,-3.0794,-3.0932,-3.1035,-3.1582,-3.1786,-3.1504,-3.2386,-3.2721,-3.2318,-3.202,-3.1677,-3.1261,-3.1547,-3.1528,-3.1164,-3.072,-3.0506,-3.0506,-3.0506,-3.0506,-3.0506,-3.0506,-3.0506,-3.0506,-3.0506,-3.0506,-3.0506,-3.0506,-3.0506,-3.0447,-2.9984,-2.9793,-2.9772,0.0,0.0,0.0,0.0,0.0,0.0,0.0,0.0,0.0,0.0,-4.0301,-4.0301,0.0,0.0,0.0,0.0,0.0,0.0,0.0,0.0,0.0,0.0,0.0,0.0,0.0,0.0,0.0,0.0,0.0,0.0,0.0,0.0,0.0,0.0,0.0,0.0,0.0,0.0,0.0,0.0,0.0,0.0,0.0,0.0,0.0,0.0,0.0,0.0,0.0,0.0,-3.1468,-3.119,-3.119,-3.0296,-2.9179,-2.9044,-2.8518,-2.8111,-2.8654,-2.933,-2.9736,-2.8993,-2.8807,-2.8619,-2.7959,-2.7807,0.0,0.0,0.0,-2.8738,-2.7942,-2.7807,0.0,-2.6654,0.0,0.0,0.0,0.0,-2.7765,0.0,0.0,0.0,0.0,0.0,0.0,0.0,-3.1353,-3.1449,-3.1485,-3.2091,-3.2386,-3.2301,-3.2555,-3.2505,-3.2091,-3.1823,-3.1658,-3.1584,-3.0861,-3.0506,-3.0506,-3.0506,-3.0506,-3.0506,-3.0506,-3.0506,-3.0506,-3.0506,-3.0506,-3.0506,-3.0506,-3.0506,-3.0447,-2.9984,-2.9793,-2.9728,0.0,0.0,0.0,0.0,0.0,0.0,0.0,-4.0301,-4.0301,-4.0301,-4.0301,-4.0301,-4.0301,-4.0301,0.0,0.0,0.0,0.0,0.0,0.0,0.0,0.0,0.0,0.0,0.0,0.0,0.0,0.0,0.0,0.0,0.0,0.0,0.0,0.0,0.0,0.0,0.0,0.0,0.0,0.0,0.0,0.0,0.0,0.0,0.0,0.0,0.0,0.0,0.0,0.0,-3.1914,-3.1428,-3.1269,-3.0194,-2.8993,-2.8993,-2.8739,-2.8501,-2.8908,-2.9533,-2.9922,-2.9179,-2.8705,-2.818,-2.7384,0.0,0.0,0.0,0.0,-2.8738,-2.7942,0.0,0.0,0.0,0.0,0.0,0.0,0.0,0.0,0.0,0.0,0.0,0.0,0.0,0.0,-3.1137,-3.1098,-3.1176,-3.1389,-3.1768,-3.2074,-3.2301,-3.2688,-3.2605,-3.2003,-3.2003,-3.1913,-3.1695,-3.1103,-3.0821,-3.0801,-3.0593,-3.0506,-3.0506,-3.0506,-3.0506,-3.0506,-3.0506,-3.0506,-3.0506,-3.0506,-3.0506,-3.0468,-3.0258,-3.0006,-2.9793,0.0,0.0,0.0,0.0,0.0,0.0,0.0,-4.0301,-4.0301,-4.0301,-4.0301,-4.0301,-4.0301,-4.0301,-4.0301,0.0,0.0,0.0,0.0,0.0,0.0,0.0,0.0,0.0,0.0,0.0,0.0,0.0,0.0,0.0,0.0,0.0,0.0,0.0,0.0,0.0,0.0,0.0,0.0,0.0,0.0,0.0,0.0,0.0,0.0,0.0,0.0,0.0,0.0,0.0,-3.2401,-3.1878,-3.1543,-3.0309,-2.8993,-2.8993,-2.8891,-2.8756,-2.8756,-2.9279,-2.9685,-2.8924,-2.8281,-2.7655,-2.7063,-2.7384,0.0,0.0,-2.8805,-2.9025,-2.8415,0.0,0.0,0.0,0.0,0.0,0.0,0.0,0.0,0.0,0.0,0.0,0.0,0.0,0.0,-3.1176,-3.1196,-3.1254,-3.1391,-3.1675,-3.202,-3.242,-3.2737,-3.2588,-3.195,-3.2179,-3.2144,-3.1805,-3.1319,-3.1103,-3.1083,-3.0679,-3.0506,-3.0506,-3.0506,-3.0506,-3.0506,-3.0506,-3.0506,-3.0506,-3.0506,-3.0506,-3.0506,-3.0506,-3.0279,-2.9984,0.0,0.0,0.0,0.0,0.0,0.0,0.0,-4.0301,-4.0301,-4.0301,-4.0301,-4.0301,-4.0301,-4.0301,-4.0301,0.0,0.0,0.0,0.0,0.0,0.0,0.0,0.0,0.0,0.0,0.0,0.0,0.0,0.0,0.0,0.0,0.0,0.0,0.0,0.0,0.0,0.0,0.0,0.0,0.0,0.0,0.0,0.0,0.0,0.0,0.0,0.0,0.0,0.0,0.0,0.0,-3.2634,-3.2299,-3.0732,-2.8993,-2.8993,0.0,0.0,-2.7908,-2.8484,-2.8925,-2.8111,-2.7858,-2.779,-2.7722,0.0,0.0,-2.9599,-2.9956,-2.9989,-2.9886,0.0,0.0,0.0,0.0,0.0,0.0,0.0,0.0,0.0,0.0,0.0,0.0,0.0,0.0,-3.1766,-3.2038,-3.202,-3.1677,-3.2038,-3.242,-3.2836,-3.2884,-3.285,-3.2786,-3.2454,-3.2283,-3.2249,-3.1471,-3.1103,-3.1083,-3.0679,-3.0506,-3.0506,-3.0506,-3.0506,-3.0506,-3.0506,-3.0506,-3.0506,-3.0506,-3.0506,-3.0506,-3.0506,-3.0468,-3.0384,0.0,0.0,0.0,0.0,0.0,0.0,-4.0301,-4.0301,-4.0301,-4.0301,-4.0301,-4.0301,-4.0301,-4.0301,-4.0301,0.0,0.0,0.0,0.0,0.0,0.0,0.0,0.0,0.0,0.0,0.0,0.0,0.0,0.0,0.0,0.0,0.0,0.0,0.0,0.0,0.0,0.0,0.0,0.0,0.0,0.0,0.0,0.0,0.0,0.0,0.0,0.0,0.0,0.0,0.0,0.0,0.0,-3.2634,-3.1562,0.0,0.0,-2.8935,-2.8416,-2.7925,-2.8027,-2.8213,-2.7874,-2.7469,-2.7148,-2.7148,0.0,0.0,-2.9313,-3.0142,-3.0632,-3.0192,0.0,0.0,0.0,0.0,0.0,0.0,0.0,0.0,0.0,0.0,0.0,0.0,0.0,0.0,-3.1274,-3.1694,-3.1877,-3.1714,-3.2074,-3.2471,-3.2884,-3.29,-3.29,-3.29,-3.2737,-3.2655,-3.2655,-3.2091,-3.1712,-3.1452,-3.1044,-3.072,-3.0506,-3.0506,-3.0506,-3.0506,-3.0506,-3.0506,-3.0506,-3.0506,-3.0506,-3.0506,-3.0506,-3.0506,-3.0468,0.0,0.0,0.0,0.0,0.0,-4.0301,-4.0301,-4.0301,-4.0301,-4.0301,-4.0301,-4.0301,-4.0301,-4.0301,-4.0301,-4.0301,0.0,0.0,0.0,0.0,0.0,0.0,0.0,0.0,0.0,0.0,0.0,0.0,0.0,0.0,0.0,0.0,0.0,0.0,0.0,0.0,0.0,0.0,0.0,0.0,0.0,0.0,0.0,0.0,0.0,0.0,0.0,0.0,0.0,0.0,0.0,0.0,0.0,0.0,0.0,0.0,-2.9351,-2.8661,-2.7994,-2.7638,-2.7469,-2.7469,-2.7249,-2.7097,0.0,0.0,0.0,-2.9621,-3.0578,-3.1176,-3.0533,0.0,0.0,0.0,0.0,0.0,0.0,0.0,0.0,0.0,0.0,0.0,0.0,0.0,-3.1176,-3.0855,-3.1601,-3.195,-3.1714,-3.2214,-3.2639,-3.29,-3.29,-3.29,-3.29,-3.29,-3.29,-3.29,-3.2488,-3.2144,-3.1859,-3.1338,-3.0945,-3.0675,-3.0551,-3.0506,-3.0506,-3.0506,-3.0506,-3.0506,-3.0506,-3.0506,-3.0506,-3.0506,-3.0506,-3.0506,0.0,0.0,0.0,0.0,0.0,0.0,-4.0301,-4.0301,-4.0301,-4.0301,-4.0301,-4.0301,-4.0301,-4.0301,-4.0301,-4.0301,0.0,0.0,0.0,0.0,0.0,0.0,0.0,0.0,0.0,0.0,-4.0301,-4.0301,-4.0234,0.0,0.0,0.0,0.0,0.0,0.0,0.0,0.0,0.0,0.0,0.0,0.0,0.0,0.0,0.0,0.0,0.0,0.0,0.0,0.0,0.0,0.0,0.0,0.0,0.0,0.0,0.0,-2.9557,-2.8317,-2.7912,-2.7283,-2.6708,-2.6708,-2.7249,-2.7993,0.0,0.0,0.0,-3.1101,-3.1468,-3.1582,-3.1252,0.0,0.0,0.0,0.0,0.0,0.0,0.0,0.0,0.0,0.0,0.0,0.0,0.0,-3.164,-3.0773,-3.2056,0.0,-3.1732,-3.2521,-3.2963,-3.29,-3.29,-3.29,-3.29,-3.29,-3.29,-3.29,-3.2488,-3.2301,-3.2266,-3.1452,-3.1103,-3.1083,-3.0658,-3.0506,-3.0506,-3.0506,-3.0506,-3.0506,-3.0506,-3.0506,-3.0506,-3.0506,-3.0506,-3.0506,0.0,0.0,0.0,0.0,0.0,0.0,0.0,-4.0301,-4.0301,-4.0301,-4.0301,-4.0301,-4.0301,-4.0301,-4.0301,-4.0301,0.0,0.0,0.0,0.0,0.0,0.0,0.0,0.0,0.0,0.0,-4.0234,-4.0234,-4.0166,-4.0137,-4.0137,0.0,0.0,0.0,0.0,0.0,0.0,0.0,0.0,0.0,0.0,0.0,0.0,0.0,0.0,0.0,0.0,0.0,0.0,0.0,0.0,0.0,0.0,0.0,0.0,0.0,0.0,0.0,-2.8864,-2.8451,-2.8282,-2.8282,-2.8451,-2.8705,-2.8942,0.0,0.0,0.0,-3.0932,0.0,0.0,0.0,0.0,0.0,0.0,0.0,0.0,0.0,0.0,0.0,0.0,0.0,0.0,0.0,-3.1677,-3.0895,-3.2127,-3.2555,-3.1732,-3.2538,-3.2979,-3.2963,-3.2963,-3.2963,-3.2963,-3.2916,-3.29,-3.29,-3.277,-3.2573,-3.2283,-3.175,-3.1509,-3.1471,-3.0801,-3.0675,-3.0902,-3.0613,-3.0506,-3.0506,-3.0506,-3.0506,-3.0506,-3.0506,-3.0506,-3.0506,0.0,0.0,0.0,0.0,0.0,0.0,0.0,-4.1246,-4.1246,-4.1246,-4.096,-4.075,-4.075,-4.0473,-4.0301,-4.0301,0.0,0.0,0.0,0.0,0.0,0.0,0.0,0.0,0.0,-4.0186,-4.0186,-4.0098,-4.0106,-4.0117,-4.0137,-4.0057,-4.0036,0.0,0.0,0.0,0.0,0.0,0.0,0.0,0.0,0.0,-3.9104,0.0,0.0,0.0,0.0,0.0,0.0,0.0,0.0,0.0,0.0,0.0,0.0,0.0,0.0,0.0,0.0,-2.9213,-2.8993,-2.8993,-2.9213,0.0,0.0,0.0,0.0,0.0,0.0,0.0,0.0,0.0,0.0,0.0,0.0,0.0,0.0,0.0,0.0,0.0,0.0,0.0,0.0,-3.1562,-3.16,-3.0952,-3.1931,-3.2318,-3.1732,-3.2453,-3.2914,-3.2995,-3.3026,-3.3026,-3.2995,-3.2963,-3.2932,-3.29,-3.29,-3.277,-3.2505,-3.2109,-3.1931,-3.1895,-3.124,-3.1103,0.0,-3.0885,-3.072,-3.0699,-3.0551,-3.0506,-3.0506,-3.0506,-3.0506,-3.0506,0.0,0.0,0.0,0.0,0.0,0.0,0.0,0.0,-4.2794,-4.2794,-4.2106,-4.159,-4.159,-4.0941,-4.0473,-4.0473,0.0,0.0,0.0,0.0,0.0,0.0,0.0,0.0,0.0,-4.0147,-4.0147,-3.9892,-4.0036,-4.0137,-4.0186,-3.9986,-3.9933,-3.9986,-3.9986,-3.9954,-3.99,-3.99,-3.99,-3.99,-3.99,-3.99,0.0,0.0,0.0,0.0,0.0,0.0,0.0,0.0,0.0,0.0,0.0,0.0,0.0,0.0,0.0,0.0,0.0,0.0,0.0,0.0,0.0,0.0,0.0,0.0,0.0,0.0,0.0,0.0,0.0,0.0,0.0,0.0,0.0,0.0,0.0,0.0,0.0,0.0,0.0,0.0,-3.0948,-3.1389,-3.1428,-3.0952,-3.1621,-3.1985,-3.1732,-3.2368,-3.2816,-3.2995,-3.3088,-3.3088,-3.2995,-3.3013,-3.2963,-3.29,-3.29,-3.29,-3.2884,-3.2471,-3.2318,-3.2318,-3.1895,-3.1695,-3.1677,-3.1317,-3.1123,-3.1024,-3.0699,-3.0572,-3.0568,-3.0572,-3.0572,-3.0531,0.0,0.0,0.0,0.0,0.0,0.0,0.0,0.0,0.0,0.0,-4.2622,-4.2488,-4.2488,-4.2335,-4.2221,0.0,0.0,0.0,0.0,0.0,0.0,0.0,0.0,0.0,0.0,-3.99,-3.99,-3.9826,-4.0015,-4.0077,-4.0057,-3.9996,-3.9954,-3.9922,-3.9922,-3.9911,-3.99,-3.99,-3.99,-3.99,-3.99,-3.99,0.0,0.0,0.0,0.0,-3.8085,-3.7044,0.0,0.0,0.0,0.0,0.0,0.0,0.0,0.0,-3.2502,0.0,0.0,0.0,0.0,0.0,0.0,0.0,0.0,0.0,0.0,0.0,0.0,0.0,0.0,0.0,0.0,0.0,0.0,0.0,0.0,0.0,0.0,0.0,0.0,-3.0376,-3.1083,-3.1693,-3.1766,-3.1035,-3.2127,-3.2569,-3.1967,-3.2602,-3.3039,-3.3088,-3.3198,-3.3168,-3.2995,-3.2948,-3.2916,-3.29,-3.29,-3.29,-3.2884,-3.2471,-3.2471,-3.2721,-3.2003,-3.1695,-3.1695,-3.1603,-3.1201,-3.0679,-3.1203,-3.1223,-3.1004,-3.13,-3.1223,-3.0945,0.0,0.0,0.0,0.0,0.0,0.0,0.0,0.0,0.0,0.0,0.0,0.0,0.0,0.0,0.0,0.0,0.0,0.0,0.0,0.0,0.0,0.0,0.0,0.0,-3.9351,-3.9464,-3.9458,-3.9351,-3.9693,-3.9859,-3.987,-3.9933,-3.9954,-3.9943,-3.9911,-3.9911,-3.9943,-3.9911,-3.99,-3.99,-3.99,0.0,0.0,0.0,0.0,0.0,-3.8693,-3.761,0.0,-3.5371,-3.43,-3.3393,0.0,0.0,0.0,0.0,-3.2666,0.0,0.0,0.0,0.0,0.0,0.0,0.0,0.0,0.0,0.0,0.0,0.0,0.0,0.0,0.0,0.0,0.0,0.0,0.0,0.0,0.0,0.0,0.0,0.0,-3.0768,0.0,-3.1656,-3.1694,-3.1055,-3.2074,-3.2519,-3.2039,-3.2619,-3.299,-3.3057,-3.315,-3.3137,-3.2995,-3.2995,-3.2963,-3.29,-3.29,-3.29,-3.29,-3.2672,-3.2688,-3.2884,-3.2437,-3.2249,-3.2249,-3.2056,-3.1714,-3.1338,-3.1603,-3.1565,-3.1395,-3.1621,-3.1565,-3.1393,0.0,0.0,0.0,0.0,0.0,0.0,0.0,0.0,0.0,0.0,0.0,0.0,0.0,0.0,0.0,0.0,0.0,0.0,0.0,0.0,0.0,0.0,0.0,-3.9176,-3.889,-3.9049,-3.9049,-3.8876,-3.9383,-3.9658,-3.9751,-3.9859,-3.9943,-3.9975,-3.9922,-3.9933,-3.9975,-3.9922,-3.99,-3.99,-3.99,0.0,0.0,0.0,0.0,0.0,0.0,0.0,0.0,-3.5591,-3.4434,-3.3393,-3.3393,0.0,0.0,0.0,0.0,0.0,0.0,0.0,0.0,0.0,0.0,0.0,0.0,0.0,0.0,0.0,0.0,0.0,0.0,0.0,0.0,0.0,0.0,0.0,0.0,0.0,0.0,0.0,-3.119,0.0,-3.119,-3.1506,-3.1507,-3.1055,-3.1878,-3.2283,-3.2074,-3.2568,-3.2928,-3.3026,-3.3104,-3.3104,-3.3011,-3.3073,-3.3008,-3.29,-3.2916,-3.2916,-3.2916,-3.2916,-3.2916,-3.2916,-3.2916,-3.2884,-3.2804,-3.2522,-3.2318,-3.2197,-3.1967,-3.1841,-3.1787,-3.186,-3.1841,-3.1769,0.0,0.0,0.0,0.0,0.0,0.0,0.0,0.0,0.0,0.0,0.0,0.0,0.0,0.0,0.0,0.0,0.0,0.0,0.0,0.0,0.0,0.0,-4.0021,-3.9266,-3.9213,-3.899,-3.899,-3.9213,-3.9532,-3.9792,-3.9946,-3.9975,-3.9954,-3.9911,-3.99,-3.99,-3.9911,-3.99,-3.99,-3.99,-3.99,0.0,0.0,0.0,0.0,0.0,0.0,0.0,0.0,-3.6495,-3.5092,-3.3393,-3.3393,0.0,0.0,0.0,0.0,0.0,-3.2666,0.0,0.0,0.0,0.0,0.0,0.0,0.0,0.0,0.0,0.0,0.0,0.0,0.0,0.0,0.0,0.0,0.0,0.0,0.0,0.0,-3.119,0.0,-3.119,-3.119,-3.1506,-3.1545,-3.121,-3.2127,-3.2584,-3.2283,-3.2864,-3.3229,-3.3247,-3.3262,-3.3214,-3.3086,-3.3042,-3.2979,-3.29,-3.2963,-3.2979,-3.2979,-3.2979,-3.2979,-3.2979,-3.2979,-3.2753,-3.2403,-3.2688,-3.242,-3.1841,-3.247,-3.2505,-3.2249,-3.2588,-3.2505,-3.2144,0.0,0.0,0.0,0.0,0.0,0.0,0.0,0.0,0.0,0.0,0.0,0.0,0.0,0.0,0.0,0.0,0.0,0.0,0.0,0.0,0.0,-4.2519,-4.1043,-3.9963,-3.9372,-3.8776,-3.8556,-3.871,-3.8961,-3.9154,-3.9261,-3.958,-3.9705,-3.9682,-3.9845,-3.99,-3.99,-3.99,-3.99,-3.99,0.0,0.0,0.0,0.0,0.0,0.0,0.0,0.0,0.0,0.0,-3.5225,-3.3393,-3.3393,0.0,0.0,0.0,0.0,0.0,-3.2651,-3.2282,0.0,0.0,0.0,0.0,0.0,0.0,0.0,0.0,0.0,0.0,0.0,0.0,0.0,0.0,0.0,0.0,-3.1092,-3.1035,-3.1052,0.0,0.0,-3.119,-3.119,-3.1506,-3.1562,-3.123,-3.2021,-3.2452,-3.2317,-3.2766,-3.3119,-3.3292,-3.331,-3.3247,-3.3101,-3.3152,-3.3122,-3.3008,-3.3042,-3.3057,-3.3057,-3.3057,-3.3026,-3.2995,-3.2995,-3.2868,-3.2639,-3.2818,-3.267,-3.2386,-3.2753,-3.2804,-3.2655,-3.2836,-3.2786,-3.2606,0.0,0.0,0.0,0.0,0.0,0.0,0.0,0.0,0.0,0.0,0.0,0.0,0.0,0.0,0.0,0.0,0.0,0.0,0.0,0.0,-4.3422,-4.332,-4.2004,-4.0723,-3.9524,-3.8822,-3.8424,-3.8289,-3.8494,-3.8631,-3.8703,-3.9168,-3.9433,-3.9514,-3.9705,-3.9826,-3.99,-3.99,-3.99,-3.99,0.0,0.0,0.0,0.0,0.0,0.0,0.0,0.0,0.0,0.0,0.0,0.0,0.0,0.0,0.0,0.0,-3.3393,-3.3241,-3.2503,-3.23,-3.2127,0.0,0.0,0.0,0.0,0.0,0.0,0.0,0.0,0.0,0.0,0.0,0.0,0.0,0.0,-3.0892,-3.0955,-3.0992,-3.1015,-3.1151,-3.1171,-3.119,-3.119,-3.1428,-3.1468,-3.121,-3.1804,-3.2214,-3.23,-3.2617,-3.2957,-3.3307,-3.3322,-3.3274,-3.318,-3.3259,-3.3244,-3.3101,-3.3117,-3.315,-3.315,-3.3101,-3.307,-3.3026,-3.3013,-3.2963,-3.29,-3.29,-3.29,-3.29,-3.29,-3.29,-3.29,-3.29,-3.29,-3.29,0.0,0.0,0.0,0.0,0.0,0.0,0.0,0.0,0.0,0.0,0.0,0.0,0.0,0.0,0.0,0.0,0.0,0.0,0.0,0.0,-4.4046,-4.3415,-4.2558,-4.1387,-3.9813,-3.9467,-3.9069,-3.8569,-3.8585,-3.8733,-3.8966,-3.9008,-3.9203,-3.9514,-3.9526,-3.9658,-3.99,-3.99,-3.99,-3.99,-3.99,0.0,0.0,0.0,0.0,0.0,0.0,0.0,0.0,0.0,0.0,0.0,0.0,0.0,0.0,0.0,0.0,-3.3241,-3.2503,-3.23,-3.2127,-3.137,0.0,0.0,0.0,0.0,0.0,0.0,0.0,0.0,0.0,0.0,0.0,0.0,0.0,-3.0753,-3.0892,0.0,-3.0915,-3.0995,-3.1131,-3.119,-3.119,-3.123,-3.123,-3.119,-3.1543,-3.1914,-3.2283,-3.2617,-3.2988,-3.3378,-3.3378,-3.3396,-3.3378,-3.3396,-3.3304,-3.3101,-3.3229,-3.3277,-3.3277,-3.3165,-3.3101,-3.3086,-3.3026,-3.2963,-3.29,-3.29,-3.29,-3.29,-3.29,-3.29,-3.29,-3.29,-3.29,-3.29,0.0,0.0,0.0,0.0,0.0,0.0,0.0,0.0,0.0,0.0,0.0,0.0,0.0,0.0,0.0,0.0,0.0,0.0,0.0,0.0,-4.3654,-4.3423,-4.2921,-4.2122,-4.1013,-3.9946,-3.9293,-3.9101,-3.8591,-3.8401,-3.8525,-3.8673,-3.8818,-3.8966,-3.9331,-3.9563,-3.9658,-3.9826,-3.99,-3.99,-3.99,-3.99,0.0,0.0,0.0,0.0,0.0,0.0,0.0,0.0,0.0,0.0,0.0,0.0,0.0,0.0,0.0,-3.3241,-3.2503,-3.23,0.0,0.0,0.0,0.0,0.0,0.0,0.0,0.0,0.0,0.0,0.0,0.0,0.0,0.0,-3.0733,-3.063,-3.0753,-3.079,-3.0834,-3.0975,-3.1035,-3.1112,-3.119,-3.119,-3.119,-3.119,-3.1506,-3.1878,-3.2283,-3.2617,-3.2988,-3.3378,-3.3393,-3.3393,-3.3393,-3.3393,-3.3364,-3.3289,-3.3352,-3.3367,-3.3367,-3.3319,-3.3226,-3.3101,-3.307,-3.3011,-3.29,-3.29,-3.29,-3.29,-3.29,-3.29,-3.29,-3.29,-3.29,-3.29,0.0,0.0,0.0,0.0,0.0,0.0,0.0,0.0,0.0,0.0,0.0,0.0,0.0,0.0,0.0,0.0,0.0,0.0,-4.4091,-4.3638,-4.3354,-4.3249,-4.3014,-4.2629,-4.2103,-4.08,-3.9894,-3.9387,-3.8589,-3.8209,-3.8209,-3.8385,-3.8525,-3.8615,-3.9017,-3.9261,-3.9364,-3.9647,-3.977,-3.9781,-3.9867,-3.99,0.0,0.0,0.0,0.0,0.0,0.0,0.0,0.0,0.0,0.0,0.0,0.0,0.0,0.0,0.0,0.0,-3.2469,-3.2214,0.0,0.0,0.0,0.0,0.0,0.0,0.0,0.0,0.0,0.0,0.0,0.0,0.0,0.0,-3.0501,-3.0531,-3.063,-3.0671,-3.0773,-3.0952,-3.0975,-3.1055,-3.119,-3.119,-3.119,-3.119,-3.1408,-3.175,-3.2283,-3.2518,-3.2878,-3.3378,-3.3393,-3.3393,-3.3393,-3.3393,-3.3393,-3.3393,-3.3393,-3.3393,-3.3393,-3.3334,-3.3226,-3.3101,-3.3088,-3.2993,-3.29,-3.2916,-3.2916,-3.29,-3.29,-3.29,-3.29,-3.29,-3.29,-3.29,0.0,0.0,0.0,0.0,0.0,0.0,0.0,0.0,0.0,0.0,0.0,0.0,0.0,0.0,0.0,0.0,0.0,0.0,-4.3404,-4.3406,-4.3249,-4.2901,-4.2901,-4.2901,-4.2901,-4.2122,-4.0926,-3.9387,-3.8607,-3.8209,-3.8209,-3.8209,-3.8338,-3.86,-3.86,-3.8744,-3.9022,-3.9351,-3.9502,-3.9526,-3.9781,-3.9889,-3.9889,0.0,0.0,0.0,0.0,0.0,0.0,0.0,0.0,0.0,0.0,0.0,0.0,0.0,-3.3114,-3.2731,-3.2402,-3.2003,0.0,0.0,0.0,0.0,0.0,0.0,0.0,0.0,0.0,0.0,0.0,0.0,0.0,-2.9596,-3.0091,-3.0489,-3.0506,-3.0609,-3.0733,-3.0892,-3.0972,-3.1052,-3.119,-3.119,-3.119,-3.119,-3.121,-3.1506,-3.2266,-3.23,-3.2653,-3.3364,-3.3393,-3.3393,-3.3393,-3.3393,-3.3393,-3.3393,-3.3393,-3.3393,-3.3378,-3.3196,-3.3101,-3.3101,-3.3026,-3.2963,-3.29,-3.2963,-3.2963,-3.29,-3.29,-3.29,-3.29,-3.29,-3.29,-3.29,0.0,0.0,0.0,0.0,0.0,0.0,0.0,0.0,0.0,0.0,0.0,0.0,0.0,0.0,0.0,0.0,0.0,0.0,-4.3406,-4.3178,-4.2995,-4.2901,-4.2901,-4.2901,-4.2901,-4.2122,-4.0926,-3.9387,-3.9152,-3.8752,-3.8209,-3.8209,-3.8241,-3.8322,-3.8525,-3.8628,-3.8748,-3.9027,-3.9149,-3.9176,-3.9495,-3.9483,-3.9294,0.0,0.0,0.0,0.0,0.0,0.0,0.0,0.0,0.0,0.0,0.0,0.0,0.0,-3.3334,-3.3147,-3.2765,0.0,0.0,0.0,0.0,0.0,0.0,0.0,0.0,0.0,0.0,0.0,0.0,0.0,0.0,-2.9429,-2.9659,-2.991,-3.0423,-3.0531,-3.0609,-3.0733,-3.0773,-3.0855,-3.1035,-3.1055,-3.1112,-3.119,-3.1428,-3.1638,-3.186,-3.2368,-3.2765,-3.2972,-3.3256,-3.3393,-3.3393,-3.3393,-3.3393,-3.3393,-3.3352,-3.3322,-3.3322,-3.3277,-3.3168,-3.3026,-3.3011,-3.2963,-3.29,-3.2916,-3.2916,-3.29,-3.29,-3.29,-3.29,-3.29,-3.29,-3.29,0.0,0.0,0.0,0.0,0.0,0.0,0.0,0.0,0.0,0.0,0.0,0.0,0.0,0.0,0.0,0.0,0.0,0.0,0.0,-4.3014,-4.2901,-4.2901,-4.2901,-4.2901,-4.2901,-4.2411,-4.1415,-3.984,-3.9532,-3.8989,-3.8209,-3.8209,-3.8209,-3.8209,-3.837,-3.8449,-3.8465,-3.873,-3.8828,-3.8872,-3.9176,-3.9176,-3.9022,0.0,0.0,0.0,0.0,0.0,0.0,0.0,0.0,0.0,0.0,0.0,0.0,-3.3393,-3.3286,-3.3068,-3.265,0.0,0.0,0.0,0.0,0.0,0.0,0.0,0.0,0.0,0.0,0.0,0.0,0.0,0.0,-2.8538,-2.9092,-2.9546,-2.9992,-3.0307,-3.0568,-3.0753,-3.0733,-3.0794,-3.1055,-3.1035,-3.1072,-3.119,-3.1389,-3.1562,-3.1677,-3.2127,-3.2435,-3.2601,-3.2957,-3.3162,-3.3162,-3.3334,-3.3393,-3.3393,-3.3367,-3.3322,-3.331,-3.3229,-3.315,-3.3042,-3.3011,-3.2981,-3.2932,-3.2932,-3.2916,-3.29,-3.29,-3.29,-3.29,-3.29,-3.29,-3.29,0.0,0.0,0.0,0.0,0.0,0.0,0.0,0.0,0.0,0.0,0.0,0.0,0.0,0.0,0.0,0.0,0.0,0.0,0.0,0.0,-4.2901,-4.2901,-4.2901,-4.2901,-4.2901,-4.2901,-4.2103,-4.0492,-3.9822,-3.9043,-3.8209,-3.8209,-3.8209,-3.8209,-3.8209,-3.8209,-3.8225,-3.8446,-3.8554,-3.8585,-3.8857,-3.8938,-3.8924,-3.8952,0.0,0.0,0.0,0.0,0.0,0.0,0.0,0.0,0.0,0.0,0.0,-3.3393,-3.3147,-3.2747,0.0,0.0,0.0,0.0,0.0,0.0,0.0,0.0,0.0,0.0,0.0,0.0,0.0,-2.6843,-2.7291,-2.73,-2.8423,-2.9314,-2.938,-3.0026,-3.0589,-3.0831,-3.077,-3.0794,-3.1131,-3.1072,-3.1035,-3.1171,-3.119,-3.1329,-3.1638,-3.1677,-3.1878,-3.2214,-3.2568,-3.2763,-3.2795,-3.3162,-3.3364,-3.3393,-3.3378,-3.3367,-3.331,-3.3165,-3.3101,-3.3086,-3.3026,-3.2979,-3.2995,-3.2979,-3.2948,-3.29,-3.29,-3.29,-3.29,-3.29,-3.29,-3.29,0.0,0.0,0.0,0.0,0.0,0.0,0.0,0.0,0.0,0.0,0.0,0.0,0.0,0.0,0.0,0.0,0.0,0.0,0.0,0.0,-4.2901,-4.2901,-4.2901,-4.2901,-4.2901,-4.2901,-4.2103,-4.0492,-4.0329,-3.9568,-3.8209,-3.8209,-3.8209,-3.8209,-3.8209,-3.8209,-3.8209,-3.8257,-3.829,-3.8305,-3.8585,-3.8554,-3.8401,-3.8615,-3.8554,0.0,0.0,0.0,0.0,0.0,0.0,0.0,0.0,-3.3393,-3.3393,-3.3393,-3.3304,-3.3168,0.0,0.0,0.0,0.0,0.0,0.0,0.0,0.0,0.0,0.0,0.0,0.0,-2.6239,-2.6354,-2.6636,-2.7218,-2.8044,-2.8787,-2.9314,-3.0026,-3.0526,-3.0589,-3.0568,-3.0609,-3.0794,-3.0892,-3.0952,-3.1052,-3.1151,-3.123,-3.131,-3.1562,-3.1732,-3.1823,-3.2214,-3.2535,-3.2795,-3.2892,-3.3083,-3.3393,-3.3352,-3.3307,-3.331,-3.3165,-3.3055,-3.3011,-3.2948,-3.2948,-3.3013,-3.2948,-3.2916,-3.29,-3.29,-3.29,-3.29,-3.29,-3.29,-3.29,0.0,0.0,0.0,0.0,0.0,0.0,0.0,0.0,0.0,0.0,0.0,0.0,0.0,0.0,0.0,0.0,0.0,0.0,0.0,0.0,0.0,-4.2901,-4.2901,-4.2901,-4.2901,-4.252,-4.1741,-4.0492,-4.0148,0.0,0.0,0.0,0.0,-3.8209,-3.8209,-3.8209,-3.8209,-3.8209,-3.8157,-3.8122,-3.832,-3.8272,-3.8072,-3.8252,-3.8219,-3.8051,-3.7672,0.0,0.0,0.0,0.0,0.0,0.0,0.0,-3.3352,-3.3352,-3.3274,-3.3168,0.0,0.0,0.0,0.0,0.0,0.0,0.0,0.0,0.0,0.0,0.0,0.0,-2.6203,-2.6202,-2.6336,-2.67,-2.7696,-2.8525,-2.887,-2.9847,-3.051,-3.0589,-3.0547,-3.0589,-3.079,-3.0871,-3.0932,-3.0995,-3.1131,-3.119,-3.119,-3.1368,-3.1449,-3.1449,-3.1805,-3.2092,-3.2265,-3.2468,-3.2749,-3.3114,-3.3086,-3.3135,-3.331,-3.3165,-3.307,-3.3057,-3.3008,-3.2979,-3.2948,-3.2948,-3.2932,-3.29,-3.29,-3.29,-3.29,-3.29,-3.29,-3.29,0.0,0.0,0.0,0.0,0.0,0.0,0.0,0.0,0.0,0.0,0.0,0.0,0.0,0.0,0.0,0.0,0.0,0.0,0.0,0.0,0.0,-4.2901,-4.2901,-4.2882,-4.2881,-4.2084,-4.1252,-4.0329,0.0,0.0,0.0,0.0,0.0,-3.8209,0.0,-3.8209,-3.8209,-3.8192,-3.8105,-3.8001,-3.7962,-3.7839,-3.7683,-3.7642,-3.7587,-3.7479,-3.683,-3.6663,-3.6512,-3.5049,0.0,0.0,0.0,0.0,-3.3325,-3.3325,-3.3229,-3.3039,0.0,0.0,0.0,0.0,0.0,0.0,0.0,0.0,0.0,0.0,0.0,-2.6202,-2.6202,-2.6202,-2.6202,-2.6202,-2.7429,-2.8392,-2.8392,-2.9615,-3.0547,-3.0651,-3.0568,-3.0589,-3.0851,-3.0892,-3.0932,-3.0995,-3.1131,-3.119,-3.119,-3.119,-3.119,-3.119,-3.1468,-3.1658,-3.1805,-3.2127,-3.2503,-3.2908,-3.2892,-3.3021,-3.331,-3.3165,-3.3101,-3.3101,-3.3086,-3.3026,-3.2916,-3.2963,-3.2948,-3.29,-3.29,-3.29,-3.29,-3.29,-3.29,-3.29,0.0,0.0,0.0,0.0,0.0,0.0,0.0,0.0,0.0,0.0,0.0,0.0,0.0,0.0,0.0,0.0,0.0,0.0,0.0,0.0,0.0,-4.2901,-4.2901,-4.2862,-4.2822,-4.2027,-4.0989,-3.9702,0.0,0.0,0.0,0.0,0.0,-3.8209,0.0,0.0,-3.8192,-3.8088,-3.8019,-3.7947,-3.7212,-3.6873,-3.6802,-3.6217,-3.5946,-3.5827,-3.5836,-3.5784,-3.5557,-3.4659,-3.4418,0.0,0.0,0.0,-3.3396,-3.3396,-3.3337,0.0,0.0,0.0,0.0,0.0,0.0,0.0,0.0,0.0,0.0,0.0,-2.6202,-2.6202,-2.6202,-2.6202,-2.6202,-2.6202,-2.7429,-2.8392,-2.8392,-2.9615,-3.0506,-3.051,-3.051,-3.0568,-3.0712,-3.0831,-3.0932,-3.0995,-3.1131,-3.119,-3.119,-3.119,-3.119,-3.119,-3.1232,-3.1562,-3.2196,-3.2283,-3.2635,-3.3334,-3.3259,-3.3262,-3.331,-3.3165,-3.3101,-3.3101,-3.3042,-3.2995,-3.2979,-3.2932,-3.2916,-3.29,-3.29,-3.29,-3.29,-3.29,-3.29,-3.29,0.0,0.0,0.0,0.0,0.0,0.0,0.0,0.0,0.0,0.0,0.0,0.0,0.0,0.0,0.0,0.0,0.0,0.0,0.0,0.0,0.0,0.0,-4.2842,-4.2785,-4.2688,-4.1463,-4.0408,0.0,0.0,0.0,0.0,-3.7002,-3.7377,0.0,0.0,0.0,0.0,0.0,-3.7898,-3.7755,-3.7018,0.0,0.0,0.0,0.0,0.0,0.0,0.0,0.0,0.0,-3.3671,-3.3648,-3.3306,0.0,0.0,0.0,0.0,0.0,0.0,0.0,0.0,0.0,0.0,0.0,0.0,0.0,0.0,0.0,-2.6202,-2.6202,-2.6202,-2.6202,-2.6202,-2.6202,-2.7429,-2.8392,-2.8392,-2.9615,-3.0506,-3.0506,-3.0568,-3.063,-3.0692,-3.0871,-3.0955,-3.0995,-3.1131,-3.119,-3.119,-3.119,-3.119,-3.119,-3.119,-3.1368,-3.1693,-3.186,-3.2334,-3.3068,-3.3256,-3.3337,-3.331,-3.3274,-3.318,-3.3042,-3.3057,-3.3011,-3.2948,-3.2948,-3.2932,-3.29,-3.29,-3.29,-3.29,-3.29,-3.29,-3.2953,0.0,0.0,0.0,0.0,0.0,0.0,0.0,0.0,0.0,0.0,0.0,0.0,0.0,0.0,0.0,0.0,0.0,0.0,0.0,0.0,0.0,0.0,0.0,-4.2745,-4.2609,-4.0875,-3.9781,0.0,0.0,0.0,-3.6113,-3.6218,-3.6467,0.0,-3.732,0.0,0.0,0.0,0.0,0.0,0.0,0.0,0.0,0.0,0.0,0.0,0.0,0.0,0.0,0.0,0.0,0.0,0.0,0.0,0.0,0.0,0.0,0.0,0.0,0.0,0.0,0.0,0.0,0.0,0.0,0.0,0.0,0.0,-2.6485,-2.6419,-2.6219,-2.6202,-2.6202,-2.6202,-2.7429,-2.8392,-2.8392,-2.9615,-3.0506,-3.0506,-3.063,-3.0712,-3.0733,-3.0895,-3.1015,-3.1052,-3.1151,-3.119,-3.119,-3.119,-3.119,-3.119,-3.119,-3.1249,-3.1329,-3.1675,-3.2179,-3.2795,-3.3099,-3.3274,-3.3292,-3.3352,-3.3229,-3.2995,-3.3055,-3.3024,-3.2932,-3.2979,-3.2963,-3.2932,-3.2932,-3.2916,-3.29,-3.29,-3.29,-3.3025,0.0,0.0,0.0,0.0,0.0,0.0,0.0,0.0,0.0,0.0,0.0,0.0,0.0,0.0,0.0,0.0,0.0,0.0,0.0,0.0,0.0,0.0,0.0,0.0,-4.2609,-4.0542,0.0,0.0,0.0,0.0,-3.5001,-3.5453,-3.5661,-3.5727,-3.6302,-3.6827,-3.7209,0.0,0.0,0.0,0.0,0.0,0.0,0.0,0.0,0.0,0.0,0.0,0.0,0.0,0.0,0.0,0.0,0.0,0.0,0.0,0.0,0.0,0.0,0.0,0.0,0.0,0.0,0.0,0.0,0.0,0.0,0.0,-2.7232,-2.7033,-2.6336,-2.6202,-2.6202,-2.6202,-2.7429,-2.8392,-2.8392,-2.9615,-3.0506,-3.0506,-3.063,-3.0733,-3.0892,-3.0955,-3.1055,-3.1171,-3.119,-3.119,-3.119,-3.119,-3.119,-3.119,-3.119,-3.1351,-3.1658,-3.2074,-3.2435,-3.2795,-3.2811,-3.3006,-3.331,-3.3292,-3.3201,-3.2995,-3.3055,-3.3073,-3.3013,-3.2995,-3.2995,-3.2979,-3.2979,-3.2948,-3.29,-3.29,-3.29,-3.3025,0.0,0.0,0.0,0.0,0.0,0.0,0.0,0.0,0.0,0.0,0.0,0.0,0.0,0.0,0.0,0.0,0.0,0.0,0.0,0.0,0.0,0.0,0.0,0.0,0.0,0.0,0.0,0.0,0.0,-3.5362,-3.4899,-3.5071,-3.5293,-3.5616,-3.6088,-3.6385,-3.6545,-3.6361,0.0,0.0,0.0,0.0,0.0,0.0,0.0,0.0,0.0,0.0,0.0,0.0,0.0,0.0,0.0,0.0,0.0,0.0,0.0,0.0,0.0,0.0,0.0,0.0,0.0,0.0,0.0,0.0,0.0,-2.8508,-2.7766,-2.7216,-2.695,-2.6518,-2.6352,-2.6834,-2.7746,-2.8558,-2.8986,-2.9877,-3.0506,-3.0506,-3.063,-3.0753,-3.0892,-3.0932,-3.1012,-3.119,-3.1131,-3.1112,-3.119,-3.119,-3.119,-3.119,-3.119,-3.1351,-3.1712,-3.1841,-3.2214,-3.2795,-3.2795,-3.2975,-3.331,-3.3337,-3.3259,-3.3073,-3.3183,-3.3122,-3.2948,-3.3026,-3.3008,-3.2932,-3.2932,-3.2916,-3.29,-3.29,-3.3239,-3.3776,0.0,0.0,0.0,0.0,0.0,0.0,0.0,0.0,0.0,0.0,0.0,0.0,0.0,0.0,0.0,0.0,0.0,0.0,0.0,0.0,0.0,0.0,0.0,0.0,0.0,0.0,0.0,0.0,0.0,0.0,0.0,-3.4899,-3.5071,-3.5385,-3.5644,-3.5847,0.0,0.0,0.0,-3.4912,0.0,0.0,-3.3442,0.0,0.0,0.0,0.0,0.0,0.0,0.0,0.0,0.0,0.0,0.0,0.0,0.0,0.0,0.0,0.0,0.0,0.0,0.0,0.0,0.0,0.0,0.0,-3.0311,-2.9453,-2.8594,-2.7945,-2.7696,-2.7263,-2.7015,-2.7249,-2.8111,-2.8887,-2.933,-3.0026,-3.0506,-3.0506,-3.063,-3.0733,-3.0814,-3.0892,-3.0992,-3.1131,-3.1075,-3.1112,-3.119,-3.119,-3.1171,-3.1131,-3.1131,-3.1232,-3.1432,-3.1451,-3.1751,-3.2333,-3.2518,-3.2766,-3.3088,-3.3274,-3.3274,-3.3101,-3.3247,-3.3168,-3.2961,-3.3055,-3.3024,-3.2932,-3.2932,-3.2916,-3.2936,-3.3203,-3.3633,-3.424,0.0,0.0,0.0,0.0,0.0,0.0,0.0,0.0,0.0,0.0,0.0,0.0,0.0,0.0,0.0,0.0,0.0,0.0,0.0,0.0,0.0,0.0,0.0,0.0,0.0,0.0,0.0,0.0,0.0,0.0,0.0,0.0,-3.4899,0.0,-3.4899,-3.5148,-3.5549,0.0,-3.4714,-3.4366,0.0,-3.335,-3.3353,0.0,0.0,0.0,-3.2884,-3.2884,0.0,-3.29,0.0,0.0,0.0,0.0,0.0,0.0,0.0,0.0,0.0,0.0,0.0,0.0,0.0,0.0,0.0,0.0,-3.1396,-3.0308,-2.9716,-2.9221,-2.8578,-2.8426,-2.8194,-2.7481,-2.8506,-2.9397,-2.943,-3.0042,-3.0506,-3.0506,-3.0609,-3.0692,-3.0712,-3.0875,-3.0995,-3.0995,-3.1131,-3.119,-3.119,-3.119,-3.1131,-3.0995,-3.0995,-3.0955,-3.0912,-3.0972,-3.114,-3.1416,-3.1932,-3.2369,-3.2702,-3.3088,-3.3214,-3.3086,-3.3214,-3.3214,-3.3101,-3.3101,-3.3057,-3.3013,-3.3013,-3.2965,-3.3025,-3.3812,-3.4133,-3.4383,0.0,0.0,0.0,0.0,0.0,0.0,0.0,0.0,0.0,0.0,0.0,0.0,0.0,0.0,0.0,0.0,0.0,0.0,0.0,0.0,0.0,0.0,0.0,0.0,0.0,0.0,0.0,0.0,0.0,0.0,0.0,0.0,0.0,0.0,-3.4899,-3.4954,-3.5095,-3.497,0.0,0.0,-3.3275,-3.2683,0.0,0.0,0.0,0.0,0.0,-3.2472,-3.2505,0.0,-3.29,-3.29,0.0,0.0,0.0,0.0,0.0,0.0,-3.2916,0.0,0.0,0.0,0.0,0.0,0.0,0.0,0.0,-3.1724,-3.0681,-2.9787,-2.9585,-2.9318,-2.9069,-2.8853,-2.9152,-2.9579,-3.0125,-3.0373,-3.0506,-3.0506,-3.0531,-3.063,-3.0831,-3.0794,-3.0875,0.0,-3.1092,-3.1072,-3.1072,-3.1012,-3.0992,-3.0995,-3.0995,-3.0995,-3.0975,-3.0995,-3.1179,-3.1547,-3.195,-3.2196,-3.2282,-3.2685,-3.2816,-3.2753,-3.277,-3.2866,-3.3026,-3.3026,-3.2979,-3.2932,-3.2932,-3.3257,-3.3794,-3.4026,-3.4811,-3.5828,0.0,0.0,0.0,0.0,0.0,0.0,0.0,0.0,0.0,0.0,0.0,0.0,0.0,0.0,0.0,0.0,0.0,0.0,0.0,0.0,0.0,0.0,0.0,0.0,0.0,0.0,0.0,0.0,0.0,0.0,0.0,0.0,0.0,0.0,0.0,0.0,0.0,0.0,0.0,0.0,-3.2615,0.0,0.0,-3.1357,-3.1547,0.0,0.0,0.0,-3.2335,-3.2573,-3.2753,0.0,0.0,0.0,0.0,0.0,0.0,0.0,0.0,0.0,0.0,0.0,0.0,0.0,-3.29,-3.2589,-3.2301,0.0,-3.1459,-3.0672,-3.0482,-3.0286,-3.0049,-2.9901,-2.986,-3.0009,-3.0439,-3.0506,-3.0506,-3.0506,-3.0547,-3.0651,-3.081,-3.0814,-3.1009,-3.1507,-3.1486,-3.1446,-3.1405,-3.1422,-3.1251,-3.0892,-3.0915,-3.0935,-3.0875,-3.0915,-3.1038,-3.122,-3.1658,-3.1896,-3.2004,-3.2384,-3.2654,-3.2753,-3.2753,-3.2852,-3.2983,-3.3323,-3.3235,-3.29,-3.29,-3.3384,-3.4151,-3.4454,-3.5346,-3.6453,0.0,0.0,0.0,0.0,0.0,0.0,0.0,0.0,0.0,0.0,0.0,0.0,0.0,0.0,0.0,0.0,0.0,0.0,0.0,0.0,0.0,0.0,-3.7666,0.0,0.0,0.0,0.0,0.0,0.0,0.0,0.0,0.0,0.0,0.0,0.0,0.0,0.0,0.0,0.0,-3.2514,-3.1846,-3.1366,0.0,0.0,-3.1259,-3.1565,-3.1621,-3.186,-3.2162,-3.2231,-3.2505,0.0,0.0,0.0,0.0,0.0,-3.29,0.0,0.0,0.0,0.0,0.0,0.0,0.0,-3.29,-3.2605,-3.2369,-3.2369,-3.2056,-3.1658,-3.13,-3.1201,-3.1044,-3.0679,-3.0634,-3.0613,-3.051,-3.051,-3.0526,-3.0526,-3.0651,-3.0766,-3.0849,-3.1012,-3.1412,-3.2085,-3.2177,-3.2194,-3.211,-3.2156,-3.1779,-3.0862,-3.0948,-3.0935,-3.0712,-3.0851,-3.0851,-3.0733,-3.1235,-3.1562,-3.1697,-3.2092,-3.2506,-3.291,-3.291,-3.2948,-3.3074,-3.3786,-3.3658,-3.3043,-3.3114,-3.3617,-3.4369,-3.501,-3.5723,-3.6488,0.0,0.0,0.0,0.0,0.0,0.0,0.0,0.0,0.0,0.0,0.0,0.0,0.0,0.0,0.0,0.0,0.0,0.0,0.0,0.0,-3.788,-3.7166,-3.6596,0.0,0.0,0.0,0.0,0.0,0.0,0.0,0.0,0.0,0.0,0.0,0.0,0.0,0.0,0.0,0.0,-3.1797,-3.1664,0.0,-3.0613,-3.0613,-3.0675,-3.0781,-3.1103,-3.1261,-3.1376,-3.1695,-3.2091,-3.242,0.0,0.0,0.0,-3.29,0.0,0.0,0.0,0.0,0.0,0.0,0.0,0.0,-3.29,-3.2852,-3.2786,-3.2786,-3.2471,-3.2144,-3.2074,-3.1787,-3.1547,-3.1471,-3.1471,-3.1242,-3.0593,-3.0589,-3.0651,-3.0651,-3.0773,-3.1109,-3.1761,-3.187,-3.2189,-3.2908,-3.2928,-3.2859,-3.2729,-3.2739,-3.2405,-3.1608,-3.1734,-3.1474,-3.0871,-3.0892,-3.0892,-3.0871,-3.1176,-3.1179,-3.0922,-3.1336,-3.1814,-3.2359,-3.2359,-3.2876,-3.3715,-3.3871,-3.3897,-3.3919,-3.4526,-3.5013,-3.5395,-3.5554,-3.5871,-3.6273,0.0,0.0,0.0,0.0,0.0,0.0,0.0,0.0,0.0,0.0,0.0,0.0,0.0,0.0,0.0,0.0,0.0,0.0,0.0,0.0,0.0,-3.589,-3.559,0.0,0.0,0.0,0.0,0.0,0.0,0.0,0.0,0.0,0.0,0.0,0.0,0.0,0.0,0.0,-3.1951,-3.1565,-3.1201,0.0,-3.0506,-3.0506,-3.0506,-3.0531,-3.072,-3.0925,-3.1162,-3.1565,-3.1823,0.0,-3.2003,-3.2144,-3.23,0.0,-3.23,-3.2335,0.0,0.0,0.0,-3.2852,0.0,0.0,0.0,-3.29,-3.29,-3.29,-3.2737,-3.2538,-3.2335,-3.2127,-3.1914,-3.1732,-3.1695,-3.1547,-3.1162,-3.0965,-3.0838,-3.063,-3.1045,-3.1516,-3.1909,-3.2303,-3.284,-3.3545,-3.3834,-3.3816,-3.3366,-3.3395,-3.3084,-3.227,-3.2012,-3.1892,-3.1892,-3.1525,-3.1525,-3.1892,-3.2022,-3.2068,-3.1993,-3.2198,-3.2567,-3.3045,-3.3045,-3.3371,-3.3928,-3.4344,-3.453,-3.4616,-3.4563,-3.4904,-3.5409,-3.5409,-3.5737,-3.6215,0.0,0.0,0.0,0.0,0.0,0.0,0.0,0.0,0.0,0.0,0.0,0.0,0.0,0.0,0.0,0.0,0.0,0.0,0.0,0.0,0.0,0.0,0.0,-3.4899,0.0,0.0,0.0,0.0,0.0,0.0,0.0,0.0,0.0,0.0,0.0,0.0,0.0,0.0,0.0,-3.1333,0.0,-3.0506,-3.0506,-3.0506,-3.0506,-3.0506,-3.0506,-3.0699,-3.1024,-3.1357,-3.1509,-3.1584,-3.1584,-3.164,0.0,0.0,0.0,0.0,0.0,0.0,0.0,0.0,0.0,-3.2802,0.0,0.0,0.0,-3.29,0.0,0.0,0.0,0.0,0.0,0.0,0.0,0.0,0.0,-3.189,0.0,-3.0949,-3.1625,-3.2185,-3.2267,-3.2961,-3.3645,-3.4166,-3.4662,-3.4658,-3.4061,-3.4153,-3.3804,-3.295,-3.2458,-3.2435,-3.2901,-3.2324,-3.2302,-3.2901,-3.2862,-3.2983,-3.3191,-3.3191,-3.3427,-3.3874,-3.3874,-3.396,-3.4131,-3.4784,-3.5057,-3.501,-3.4541,-3.4699,-3.5204,-3.5204,-3.5565,-3.6126,0.0,-3.9299,0.0,0.0,0.0,0.0,0.0,0.0,0.0,0.0,0.0,0.0,0.0,0.0,0.0,0.0,0.0,0.0,-3.5065,0.0,0.0,0.0,0.0,0.0,-3.4899,0.0,0.0,0.0,0.0,0.0,0.0,0.0,0.0,0.0,-3.48,0.0,0.0,0.0,-3.1818,0.0,-3.0522,-3.0506,0.0,-3.0506,-3.0506,-3.0506,-3.0506,-3.0531,-3.0572,0.0,-3.0882,-3.1181,0.0,-3.1414,-3.1695,-3.1695,0.0,0.0,0.0,0.0,0.0,0.0,-3.2369,0.0,-3.2818,0.0,-3.29,-3.29,0.0,0.0,0.0,0.0,0.0,0.0,0.0,0.0,-3.3354,-3.386,-3.3775,-3.2346,-3.2965,-3.3613,-3.3902,-3.4491,-3.4895,-3.4971,-3.5031,-3.4984,-3.4807,-3.4901,-3.4592,-3.3713,-3.3738,-3.3484,-3.2901,-3.2818,-3.2818,-3.2901,-3.2779,-3.2724,-3.2768,-3.2768,-3.3156,-3.3816,-3.3816,-3.4183,-3.4798,-3.4898,-3.4931,-3.5008,-3.5668,-3.5788,-3.5542,-3.5542,-3.5593,-3.5616,0.0,0.0,0.0,0.0,0.0,0.0,0.0,0.0,0.0,0.0,0.0,0.0,0.0,0.0,0.0,0.0,0.0,-3.523,0.0,0.0,0.0,0.0,0.0,0.0,0.0,0.0,0.0,0.0,-3.4899,0.0,0.0,0.0,0.0,0.0,-3.4005,0.0,-3.263,0.0,-3.0821,0.0,0.0,0.0,0.0,-3.0506,-3.0506,-3.0506,-3.0506,-3.0506,-3.0506,0.0,-3.0613,0.0,0.0,0.0,0.0,0.0,0.0,0.0,0.0,0.0,0.0,0.0,0.0,0.0,-3.2454,0.0,-3.2622,0.0,0.0,0.0,0.0,0.0,0.0,0.0,-3.3883,0.0,0.0,0.0,-3.5022,0.0,0.0,0.0,-3.4992,-3.5239,-3.5281,-3.4994,-3.4994,-3.497,-3.4899,-3.4947,-3.4821,-3.4435,-3.4084,-3.3941,-3.4057,-3.3642,-3.3642,-3.4057,-3.3995,-3.3972,-3.3972,-3.3972,-3.4137,-3.4435,-3.4435,-3.4601,-3.4899,-3.4899,-3.4899,-3.4947,-3.5293,-3.5339,-3.5195,-3.5195,-3.5195,-3.5195,0.0,0.0,0.0,0.0,0.0,0.0,0.0,0.0,0.0,0.0,0.0,0.0,-3.643,-3.6007,0.0,0.0,-3.5053,-3.4804,0.0,0.0,-3.4875,0.0,0.0,0.0,0.0,0.0,0.0,0.0,0.0,0.0,0.0,0.0,0.0,0.0,0.0,-3.2443,-3.2158,0.0,-2.9988,-3.007,-2.9371,-2.9506,-3.0135,-3.0405,-3.0506,-3.0506,-3.0506,-3.0506,-3.0506,-3.0506,-3.0506,-3.0506,-3.0506,-3.0506,-3.0506,0.0,0.0,0.0,-3.0861,0.0,0.0,0.0,0.0,0.0,0.0,0.0,0.0,0.0,0.0,0.0,0.0,0.0,0.0,0.0,0.0,-3.4918,0.0,-3.6221,0.0,0.0,0.0,0.0,0.0,-3.5476,-3.5264,-3.4923,-3.4899,-3.4899,-3.4899,-3.4899,-3.4899,-3.4899,-3.4369,-3.4352,-3.4883,-3.4369,-3.4369,-3.4899,-3.4899,-3.4899,-3.4899,-3.4899,-3.4899,-3.4899,-3.4899,-3.4899,-3.4899,-3.4899,-3.4899,-3.4899,-3.4899,-3.4899,-3.4899,-3.4899,-3.4977,-3.5125,-3.6873,-3.8023,0.0,0.0,0.0,0.0,0.0,0.0,0.0,0.0,0.0,0.0,0.0,0.0,0.0,0.0,0.0,-3.457,-3.4691,0.0,-3.4763,0.0,0.0,-3.478,0.0,0.0,0.0,0.0,0.0,0.0,0.0,0.0,0.0,0.0,0.0,-3.182,-3.1114,-3.0458,-2.9776,-2.9143,-2.9097,-2.912,-2.9234,0.0,-3.0506,-3.0506,-3.0506,0.0,0.0,-3.0506,-3.0506,-3.0506,-3.0506,0.0,0.0,0.0,0.0,0.0,0.0,0.0,0.0,-3.1024,0.0,0.0,0.0,0.0,-3.1714,0.0,0.0,0.0,0.0,0.0,0.0,0.0,0.0,0.0,0.0,0.0,0.0,0.0,0.0,0.0,0.0,-3.5195,-3.4923,-3.4899,-3.4899,-3.4899,-3.4899,-3.4899,-3.4899,-3.4899,-3.4883,-3.4866,-3.4899,-3.4883,-3.4883,-3.4899,-3.4899,-3.4899,-3.4899,-3.4899,-3.4899,-3.4899,-3.4899,-3.4899,-3.4899,-3.4899,-3.4899,-3.4899,-3.4899,-3.4899,-3.4899,-3.4899,-3.5195,-3.5504,0.0,0.0,0.0,0.0,0.0,0.0,0.0,-3.5655,0.0,0.0,-3.4408,0.0,0.0,-3.381,-3.4066,0.0,0.0,-3.4521,-3.457,-3.457,0.0,0.0,0.0,-3.4667,0.0,0.0,0.0,0.0,0.0,0.0,0.0,0.0,0.0,0.0,0.0,-3.1068,0.0,0.0,0.0,0.0,0.0,-2.8818,-2.8638,0.0,-2.9572,-2.9617,-2.9941,-3.0049,-3.0092,-3.0405,-3.0506,-3.0506,-3.0506,-3.0506,-3.0506,-3.0506,-3.0506,-3.0506,-3.0506,-3.0506,-3.0531,-3.0675,-3.0699,0.0,0.0,0.0,0.0,0.0,0.0,0.0,0.0,0.0,0.0,0.0,0.0,0.0,0.0,0.0,0.0,0.0,0.0,0.0,0.0,0.0,-3.5241,-3.4923,-3.4899,-3.4899,-3.4899,-3.4899,-3.4899,-3.4899,-3.4899,-3.4899,-3.4899,-3.4899,-3.4899,-3.4899,-3.4899,-3.4899,-3.4899,-3.4899,-3.4899,-3.4899,-3.4899,-3.4899,-3.4899,-3.4899,-3.4899,-3.4899,-3.4899,-3.4899,-3.4899,-3.4899,-3.5001,-3.5102,-3.535,0.0,0.0,0.0,0.0,0.0,0.0,0.0,0.0,0.0,-3.2898,0.0,-3.2256,0.0,-3.305,0.0,-3.3501,-3.385,-3.4077,-3.3901,0.0,-3.4472,-3.4317,-3.4317,0.0,0.0,0.0,0.0,0.0,-3.386,0.0,0.0,0.0,0.0,0.0,-3.0134,-3.0031,0.0,-2.7993,0.0,0.0,-2.8125,0.0,0.0,-2.8701,-2.9143,-2.9438,-2.955,-2.9595,-2.9897,-3.0113,-3.0258,-3.0258,-3.0363,-3.0506,-3.0506,-3.0506,-3.0506,-3.0506,-3.0506,-3.0506,-3.0506,-3.0506,-3.0572,-3.0841,0.0,-3.0945,0.0,0.0,0.0,0.0,0.0,0.0,0.0,0.0,0.0,0.0,-3.7338,0.0,0.0,0.0,0.0,0.0,-3.5453,-3.5218,-3.4923,-3.4899,-3.4899,-3.4899,-3.4899,-3.4899,-3.4899,-3.4899,-3.4899,-3.4899,-3.4899,-3.4899,-3.4899,-3.4899,-3.4899,-3.4899,-3.4899,-3.4899,-3.4899,-3.4899,-3.4899,-3.4899,-3.4899,-3.4899,-3.4899,-3.4899,-3.4899,-3.4899,-3.4899,-3.4899,-3.4899,0.0,0.0,0.0,0.0,-3.4607,0.0,0.0,0.0,-3.1464,0.0,-3.1451,-3.1508,-3.1637,-3.2076,-3.2367,-3.2431,-3.2422,-3.2668,-3.3313,-3.2795,0.0,0.0,-3.3732,-3.3665,-3.4382,0.0,0.0,0.0,0.0,0.0,0.0,0.0,0.0,0.0,-2.9909,0.0,-2.8996,-2.7727,-2.7181,-2.7207,-2.7181,-2.7181,-2.7207,-2.7181,-2.7944,-2.9005,-2.9028,-2.9051,-2.9067,-2.9097,-2.9393,-2.9788,-2.9788,-3.0092,-3.0485,-3.0485,-3.0468,-3.0506,-3.0506,-3.0506,-3.0506,-3.0506,-3.0506,-3.0506,-3.0506,-3.0506,-3.0506,0.0,0.0,0.0,0.0,0.0,0.0,0.0,0.0,0.0,0.0,0.0,0.0,0.0,0.0,0.0,0.0,-3.5195,-3.4906,-3.4899,-3.4899,0.0,0.0,-3.4899,-3.4899,-3.4899,-3.4899,-3.4899,-3.4899,-3.4899,-3.4899,-3.4899,-3.4899,-3.4899,-3.4899,-3.4899,-3.4899,-3.4899,-3.4899,-3.4899,-3.4899,-3.4899,-3.4899,-3.4899,-3.4899,-3.4916,-3.4949,-3.4916,-3.4916,-3.4949,-3.4414,-3.4414,-3.4321,0.0,-3.3393,-3.2725,0.0,0.0,0.0,0.0,-3.0836,-3.0822,-3.0881,-3.1393,-3.1737,-3.1751,-3.216,0.0,0.0,0.0,0.0,-3.2926,-3.2826,-3.2799,-3.2953,-3.2799,-3.273,-3.2722,0.0,0.0,-3.2477,0.0,0.0,0.0,0.0,0.0,-2.8734,-2.7545,-2.7119,-2.7181,-2.7093,-2.7119,-2.7181,0.0,-2.7335,-2.7745,-2.8198,-2.8367,-2.8439,-2.8935,-2.9166,-2.928,-2.928,-2.9595,-2.9984,-2.9984,-3.0236,-3.0506,-3.0506,-3.0506,-3.0506,-3.0506,-3.0506,-3.0506,-3.0506,-3.0506,-3.0506,-3.0506,-3.0572,-3.074,-3.1044,0.0,0.0,0.0,0.0,0.0,0.0,0.0,0.0,-3.69,0.0,0.0,-3.5638,-3.5498,-3.5287,-3.4923,-3.4899,-3.4899,-3.4899,-3.4899,-3.4899,-3.4899,-3.4899,-3.4899,-3.4899,-3.4899,-3.4899,-3.4899,-3.4899,-3.4899,-3.4899,-3.4899,-3.4899,-3.4899,-3.4899,-3.4899,-3.4899,-3.4899,-3.4899,-3.4899,-3.4899,-3.523,-3.5644,-3.5098,-3.5247,-3.5727,-3.4414,0.0,0.0,-3.3935,0.0,0.0,-3.2133,-3.1221,0.0,-3.0598,-3.0598,0.0,-3.0598,-3.0881,-3.1117,-3.1117,-3.1422,0.0,-3.1992,0.0,0.0,-3.237,-3.2185,-3.2158,-3.2398,-3.2185,0.0,-3.1992,0.0,0.0,-3.1595,0.0,0.0,0.0,0.0,-2.8709,0.0,-2.7438,-2.6963,-2.7015,-2.6937,-2.6963,0.0,-2.6937,-2.6963,-2.7078,-2.7473,-2.766,-2.777,-2.8125,-2.8439,-2.8677,-2.8677,-2.9051,-2.9483,-2.9483,-2.9832,-3.0177,-3.0177,-3.0342,-3.0506,-3.0506,-3.0506,-3.0506,-3.0506,-3.0506,-3.0506,-3.0506,-3.0506,-3.0572,-3.0801,-3.1586,0.0,0.0,0.0,0.0,0.0,0.0,0.0,0.0,-3.6361,-3.6041,-3.5638,-3.5407,-3.5171,-3.4923,-3.4899,-3.4899,0.0,-3.4899,-3.4899,-3.4899,-3.4899,-3.4899,-3.4899,-3.4899,-3.4899,-3.4899,-3.4899,-3.4899,-3.4899,-3.4899,-3.4899,-3.4899,-3.4899,-3.4899,-3.4899,-3.4899,-3.5081,-3.5413,-3.5744,-3.6125,-3.6439,-3.6009,-3.6125,-3.6489,0.0,0.0,0.0,0.0,0.0,0.0,0.0,-3.1163,0.0,-3.0612,0.0,-3.0598,-3.0598,-3.0598,-3.0598,-3.0598,-3.0598,-3.0836,-3.135,-3.0881,-3.1058,-3.2104,-3.1652,-3.1623,-3.216,-3.1652,-3.1364,0.0,0.0,0.0,0.0,0.0,0.0,0.0,0.0,0.0,0.0,-2.7285,-2.6806,-2.6806,-2.6806,-2.6806,-2.6806,-2.6806,-2.6806,-2.6806,-2.6925,-2.7067,-2.7181,-2.7181,-2.756,-2.8002,-2.8002,-2.8463,-2.9005,-2.9005,-2.9325,-2.9705,-2.9705,-3.0006,-3.0321,-3.0321,-3.0363,-3.0405,-3.0405,-3.0447,-3.0506,-3.0506,-3.0506,-3.0506,-3.0506,-3.1184,0.0,0.0,0.0,0.0,0.0,0.0,0.0,0.0,0.0,0.0,-3.5638,-3.5241,-3.497,-3.4899,-3.4899,-3.4899,0.0,0.0,-3.4899,-3.4899,-3.4899,-3.4899,-3.4899,-3.4899,-3.4899,-3.4899,-3.4899,-3.4899,-3.4899,-3.4899,-3.4899,-3.4899,-3.4899,-3.4949,-3.5032,-3.5032,-3.5479,-3.6224,-3.697,-3.7251,-3.7268,-3.735,-3.74,-3.7367,0.0,0.0,0.0,0.0,0.0,-3.2663,-3.3086,-3.2121,-3.1163,-3.067,-3.0598,-3.0598,-3.0598,-3.0598,-3.0598,-3.0598,-3.0598,0.0,0.0,0.0,0.0,-3.0925,-3.0807,-3.0807,-3.0911,-3.0807,-3.0747,0.0,0.0,0.0,0.0,0.0,0.0,0.0,0.0,0.0,-2.7125,-2.6907,0.0,-2.6806,-2.6806,-2.6806,-2.6806,-2.6806,-2.6806,-2.6806,-2.6832,-2.6925,-2.7041,-2.7155,-2.7335,-2.7539,-2.7539,-2.7944,-2.8432,-2.8432,-2.8803,-2.9212,-2.9212,-2.928,-2.9348,-2.9348,-2.9639,-2.9924,-2.9924,-3.022,-3.0506,-3.0506,-3.0506,-3.0506,-3.0506,-3.1603,0.0,0.0,0.0,0.0,0.0,0.0,0.0,0.0,0.0,-3.5683,-3.5611,-3.5543,-3.5333,-3.4923,-3.4899,-3.4899,-3.4899,-3.4899,-3.4899,-3.4899,-3.4899,-3.4899,-3.4899,-3.4899,-3.4899,-3.4899,-3.4899,-3.4899,-3.4899,-3.4899,-3.4899,-3.4899,-3.4899,-3.5247,-3.581,-3.581,-3.6241,-3.6986,-3.7731,-3.803,-3.8096,-3.8676,-3.8917,-3.8834,0.0,0.0,0.0,0.0,0.0,0.0,0.0,-3.2966,-3.2179,-3.1192,-3.0801,-3.0598,-3.0598,-3.0598,-3.0598,-3.0598,-3.0598,-3.0598,-3.0598,-3.0598,-3.0598,-3.0598,-3.0598,-3.0598,-3.0598,-3.0598,-3.0598,-3.0598,0.0,0.0,0.0,0.0,0.0,0.0,0.0,-2.7665,0.0,0.0,-2.6806,-2.6806,-2.6806,-2.6806,-2.6806,-2.6806,-2.6806,-2.6806,-2.6806,-2.6846,-2.6925,-2.6963,-2.7093,-2.7196,-2.7258,-2.7549,-2.7845,-2.7919,-2.828,-2.8685,-2.8685,-2.8889,-2.9097,-2.9097,-2.9257,-2.9438,-2.9438,-2.9617,-2.9837,-3.0092,-3.0135,-3.0199,-3.0447,-3.1383,-3.2365,-3.3094,-3.3839,0.0,0.0,0.0,-3.5316,0.0,0.0,0.0,0.0,0.0,0.0,0.0,0.0,-3.4899,-3.4899,-3.4899,-3.4899,-3.4899,-3.4899,-3.4899,-3.4899,-3.4899,-3.4899,-3.4899,-3.4899,-3.4899,-3.4899,-3.4899,-3.4899,-3.4916,-3.5297,-3.5678,-3.6059,-3.6837,-3.7367,-3.7748,-3.8477,-3.8758,-3.8808,-3.9183,-3.9299,-3.9249,0.0,-3.1723,0.0,0.0,-3.2812,-3.2814,-3.3168,-3.3083,-3.2651,-3.1623,-3.109,-3.0757,-3.0612,-3.0598,-3.0598,-3.0598,-3.0598,-3.0598,-3.0598,-3.0598,-3.0598,-3.0598,-3.0598,-3.0598,-3.0598,-3.0598,-3.0598,0.0,0.0,0.0,0.0,0.0,0.0,0.0,0.0,0.0,0.0,-2.6806,-2.6806,-2.6806,-2.6806,-2.6806,-2.6806,-2.6806,-2.6806,-2.6806,-2.6806,-2.6806,-2.6806,-2.6806,-2.6899,-2.7029,-2.7155,-2.7284,-2.7427,-2.7549,-2.787,-2.8158,-2.8158,-2.8463,-2.8772,-2.8772,-2.8865,-2.8935,-2.8935,-2.9028,-2.9189,-2.9572,-2.9728,-2.9941,-3.0405,-3.1101,-3.183,-3.2586,-3.3332,-3.4054,0.0,0.0,0.0,0.0,0.0,0.0,-3.4899,0.0,0.0,0.0,0.0,-3.4899,-3.4899,-3.4899,-3.4899,-3.4899,-3.4899,-3.4899,-3.4899,-3.4899,-3.4899,-3.4899,-3.4899,-3.4899,-3.4899,-3.5048,-3.5131,-3.5164,-3.5909,-3.6324,-3.6572,-3.7897,-3.8444,-3.8493,-3.9083,-3.9299,-3.9299,-3.9299,-3.9299,-3.9299,0.0,0.0,0.0,0.0,0.0,-3.1352,-3.2114,-3.1722,-3.1357,-3.1483,-3.1437,-3.1221,-3.067,-3.0598,-3.0598,-3.0598,-3.0598,-3.0598,-3.0598,-3.0598,-3.0598,-3.0598,-3.0598,-3.0598,-3.0598,-3.0598,-3.0598,0.0,0.0,-3.0598,0.0,0.0,0.0,0.0,0.0,-2.7374,-2.6806,-2.6806,-2.6806,-2.6806,-2.6806,-2.6806,-2.6806,-2.6806,-2.6806,-2.6806,-2.6806,-2.6806,-2.6806,-2.6806,-2.6899,-2.7029,-2.7155,-2.7284,-2.7427,-2.7549,-2.7625,-2.7675,-2.7675,-2.771,-2.7735,-2.7735,-2.8052,-2.836,-2.836,-2.8756,-2.9097,-2.9143,-2.9506,-2.9941,-3.0405,-3.1101,-3.183,-3.2586,-3.3332,-3.4054,-3.48,0.0,-3.4899,-3.4899,0.0,0.0,-3.4899,-3.4899,0.0,0.0,-3.4899,-3.4899,-3.4899,-3.4899,-3.4899,-3.4899,-3.4899,-3.4899,-3.4899,-3.4899,-3.4899,-3.4899,-3.4899,-3.4899,-3.4916,-3.5595,-3.5893,-3.5943,-3.6688,-3.7384,-3.8063,-3.8858,-3.9199,-3.9199,-3.9282,-3.9299,-3.9299,-3.9299,-3.9299,-3.9299,0.0,0.0,0.0,-3.1193,-3.1106,-3.1193,-3.1965,-3.1884,-3.1599,-3.1312,-3.0615,-3.0265,-3.0452,-3.019,-3.016,-3.0568,-3.0598,-3.0598,-3.0598,-3.0598,-3.0598,-3.0598,-3.0598,-3.0598,-3.0598,-3.0598,-3.0598,0.0,0.0,0.0,0.0,0.0,0.0,0.0,-2.7621,-2.7026,-2.6806,-2.6806,-2.6806,-2.6806,-2.6806,-2.6806,-2.6806,-2.6806,-2.6806,-2.6806,-2.6806,-2.6806,-2.6806,-2.6806,-2.6846,-2.6884,-2.7041,-2.7119,-2.7196,-2.7335,-2.7437,-2.7488,-2.7488,-2.7524,-2.76,-2.76,-2.7735,-2.7894,-2.7894,-2.8042,-2.8271,-2.8567,-2.9028,-2.9656,-3.0576,-3.0991,-3.1653,-3.3137,-3.3607,-3.4054,-3.48,0.0,0.0,-3.4899,0.0,-3.4899,0.0,-3.4899,0.0,0.0,-3.4899,-3.4899,-3.4899,-3.4899,-3.4899,-3.4899,-3.4899,-3.4899,-3.4899,-3.4899,-3.4899,-3.4899,-3.4899,-3.5131,-3.5578,-3.5876,-3.6489,-3.735,-3.7649,-3.8179,-3.8874,-3.9183,-3.9299,-3.9299,-3.9299,-3.9299,-3.9299,-3.9299,-3.9299,-3.9299,-3.0062,-2.9934,-3.0037,-3.0758,-3.072,-3.0771,-3.1331,-3.1405,-3.1259,-3.0775,-2.9835,-2.9409,-3.0002,-2.9595,-2.9484,-2.9948,-3.019,-3.0312,-3.0312,-3.0477,-3.0598,-3.0598,-3.0598,0.0,-3.0598,-3.0598,-3.0598,-3.0598,-3.0598,0.0,-3.0598,-3.022,-2.9566,-2.8651,-2.7387,-2.6806,-2.6806,-2.6806,-2.6806,-2.6806,-2.6806,-2.6806,-2.6806,-2.6806,-2.6806,-2.6806,-2.6806,-2.6806,-2.6806,-2.6806,-2.6806,-2.6806,-2.6951,-2.7003,-2.7029,-2.7155,-2.7258,-2.735,-2.735,-2.7437,-2.7524,-2.7524,-2.7575,-2.76,-2.76,-2.76,-2.7735,-2.8207,-2.8762,-2.9462,-3.0452,-3.0949,-3.1707,-3.3297,-3.3697,-3.4054,-3.48,-3.4899,0.0,-3.4899,-3.4899,-3.4899,-3.4899,-3.4899,0.0,0.0,-3.4899,-3.4899,-3.4899,-3.4899,-3.4899,-3.4899,-3.4899,-3.4899,-3.4899,-3.4899,-3.4899,-3.4899,-3.5114,-3.5495,-3.6009,-3.6456,-3.7334,-3.8526,-3.8526,-3.8808,-3.9299,-3.9299,-3.9299,-3.9299,-3.9299,-3.9299,-3.9299,-3.9299,-3.9299,-3.9299,-3.0758,-3.0305,-3.0037,-3.0758,-3.0317,-2.983,-2.983,-2.983,-2.983,-2.9818,-2.9264,-2.9012,-2.9275,-2.8812,-2.8524,-2.8524,-2.9188,-2.9623,-2.9623,-3.0221,-3.0598,-3.0598,-3.0598,-3.0598,-3.0598,-3.0598,-3.0598,-3.0598,0.0,-3.0598,-3.0583,-2.9319,-2.8723,-2.8651,-2.7387,-2.6806,-2.6806,-2.6806,-2.6806,-2.6806,-2.6806,-2.6806,-2.6806,-2.6806,-2.6806,-2.6806,-2.6806,-2.6806,-2.6806,-2.6806,-2.6806,-2.6806,-2.6951,-2.7003,-2.7029,-2.7155,-2.7207,-2.7207,-2.7207,-2.7284,-2.7401,-2.7401,-2.7514,-2.76,-2.76,-2.76,-2.7735,-2.8207,-2.8833,-2.9444,-2.991,-3.1038,-3.2134,-3.2902,-3.3447,-3.4054,-3.48,-3.4899,0.0,-3.4899,-3.4899,-3.4899,-3.4899,-3.4899,0.0,0.0,-3.4899,-3.4899,-3.4899,-3.4899,-3.4899,-3.4899,-3.4899,-3.4899,-3.4899,-3.4899,-3.4899,-3.4916,-3.5644,-3.5992,-3.6059,-3.7516,-3.8576,-3.9282,-3.9282,-3.9299,-3.9299,-3.9299,-3.9299,-3.9299,-3.9299,-3.9299,-3.9299,-3.9299,-3.9299,-3.9299,-3.0101,-2.996,-2.9856,-3.0101,-2.9972,-2.9792,-2.9792,-2.9792,-2.9792,-2.9792,-2.9289,-2.8785,-2.8495,-2.8399,-2.8392,-2.85,-2.8716,-2.9062,-2.956,-2.9808,-3.0129,-3.0568,-3.0598,-3.0598,-3.0598,-3.0598,-3.0598,-3.0598,-3.0598,-3.0598,-3.0583,-2.9305,-2.8709,-2.8651,-2.7387,-2.6806,-2.6806,-2.6806,-2.6806,-2.6806,-2.6806,-2.6806,-2.6806,-2.6806,-2.6806,-2.6806,-2.6806,-2.6806,-2.6806,-2.6806,-2.6806,-2.6806,-2.6846,-2.6873,-2.6858,-2.691,-2.6989,-2.7067,-2.7067,-2.717,-2.7258,-2.7258,-2.7361,-2.7463,-2.7463,-2.7524,-2.777,-2.8389,-2.8686,-2.9249,-3.0691,-3.128,-3.1913,-3.2962,-3.3612,-3.4088,-3.4317,-3.4667,-3.4899,-3.4899,-3.4899,-3.4899,-3.4899,-3.4899,0.0,0.0,-3.4899,-3.4899,-3.4899,-3.4899,-3.4899,-3.4899,-3.4899,-3.4899,-3.4899,-3.4899,-3.5148,-3.5644,-3.5893,-3.6539,-3.7533,-3.851,-3.9083,-3.9299,-3.9299,-3.9299,-3.9299,-3.9299,-3.9299,-3.9299,-3.9299,-3.9299,-3.9299,-3.9299,-3.9299,-3.9299,-2.9792,-2.9792,-2.9792,-2.9792,-2.9792,-2.9792,-2.9792,-2.9702,-2.965,-2.965,-2.9338,-2.8862,-2.835,-2.8244,-2.8105,-2.7769,-2.7986,-2.8312,-2.8776,-2.9296,-2.9777,-3.0221,-3.0477,-3.0598,-3.0598,-3.0598,-3.0598,-3.0598,-3.0598,-3.0598,-3.0583,-2.9305,-2.8709,-2.8651,-2.7387,-2.6806,-2.6806,-2.6806,-2.6806,-2.6806,-2.6806,-2.6806,-2.6806,-2.6806,-2.6806,-2.6806,-2.6806,-2.6806,-2.6806,-2.6806,-2.6806,-2.6806,-2.6806,-2.6806,-2.6806,-2.6806,-2.6873,-2.6925,-2.6925,-2.7015,-2.7104,-2.7104,-2.7248,-2.735,-2.7401,-2.7656,-2.8017,-2.8502,-2.8981,-2.9657,-3.0852,-3.1447,-3.2025,-3.2779,-3.3371,-3.3748,-3.3748,-3.4052,-3.4341,-3.457,-3.4594,-3.4667,-3.4875,-3.4899,-3.4899,-3.4899,0.0,-3.4811,-3.4618,-3.4787,-3.4899,-3.4899,-3.4899,-3.4899,-3.4899,-3.5164,-3.5545,-3.6009,-3.6572,-3.745,-3.8626,-3.91,-3.9299,-3.9299,-3.9299,-3.9299,-3.9299,-3.9299,-3.9299,-3.9299,-3.9299,-3.9299,-3.9299,-3.9299,-3.9299,-3.9299,-2.9792,-2.9792,-2.9792,-2.9792,-2.9792,-2.9792,-2.9792,-2.956,-2.9419,-2.9419,-2.9419,-2.9207,-2.8661,-2.835,-2.772,-2.665,-2.7087,-2.7451,-2.7517,-2.8744,-2.9453,-2.9515,-3.0129,-3.0477,-3.0538,-3.0538,-3.0538,-3.0598,-3.0598,-3.0598,-3.0583,-2.9348,-2.8767,-2.8723,-2.7445,-2.6852,-2.6852,-2.6835,-2.6806,-2.6806,-2.6806,-2.6806,-2.6806,-2.6806,-2.6806,-2.6806,-2.6806,-2.6806,-2.6806,-2.6806,-2.6806,-2.6806,-2.6806,-2.6806,-2.6806,-2.6806,-2.6806,-2.6806,-2.6806,-2.6899,-2.6977,-2.7003,-2.7093,-2.7248,-2.7409,-2.7936,-2.8449,-2.8659,-2.9684,-3.0507,-3.0567,-3.1554,-3.2342,-3.2342,-3.2788,-3.313,-3.313,-3.3172,-3.3423,-3.3958,-3.405,-3.4234,-3.4739,-3.4787,-3.4787,-3.4787,0.0,-3.4594,-3.4126,-3.457,-3.4868,-3.4918,-3.4941,-3.4998,-3.5048,-3.5727,-3.6108,-3.6174,-3.7599,-3.8642,-3.9299,-3.9299,-3.9299,-3.9299,-3.9299,-3.9299,-3.9299,-3.9299,-3.9299,-3.9299,-3.9299,-3.9299,-3.9299,-3.9299,-3.9299,-3.9299,-2.9792,-2.9792,-2.9792,-2.9792,-2.9792,-2.9792,-2.9792,-2.956,-2.947,-2.9702,-2.9521,-2.9258,-2.8862,-2.8775,-2.8285,-2.718,-2.6864,-2.6939,-2.7484,-2.7802,-2.8228,-2.873,-2.8921,-2.9251,-2.9808,-2.9839,-3.0099,-3.0598,-3.0598,-3.0598,-3.0583,-2.9769,-2.9406,-2.932,-2.8043,-2.7478,-2.7449,-2.6997,-2.6806,-2.6806,-2.6806,-2.6806,-2.6806,-2.6806,-2.6806,-2.6806,-2.6806,-2.6806,-2.6806,-2.6806,-2.6806,-2.6806,-2.6806,-2.6806,-2.6806,-2.6806,-2.6806,-2.6806,-2.6806,-2.6806,-2.6873,-2.6977,-2.7093,-2.7325,-2.7827,-2.8169,-2.8675,-2.9686,-3.0214,-3.0672,-3.1167,-3.1506,-3.1726,-3.1726,-3.2203,-3.2602,-3.2602,-3.2949,-3.3251,-3.3397,-3.3407,-3.3459,-3.3588,-3.3588,-3.3588,-3.3588,-3.3588,-3.3732,-3.4075,-3.4226,-3.4503,-3.504,-3.549,-3.6009,-3.6572,-3.6754,-3.7119,-3.7698,-3.8593,-3.9133,-3.9299,-3.9299,-3.9299,-3.9299,-3.9299,-3.9299,-3.9299,-3.9299,-3.9299,-3.9299,-3.9299,-3.9299,-3.9299,-3.9299,-3.9299,-3.9299,-2.9792,-2.9792,-2.9792,-2.9792,-2.9792,-2.9792,-2.9792,-2.956,-2.9457,-2.9599,-2.9509,-2.9346,-2.9136,-2.9,-2.8586,-2.7733,-2.719,-2.6924,-2.7053,-2.7317,-2.767,-2.8019,-2.833,-2.8698,-2.9093,-2.9421,-2.9931,-3.0598,-3.0598,-3.0598,-3.0598,-2.9914,-2.9595,-2.9552,-2.8594,-2.8173,-2.8129,-2.749,-2.7215,-2.72,-2.6895,-2.6806,-2.6806,-2.6806,-2.6806,-2.6806,-2.6806,-2.6806,-2.6806,-2.6806,-2.6806,-2.6806,-2.6806,-2.6806,-2.6806,-2.6806,-2.6806,-2.6806,-2.6806,-2.6806,-2.6878,-2.7222,-2.7454,-2.7748,-2.8407,-2.8926,-2.9478,-3.0233,-3.0677,-3.1062,-3.1436,-3.1511,-3.1511,-3.1511,-3.1768,-3.1994,-3.1994,-3.2244,-3.2516,-3.2788,-3.2841,-3.2933,-3.3172,-3.3182,-3.3182,-3.3182,-3.3182,-3.324,-3.3324,-3.4095,-3.485,-3.5495,-3.5828,-3.6357,-3.7102,-3.7433,-3.798,-3.8709,-3.9116,-3.9299,-3.9299,-3.9299,-3.9299,-3.9299,-3.9299,-3.9299,-3.9299,-3.9299,-3.9299,-3.9299,-3.9299,-3.9299,-3.9299,-3.9299,-3.9299,-3.9299,-2.9792,-2.9792,-2.9792,-2.9792,-2.9792,-2.9792,-2.9792,-2.956,-2.9419,-2.947,-2.9419,-2.9419,-2.947,-2.9213,-2.8837,-2.8285,-2.772,-2.7165,-2.6537,-2.704,-2.7351,-2.7351,-2.7887,-2.8247,-2.833,-2.9062,-2.9777,-3.0447,-3.0447,-3.0507,-3.0598,-3.0016,-2.974,-2.9711,-2.9102,-2.8826,-2.8782,-2.8144,-2.784,-2.7797,-2.7186,-2.6924,-2.6924,-2.6849,-2.6806,-2.6806,-2.6806,-2.6806,-2.6806,-2.6806,-2.6806,-2.6806,-2.6806,-2.6852,-2.6924,-2.6924,-2.7023,-2.7041,-2.6953,-2.7023,-2.7227,-2.7737,-2.7992,-2.8316,-2.9029,-2.9743,-3.0314,-3.0501,-3.1035,-3.1467,-3.1467,-3.1511,-3.1511,-3.1511,-3.1511,-3.1511,-3.1511,-3.1511,-3.1697,-3.2203,-3.2259,-3.2437,-3.2906,-3.2933,-3.2933,-3.2933,-3.2933,-3.2834,-3.2564,-3.4021,-3.5218,-3.6016,-3.6133,-3.6546,-3.7272,-3.7994,-3.8676,-3.9299,-3.9299,-3.9299,-3.9299,-3.9299,-3.9299,-3.9299,-3.9299,-3.9299,-3.9299,-3.9299,-3.9299,-3.9299,-3.9299,-3.9299,-3.9299,-3.9299,-3.9299,-3.9299,-2.9792,-2.9792,-2.9792,-2.9792,-2.9792,-2.9792,-2.9792,-2.956,-2.947,-2.9702,-2.956,-2.947,-2.9702,-2.9704,-2.9428,-2.8813,-2.8298,-2.7544,-2.6562,-2.6589,-2.6658,-2.6658,-2.6748,-2.7061,-2.7637,-2.8312,-2.903,-2.9747,-2.9747,-3.0068,-3.0598,-3.0496,-3.0422,-3.0423,-2.9755,-2.945,-2.9407,-2.8811,-2.8536,-2.8477,-2.7839,-2.755,-2.7492,-2.6982,-2.6806,-2.6806,-2.6806,-2.6806,-2.6806,-2.6806,-2.6806,-2.6806,-2.6806,-2.7157,-2.755,-2.755,-2.7969,-2.8274,-2.7695,-2.8066,-2.8559,-2.8562,-2.8647,-2.8906,-2.942,-2.9754,-3.0103,-3.0646,-3.1072,-3.1322,-3.1322,-3.1409,-3.1511,-3.1511,-3.1511,-3.1511,-3.1511,-3.1511,-3.1524,-3.164,-3.164,-3.1653,-3.1768,-3.1768,-3.1768,-3.1768,-3.1768,-3.2209,-3.3185,-3.3506,-3.4448,-3.6193,-3.6754,-3.7367,-3.811,-3.8809,-3.9199,-3.9299,-3.9299,-3.9299,-3.9299,-3.9299,-3.9299,-3.9299,-3.9299,-3.9299,-3.9299,-3.9299,-3.9299,-3.9299,-3.9299,-3.9299,-3.9299,-3.9299,-3.9299,-3.9299,-2.9854,-2.9792,-2.9792,-2.9792,-2.9792,-2.9792,-2.9792,-2.9689,-2.965,-2.9792,-2.9689,-2.965,-2.9792,-2.9792,-2.9566,-2.8938,-2.8662,-2.8084,-2.7014,-2.6663,-2.6499,-2.6499,-2.6499,-2.6816,-2.7484,-2.7802,-2.8312,-2.903,-2.903,-2.9376,-3.0068,-3.0068,-3.0251,-3.0598,-3.0263,-3.0132,-3.0089,-2.9464,-2.9189,-2.9131,-2.8492,-2.8245,-2.8216,-2.7939,-2.7837,-2.7837,-2.7837,-2.7837,-2.7837,-2.7837,-2.7837,-2.7837,-2.7837,-2.7998,-2.8245,-2.8245,-2.8448,-2.8651,-2.8318,-2.8519,-2.8852,-2.913,-2.9303,-2.9564,-3.0119,-3.0382,-3.0631,-3.0896,-3.1073,-3.1176,-3.1176,-3.1292,-3.138,-3.138,-3.1438,-3.1511,-3.1511,-3.1511,-3.1511,-3.1511,-3.1511,-3.1511,-3.1511,-3.1511,-3.1511,-3.1511,-3.1824,-3.2315,-3.2879,-3.3916,-3.49,-3.5786,-3.7093,-3.797,-3.8306,-3.8952,-3.9299,-3.9299,-3.9299,-3.9299,-3.9299,-3.9299,-3.9299,-3.9299,-3.9299,-3.9299,-3.9299,-3.9299,-3.9299,-3.9299,-3.9299,-3.9299,-3.9299,-3.9299,-3.9299,-3.9299,-3.0093,-2.998,-2.9942,-2.9817,-2.9792,-2.9792,-2.9792,-2.9792,-2.9792,-2.9792,-2.9792,-2.9792,-2.9792,-2.9792,-2.9616,-2.9126,-2.8963,-2.8511,-2.7544,-2.6989,-2.6625,-2.6499,-2.6499,-2.6748,-2.7263,-2.7263,-2.7604,-2.8266,-2.8266,-2.8634,-2.9345,-2.9345,-2.9701,-3.0387,-3.0387,-3.0447,-3.0569,-3.0045,-2.9813,-2.9784,-2.916,-2.8898,-2.8884,-2.8767,-2.8709,-2.8709,-2.8709,-2.8709,-2.8709,-2.8709,-2.8709,-2.8709,-2.8709,-2.8811,-2.8898,-2.8898,-2.9028,-2.9116,-2.8942,-2.9028,-2.9232,-2.9726,-2.9944,-3.0192,-3.0645,-3.0866,-3.0984,-3.0984,-3.1014,-3.1014,-3.1014,-3.1161,-3.1263,-3.1278,-3.138,-3.1467,-3.1511,-3.1511,-3.1511,-3.1511,-3.1511,-3.1511,-3.1511,-3.1645,-3.1735,-3.1735,-3.2333,-3.2811,-3.2961,-3.4364,-3.5248,-3.5416,-3.7157,-3.8023,-3.7851,-3.8523,-3.886,-3.886,-3.886,-3.886,-3.886,-3.886,-3.8942,-3.9077,-3.9077,-3.9148,-3.9299,-3.9299,-3.9299,-3.9299,-3.9299,-3.9299,-3.9299,-3.9299,-3.9299,-3.9299,-3.0658,-3.0557,-3.0394,-2.988,-2.9792,-2.9792,-2.9792,-2.9792,-2.9792,-2.9792,-2.9792,-2.9792,-2.9792,-2.9792,-2.9779,-2.9729,-2.9239,-2.8674,-2.8084,-2.7532,-2.7027,-2.6512,-2.6499,-2.6521,-2.6555,-2.6555,-2.6905,-2.7571,-2.7571,-2.792,-2.8588,-2.8588,-2.8953,-2.9685,-2.9685,-3.0038,-3.0598,-3.0554,-3.0539,-3.0481,-2.9813,-2.9523,-2.9465,-2.8898,-2.8709,-2.8709,-2.8709,-2.8709,-2.8709,-2.8709,-2.8709,-2.8709,-2.8709,-2.9073,-2.9523,-2.9523,-2.9972,-3.0336,-2.9711,-2.9987,-3.0481,-3.0525,-3.0539,-3.0554,-3.0598,-3.0642,-3.0642,-3.0642,-3.0732,-3.0821,-3.0821,-3.0984,-3.1161,-3.1292,-3.1307,-3.1351,-3.1467,-3.1511,-3.1511,-3.1511,-3.1511,-3.1511,-3.1511,-3.2049,-3.2437,-3.2437,-3.3051,-3.3694,-3.4339,-3.449,-3.4851,-3.5464,-3.6799,-3.7161,-3.6538,-3.7191,-3.7546,-3.7546,-3.7546,-3.7546,-3.7546,-3.7546,-3.7822,-3.8379,-3.8379,-3.8717,-3.9299,-3.9299,-3.9299,-3.9299,-3.9299,-3.9299,-3.9299,-3.9299,-3.9299,-3.9299,-3.1198,-3.0834,-3.0557,-3.0331,-3.0018,-2.9792,-2.9792,-2.9792,-2.9792,-2.9792,-2.9792,-2.9792,-2.9792,-2.9792,-2.9792,-2.9792,-2.9591,-2.9227,-2.8612,-2.8097,-2.7394,-2.6537,-2.6499,-2.6499,-2.6499,-2.6499,-2.6624,-2.6871,-2.6871,-2.7229,-2.7887,-2.7887,-2.8247,-2.8921,-2.8921,-2.9314,-2.9976,-2.9976,-3.0221,-3.0583,-3.0306,-3.0219,-3.019,-2.9973,-2.9886,-2.9886,-2.9886,-2.9886,-2.9886,-2.9886,-2.9886,-2.9886,-2.9886,-3.0045,-3.0219,-3.0219,-3.0409,-3.0554,-3.0277,-3.0423,-3.0598,-3.0598,-3.0598,-3.0598,-3.0598,-3.0598,-3.0598,-3.0598,-3.0642,-3.0672,-3.0672,-3.0925,-3.1102,-3.1161,-3.1336,-3.1438,-3.1511,-3.1511,-3.1511,-3.1511,-3.1869,-3.2108,-3.2108,-3.2736,-3.3125,-3.3125,-3.3724,-3.4249,-3.4503,-3.4876,-3.5235,-3.5489,-3.5973,-3.629,-3.6399,-3.7071,-3.7399,-3.7399,-3.7399,-3.7399,-3.7399,-3.7399,-3.7735,-3.8306,-3.8306,-3.8689,-3.9299,-3.9299,-3.9299,-3.9299,-3.9299,-3.9299,-3.9299,-3.9299,-3.9299,-3.9299,-3.1763,-3.1223,-3.0809,-3.0645,-3.0168,-2.9792,-2.9792,-2.9792,-2.9792,-2.9792,-2.9792,-2.9792,-2.9792,-2.9792,-2.9792,-2.9792,-2.9792,-2.9553,-2.8925,-2.8411,-2.7607,-2.6549,-2.6499,-2.6499,-2.6499,-2.6499,-2.6499,-2.6499,-2.6499,-2.6748,-2.7196,-2.7196,-2.7537,-2.8182,-2.8182,-2.857,-2.9251,-2.9484,-2.987,-3.0282,-3.0507,-3.0598,-3.0598,-3.0598,-3.0598,-3.0598,-3.0598,-3.0598,-3.0598,-3.0598,-3.0598,-3.0598,-3.0598,-3.0598,-3.0598,-3.0598,-3.0598,-3.0598,-3.0598,-3.0598,-3.0598,-3.0598,-3.0598,-3.0598,-3.0598,-3.0598,-3.0598,-3.0598,-3.0598,-3.0598,-3.0598,-3.0791,-3.0955,-3.0984,-3.1161,-3.1292,-3.1366,-3.1544,-3.1678,-3.1737,-3.2333,-3.2721,-3.2721,-3.3379,-3.3799,-3.3737,-3.4381,-3.4801,-3.4801,-3.525,-3.5504,-3.5504,-3.5504,-3.5701,-3.6101,-3.6585,-3.6814,-3.6814,-3.6814,-3.6814,-3.6814,-3.6814,-3.7131,-3.7706,-3.7706,-3.8096,-3.8706,-3.8706,-3.8706,-3.8706,-3.8706,-3.8706,-3.8733,-3.8914,-3.8996,-3.9023,-3.2328,-3.1775,-3.1235,-3.0708,-3.0168,-2.9792,-2.9792,-2.9792,-2.9792,-2.9792,-2.9792,-2.9792,-2.9792,-2.9792,-2.9792,-2.9792,-2.9792,-2.9553,-2.8925,-2.8411,-2.762,-2.6549,-2.6499,-2.6499,-2.6499,-2.6499,-2.6499,-2.6499,-2.6499,-2.6499,-2.6499,-2.6499,-2.685,-2.7484,-2.7484,-2.7855,-2.8556,-2.9282,-2.9591,-2.9685,-3.0312,-3.0598,-3.0598,-3.0598,-3.0598,-3.0598,-3.0598,-3.0598,-3.0598,-3.0598,-3.0598,-3.0598,-3.0598,-3.0598,-3.0598,-3.0598,-3.0598,-3.0598,-3.0598,-3.0598,-3.0598,-3.0598,-3.0598,-3.0598,-3.0598,-3.0598,-3.0598,-3.0598,-3.0598,-3.0598,-3.0598,-3.0598,-3.0642,-3.0806,-3.0806,-3.0866,-3.1102,-3.1618,-3.2076,-3.2272,-3.2821,-3.3207,-3.3207,-3.3989,-3.4409,-3.4235,-3.5004,-3.5504,-3.5504,-3.5504,-3.5504,-3.5504,-3.5504,-3.5504,-3.5504,-3.5504,-3.5504,-3.5504,-3.5504,-3.5504,-3.5504,-3.5504,-3.5814,-3.6399,-3.6399,-3.6784,-3.7399,-3.7399,-3.7399,-3.7399,-3.7399,-3.7399,-3.7488,-3.808,-3.8278,-3.8379,-3.2855,-3.2353,-3.18,-3.1248,-3.0721,-3.0231,-2.9854,-2.9792,-2.9792,-2.9792,-2.9792,-2.9792,-2.9792,-2.9792,-2.9792,-2.9792,-2.9792,-2.9553,-2.8925,-2.8737,-2.836,-2.7645,-2.7278,-2.6889,-2.6499,-2.6499,-2.6499,-2.6499,-2.6499,-2.6499,-2.6499,-2.6499,-2.6624,-2.6816,-2.6816,-2.7417,-2.8524,-2.873,-2.9407,-3.0312,-3.0507,-3.0598,-3.0598,-3.0598,-3.0598,-3.0598,-3.0598,-3.0598,-3.0598,-3.0598,-3.0598,-3.0598,-3.0598,-3.0598,-3.0598,-3.0598,-3.0598,-3.0598,-3.0598,-3.0598,-3.0598,-3.0598,-3.0598,-3.0598,-3.0598,-3.0598,-3.0598,-3.0598,-3.0598,-3.0598,-3.0598,-3.0672,-3.0908,-3.1421,-3.1585,-3.1822,-3.237,-3.2606,-3.2724,-3.2786,-3.3362,-3.3794,-3.3875,-3.4547,-3.5014,-3.5093,-3.5352,-3.5439,-3.5294,-3.5439,-3.5439,-3.5294,-3.5439,-3.5504,-3.5504,-3.5504,-3.5504,-3.5504,-3.5504,-3.5504,-3.5504,-3.5504,-3.5814,-3.6399,-3.6399,-3.6784,-3.7399,-3.7399,-3.7399,-3.7399,-3.7399,-3.7399,-3.7429,-3.7589,-3.7677,-3.7693,-3.3124,-3.2604,-3.2039,-3.1486,-3.0959,-3.0432,-2.988,-2.9792,-2.9792,-2.9792,-2.9792,-2.9792,-2.9792,-2.9792,-2.9792,-2.9792,-2.9792,-2.9641,-2.9289,-2.9277,-2.8976,-2.8448,-2.8109,-2.757,-2.6839,-2.6612,-2.6499,-2.6499,-2.6499,-2.6499,-2.6499,-2.6499,-2.6499,-2.6499,-2.6499,-2.6939,-2.7736,-2.8266,-2.8985,-2.9825,-3.0372,-3.0598,-3.0598,-3.0598,-3.0598,-3.0598,-3.0598,-3.0598,-3.0598,-3.0598,-3.0598,-3.0598,-3.0598,-3.0598,-3.0598,-3.0598,-3.0598,-3.0598,-3.0598,-3.0598,-3.067,-3.0887,-3.0786,-3.0598,-3.0598,-3.0598,-3.067,-3.0901,-3.0945,-3.1032,-3.1293,-3.1413,-3.1605,-3.2015,-3.2151,-3.2344,-3.274,-3.305,-3.3228,-3.3277,-3.3865,-3.4327,-3.446,-3.483,-3.5115,-3.5261,-3.5326,-3.5326,-3.5213,-3.5326,-3.5359,-3.5326,-3.5439,-3.5504,-3.5504,-3.5504,-3.5504,-3.5504,-3.5504,-3.5504,-3.5504,-3.5504,-3.5701,-3.6053,-3.6053,-3.6258,-3.6646,-3.6646,-3.6646,-3.6646,-3.6646,-3.6646,-3.6677,-3.6936,-3.7011,-3.7041,-3.3124,-3.2654,-3.2114,-3.1562,-3.1035,-3.0507,-2.9942,-2.9829,-2.9792,-2.9792,-2.9792,-2.9792,-2.9792,-2.9792,-2.9792,-2.9792,-2.9792,-2.9792,-2.9792,-2.9792,-2.9553,-2.8988,-2.8913,-2.8461,-2.7457,-2.6876,-2.6562,-2.6562,-2.6512,-2.6499,-2.6499,-2.6499,-2.6499,-2.6499,-2.6499,-2.6521,-2.6692,-2.7887,-2.8492,-2.8716,-2.9979,-3.0538,-3.0598,-3.0598,-3.0598,-3.0598,-3.0598,-3.0598,-3.0598,-3.0598,-3.0598,-3.0598,-3.0598,-3.0598,-3.0598,-3.0598,-3.0598,-3.0612,-3.067,-3.0685,-3.0814,-3.1453,-3.1177,-3.0772,-3.0772,-3.0772,-3.0916,-3.1496,-3.1582,-3.177,-3.2379,-3.2481,-3.251,-3.2585,-3.26,-3.2629,-3.264,-3.3195,-3.3642,-3.3758,-3.4284,-3.4731,-3.4868,-3.4902,-3.4902,-3.4902,-3.5082,-3.518,-3.5148,-3.518,-3.5294,-3.5439,-3.5472,-3.5472,-3.5472,-3.5472,-3.5472,-3.5472,-3.5472,-3.5472,-3.5439,-3.5472,-3.5472,-3.5472,-3.5504,-3.5504,-3.5504,-3.5504,-3.5504,-3.5504,-3.5504,-3.5504,-3.5569,-3.6116,-3.6321,-3.6399,-3.3124,-3.2968,-3.2704,-3.2139,-3.1587,-3.1047,-3.052,-3.0068,-2.9792,-2.9792,-2.9792,-2.9792,-2.9792,-2.9792,-2.9792,-2.9792,-2.9792,-2.9792,-2.9792,-2.9792,-2.9741,-2.9616,-2.9126,-2.8775,-2.8574,-2.7607,-2.714,-2.714,-2.6713,-2.6499,-2.6499,-2.6499,-2.6499,-2.6499,-2.6499,-2.6782,-2.7284,-2.7571,-2.8344,-2.939,-2.9685,-3.0129,-3.0598,-3.0598,-3.0598,-3.0598,-3.0598,-3.0598,-3.0598,-3.0598,-3.0598,-3.0598,-3.0598,-3.0598,-3.0598,-3.0598,-3.0598,-3.0714,-3.1177,-3.1308,-3.1467,-3.2135,-3.2162,-3.2092,-3.2092,-3.2092,-3.2135,-3.2249,-3.2263,-3.2338,-3.2466,-3.2481,-3.2687,-3.3213,-3.33,-3.3441,-3.3935,-3.4124,-3.4211,-3.423,-3.4361,-3.4549,-3.4731,-3.4835,-3.4902,-3.4902,-3.4935,-3.4902,-3.4831,-3.5063,-3.5148,-3.5034,-3.518,-3.5261,-3.5261,-3.5115,-3.5115,-3.5261,-3.5261,-3.518,-3.5034,-3.518,-3.5261,-3.5261,-3.5439,-3.5504,-3.5504,-3.5504,-3.5504,-3.5504,-3.5504,-3.5504,-3.5504,-3.5651,-3.5716,-3.5701,-3.3124,-3.3124,-3.2893,-3.2315,-3.1976,-3.1524,-3.0733,-3.0369,-3.0093,-2.9829,-2.9792,-2.9792,-2.9792,-2.9792,-2.9792,-2.9792,-2.9792,-2.9792,-2.9792,-2.9792,-2.9792,-2.9792,-2.9503,-2.934,-2.934,-2.8511,-2.7946,-2.767,-2.7118,-2.6889,-2.6889,-2.6612,-2.6499,-2.6499,-2.6499,-2.6871,-2.7517,-2.7835,-2.8602,-2.9651,-3.0259,-3.0727,-3.1061,-3.138,-3.1511,-3.1511,-3.1511,-3.1511,-3.1511,-3.1511,-3.1511,-3.1511,-3.1511,-3.1511,-3.1511,-3.1511,-3.1511,-3.1584,-3.1903,-3.1973,-3.215,-3.2803,-3.2977,-3.289,-3.2553,-3.2481,-3.26,-3.2904,-3.2977,-3.3064,-3.3369,-3.3427,-3.3529,-3.3862,-3.392,-3.4037,-3.437,-3.4414,-3.4414,-3.4414,-3.4414,-3.4448,-3.4563,-3.4769,-3.4835,-3.4668,-3.475,-3.4783,-3.4698,-3.4865,-3.4949,-3.4902,-3.5001,-3.5082,-3.5082,-3.4935,-3.4902,-3.4964,-3.5016,-3.5034,-3.5034,-3.5148,-3.5261,-3.5359,-3.5439,-3.5504,-3.5504,-3.5504,-3.5504,-3.5504,-3.5504,-3.5504,-3.5504,-3.5504,-3.5504,-3.5472,-3.3068,-3.3124,-3.2918,-3.2441,-3.2277,-3.1913,-3.1022,-3.0733,-3.0457,-2.9993,-2.9854,-2.9792,-2.9792,-2.9792,-2.9792,-2.9792,-2.9792,-2.9792,-2.9792,-2.9792,-2.9792,-2.9792,-2.9792,-2.9792,-2.9792,-2.9327,-2.88,-2.8247,-2.7695,-2.7419,-2.7419,-2.6989,-2.6776,-2.6776,-2.6776,-2.7096,-2.765,-2.8193,-2.885,-2.9613,-3.0813,-3.1343,-3.1541,-3.2246,-3.2481,-3.2481,-3.2481,-3.2481,-3.2481,-3.2481,-3.2481,-3.2481,-3.2481,-3.2481,-3.2481,-3.2481,-3.2481,-3.2542,-3.2643,-3.2687,-3.2832,-3.3503,-3.3663,-3.3499,-3.2962,-3.2814,-3.2991,-3.3547,-3.3663,-3.379,-3.4312,-3.4414,-3.4414,-3.4414,-3.4414,-3.4414,-3.4414,-3.4414,-3.4414,-3.4414,-3.4414,-3.4414,-3.4414,-3.4635,-3.4702,-3.4414,-3.4563,-3.4664,-3.4664,-3.4664,-3.475,-3.4868,-3.4868,-3.4868,-3.4868,-3.4835,-3.475,-3.4664,-3.4769,-3.4902,-3.5129,-3.5148,-3.5261,-3.5439,-3.5504,-3.5504,-3.5504,-3.5504,-3.5504,-3.5504,-3.5504,-3.5504,-3.5504,-3.5504,-3.5504,-3.5472,-3.2939,-3.3124,-3.3056,-3.2968,-3.2554,-3.2164,-3.2026,-3.121,-3.0583,-3.052,-3.0093,-2.9792,-2.9792,-2.9792,-2.9792,-2.9792,-2.9792,-2.9792,-2.9792,-2.9792,-2.9792,-2.9792,-2.9792,-2.9792,-2.9792,-2.9716,-2.9402,-2.8775,-2.826,-2.7996,-2.7996,-2.7921,-2.7883,-2.7883,-2.7883,-2.792,-2.8015,-2.8124,-2.8563,-2.924,-3.0113,-3.0796,-3.1406,-3.2198,-3.2481,-3.2481,-3.2481,-3.2481,-3.2481,-3.2481,-3.2481,-3.2481,-3.2481,-3.2481,-3.2481,-3.2481,-3.2481,-3.2643,-3.3195,-3.3373,-3.3518,-3.4124,-3.4283,-3.4254,-3.4182,-3.4153,-3.4182,-3.4269,-3.4283,-3.4312,-3.4385,-3.4414,-3.4414,-3.4414,-3.4414,-3.4414,-3.4414,-3.4414,-3.4414,-3.4414,-3.4414,-3.4414,-3.4414,-3.4448,-3.4448,-3.4414,-3.4414,-3.4448,-3.4448,-3.4597,-3.4698,-3.4731,-3.4731,-3.4731,-3.4731,-3.4549,-3.4448,-3.4448,-3.4448,-3.4582,-3.4765,-3.4883,-3.5034,-3.5261,-3.5439,-3.5504,-3.5504,-3.5504,-3.5504,-3.5504,-3.5504,-3.5504,-3.5504,-3.5504,-3.5504,-3.5472,-3.2164,-3.2711,-3.3124,-3.3124,-3.2867,-3.2591,-3.2265,-3.1813,-3.1298,-3.0696,-3.0407,-3.0131,-2.9829,-2.9792,-2.9792,-2.9792,-2.9792,-2.9792,-2.9792,-2.9792,-2.9792,-2.9792,-2.9792,-2.9792,-2.9792,-2.9792,-2.9666,-2.9415,-2.885,-2.8561,-2.8561,-2.8247,-2.8109,-2.8109,-2.8109,-2.8303,-2.8674,-2.9138,-2.9723,-3.0426,-3.1598,-3.2269,-3.261,-3.3295,-3.3572,-3.3572,-3.3572,-3.3572,-3.3572,-3.3572,-3.3572,-3.3572,-3.3572,-3.3572,-3.3572,-3.3572,-3.3572,-3.3645,-3.392,-3.3993,-3.4066,-3.4341,-3.4414,-3.4414,-3.4414,-3.4414,-3.4414,-3.4414,-3.4414,-3.4414,-3.4414,-3.4414,-3.4414,-3.4414,-3.4414,-3.4414,-3.4414,-3.4414,-3.4414,-3.4414,-3.4414,-3.4414,-3.4414,-3.4414,-3.4414,-3.4414,-3.4414,-3.4414,-3.4414,-3.4481,-3.4515,-3.4515,-3.4515,-3.4515,-3.4515,-3.4448,-3.4414,-3.4414,-3.4414,-3.4515,-3.4698,-3.475,-3.4883,-3.5034,-3.5115,-3.5148,-3.5148,-3.5148,-3.5148,-3.5148,-3.5148,-3.5148,-3.5148,-3.5148,-3.5148,-3.5148]},{"header":{"parameterUnit":"m.s-1","parameterCategory":1,"la1":30.6,"la2":28.766,"lo1":-90.7593,"lo2":-88.6598,"dx":0.0162,"dy":0.0183,"nx":116,"ny":114,"refTime":"2023-02-21T18:00:00:Z","depth":0,"parameterNumber":3,"parameterNumberName":"V-component_of_WINDS"},"data":[0.0,0.0,0.0,0.0,0.0,0.0,0.0,0.0,0.0,0.0,0.0,0.0,0.0,0.0,0.0,0.0,0.0,0.0,0.0,0.0,0.0,0.0,0.0,0.0,0.0,0.0,0.0,0.0,0.0,0.0,0.0,0.0,0.0,0.0,0.0,0.0,0.0,0.0,0.0,0.0,0.0,0.0,0.0,0.0,0.0,0.0,0.0,0.0,0.0,0.0,0.0,0.0,0.0,0.0,0.0,0.0,0.0,0.0,0.0,0.0,0.0,0.0,0.0,0.0,0.0,0.0,0.0,0.0,0.0,0.0,0.0,0.0,0.0,0.0,0.0,0.0,0.0,0.0,0.0,0.0,0.0,0.0,0.0,0.0,0.0,0.0,0.0,0.0,0.0,0.0,0.0,0.0,0.0,0.0,0.0,0.0,0.0,0.0,0.0,0.0,0.0,0.0,0.0,0.0,0.0,0.0,0.0,0.0,0.0,0.0,0.0,0.0,0.0,0.0,0.0,0.0,0.0,0.0,0.0,0.0,0.0,0.0,0.0,0.0,0.0,0.0,0.0,0.0,0.0,0.0,0.0,0.0,0.0,0.0,0.0,0.0,0.0,0.0,0.0,0.0,0.0,0.0,0.0,0.0,0.0,0.0,0.0,0.0,0.0,0.0,0.0,0.0,0.0,0.0,0.0,0.0,0.0,0.0,0.0,0.0,0.0,0.0,0.0,0.0,0.0,0.0,0.0,0.0,0.0,0.0,0.0,0.0,0.0,0.0,0.0,0.0,0.0,0.0,0.0,0.0,0.0,0.0,0.0,0.0,0.0,0.0,0.0,0.0,0.0,0.0,0.0,0.0,0.0,0.0,0.0,0.0,0.0,0.0,0.0,0.0,0.0,0.0,0.0,0.0,0.0,0.0,0.0,0.0,0.0,0.0,0.0,0.0,0.0,0.0,0.0,0.0,0.0,0.0,0.0,0.0,0.0,0.0,0.0,0.0,0.0,0.0,0.0,0.0,0.0,0.0,0.0,0.0,0.0,0.0,0.0,0.0,0.0,0.0,0.0,0.0,0.0,0.0,0.0,0.0,0.0,0.0,0.0,0.0,0.0,0.0,0.0,0.0,0.0,0.0,0.0,0.0,0.0,0.0,0.0,0.0,0.0,0.0,0.0,0.0,0.0,0.0,0.0,0.0,0.0,0.0,0.0,0.0,0.0,0.0,0.0,0.0,0.0,0.0,0.0,0.0,0.0,0.0,0.0,0.0,0.0,0.0,0.0,0.0,0.0,0.0,0.0,0.0,0.0,0.0,0.0,0.0,0.0,0.0,0.0,0.0,0.0,0.0,0.0,0.0,0.0,0.0,0.0,0.0,0.0,0.0,0.0,0.0,0.0,0.0,0.0,0.0,0.0,0.0,0.0,0.0,0.0,0.0,0.0,0.0,0.0,0.0,0.0,0.0,0.0,0.0,0.0,0.0,0.0,0.0,0.0,0.0,0.0,0.0,0.0,0.0,0.0,0.0,0.0,0.0,0.0,0.0,0.0,0.0,0.0,0.0,0.0,0.0,0.0,0.0,0.0,0.0,0.0,0.0,0.0,0.0,0.0,0.0,0.0,0.0,0.0,0.0,0.0,0.0,0.0,0.0,0.0,0.0,0.0,0.0,0.0,0.0,0.0,0.0,0.0,0.0,0.0,0.0,0.0,0.0,0.0,0.0,0.0,0.0,0.0,0.0,0.0,0.0,0.0,0.0,0.0,0.0,0.0,0.0,0.0,0.0,0.0,0.0,0.0,0.0,0.0,0.0,0.0,0.0,0.0,0.0,0.0,0.0,0.0,0.0,0.0,0.0,0.0,0.0,0.0,0.0,0.0,0.0,0.0,0.0,0.0,0.0,0.0,0.0,0.0,0.0,0.0,0.0,0.0,0.0,0.0,0.0,0.0,0.0,0.0,0.0,0.0,0.0,0.0,0.0,0.0,0.0,0.0,0.0,0.0,0.0,0.0,0.0,0.0,0.0,0.0,0.0,0.0,0.0,0.0,0.0,0.0,0.0,0.0,0.0,0.0,0.0,0.0,0.0,0.0,0.0,0.0,0.0,0.0,0.0,0.0,0.0,0.0,0.0,0.0,0.0,0.0,0.0,0.0,0.0,0.0,0.0,0.0,0.0,0.0,0.0,0.0,0.0,0.0,0.0,0.0,0.0,0.0,0.0,0.0,0.0,0.0,0.0,0.0,0.0,0.0,0.0,0.0,0.0,0.0,0.0,0.0,0.0,0.0,0.0,0.0,0.0,0.0,0.0,0.0,0.0,0.0,0.0,0.0,0.0,0.0,0.0,0.0,0.0,0.0,0.0,0.0,0.0,0.0,0.0,0.0,0.0,0.0,0.0,0.0,0.0,0.0,0.0,0.0,0.0,0.0,0.0,0.0,0.0,0.0,0.0,0.0,0.0,0.0,0.0,0.0,0.0,0.0,0.0,0.0,0.0,0.0,0.0,0.0,0.0,0.0,0.0,0.0,0.0,0.0,0.0,0.0,0.0,0.0,0.0,0.0,0.0,0.0,0.0,0.0,0.0,0.0,0.0,0.0,0.0,0.0,0.0,0.0,0.0,0.0,0.0,0.0,0.0,0.0,0.0,0.0,0.0,0.0,0.0,0.0,0.0,0.0,0.0,0.0,0.0,0.0,0.0,0.0,0.0,0.0,0.0,0.0,0.0,0.0,0.0,0.0,0.0,0.0,0.0,0.0,0.0,0.0,0.0,0.0,0.0,0.0,0.0,0.0,0.0,0.0,0.0,0.0,0.0,0.0,0.0,0.0,0.0,0.0,0.0,0.0,0.0,0.0,0.0,0.0,0.0,0.0,0.0,0.0,0.0,0.0,0.0,0.0,0.0,0.0,0.0,0.0,0.0,0.0,0.0,0.0,0.0,0.0,0.0,0.0,0.0,0.0,0.0,0.0,0.0,0.0,0.0,0.0,0.0,0.0,0.0,0.0,0.0,0.0,0.0,0.0,0.0,0.0,0.0,0.0,0.0,0.0,0.0,0.0,0.0,0.0,0.0,0.0,0.0,0.0,0.0,0.0,0.0,0.0,0.0,0.0,0.0,0.0,0.0,0.0,0.0,0.0,0.0,0.0,0.0,0.0,0.0,0.0,0.0,0.0,0.0,0.0,0.0,0.0,0.0,0.0,0.0,0.0,0.0,0.0,0.0,0.0,0.0,0.0,0.0,0.0,0.0,0.0,0.0,0.0,0.0,0.0,0.0,0.0,0.0,0.0,0.0,0.0,0.0,0.0,0.0,0.0,0.0,0.0,0.0,0.0,0.0,0.0,0.0,0.0,0.0,0.0,0.0,0.0,0.0,0.0,0.0,0.0,0.0,0.0,0.0,0.0,0.0,0.0,0.0,0.0,0.0,0.0,0.0,0.0,0.0,0.0,0.0,0.0,0.0,0.0,0.0,0.0,0.0,0.0,0.0,0.0,0.0,0.0,0.0,0.0,0.0,0.0,0.0,0.0,0.0,0.0,0.0,0.0,0.0,0.0,0.0,0.0,0.0,0.0,0.0,0.0,0.0,0.0,0.0,0.0,0.0,0.0,0.0,0.0,0.0,0.0,0.0,0.0,0.0,0.0,0.0,0.0,0.0,0.0,0.0,0.0,0.0,0.0,0.0,0.0,0.0,0.0,0.0,0.0,0.0,0.0,0.0,0.0,0.0,0.0,0.0,0.0,0.0,0.0,0.0,0.0,0.0,0.0,0.0,0.0,0.0,0.0,0.0,0.0,0.0,0.0,0.0,0.0,0.0,0.0,0.0,0.0,0.0,0.0,0.0,0.0,0.0,0.0,0.0,0.0,0.0,0.0,0.0,0.0,0.0,0.0,0.0,0.0,0.0,0.0,0.0,0.0,0.0,0.0,0.0,0.0,0.0,0.0,0.0,0.0,0.0,0.0,0.0,0.0,0.0,0.0,0.0,0.0,0.0,0.0,0.0,0.0,0.0,0.0,0.0,0.0,0.0,0.0,0.0,0.0,0.0,0.0,0.0,0.0,0.0,0.0,0.0,0.0,0.0,0.0,0.0,0.0,0.0,0.0,0.0,0.0,0.0,0.0,0.0,0.0,0.0,0.0,0.0,0.0,0.0,0.0,0.0,0.0,0.0,0.0,0.0,0.0,0.0,0.0,0.0,0.0,0.0,0.0,0.0,0.0,0.0,0.0,0.0,0.0,0.0,0.0,0.0,0.0,0.0,0.0,0.0,0.0,0.0,0.0,0.0,0.0,0.0,0.0,0.0,0.0,0.0,0.0,0.0,0.0,0.0,0.0,0.0,0.0,0.0,0.0,0.0,0.0,0.0,0.0,0.0,0.0,0.0,0.0,0.0,0.0,0.0,0.0,0.0,0.0,0.0,0.0,0.0,0.0,0.0,0.0,0.0,0.0,0.0,0.0,0.0,0.0,0.0,0.0,0.0,0.0,0.0,0.0,0.0,0.0,0.0,0.0,0.0,0.0,0.0,0.0,0.0,0.0,0.0,0.0,0.0,0.0,0.0,0.0,0.0,0.0,0.0,0.0,0.0,0.0,0.0,0.0,0.0,0.0,0.0,0.0,0.0,0.0,0.0,0.0,0.0,0.0,0.0,0.0,0.0,0.0,0.0,0.0,0.0,0.0,0.0,0.0,0.0,0.0,0.0,0.0,0.0,0.0,0.0,0.0,0.0,0.0,0.0,0.0,0.0,0.0,0.0,0.0,0.0,0.0,0.0,0.0,0.0,0.0,0.0,0.0,0.0,0.0,0.0,0.0,0.0,0.0,0.0,0.0,0.0,0.0,0.0,0.0,0.0,0.0,0.0,0.0,0.0,0.0,0.0,0.0,0.0,0.0,0.0,0.0,0.0,0.0,0.0,0.0,0.0,0.0,0.0,0.0,0.0,0.0,0.0,0.0,0.0,0.0,0.0,0.0,0.0,0.0,0.0,0.0,0.0,0.0,0.0,0.0,0.0,0.0,0.0,0.0,0.0,0.0,0.0,0.0,0.0,0.0,0.0,0.0,0.0,0.0,0.0,0.0,0.0,0.0,0.0,0.0,0.0,0.0,0.0,0.0,0.0,0.0,0.0,0.0,0.0,0.0,0.0,0.0,0.0,0.0,0.0,0.0,0.0,0.0,0.0,0.0,0.0,0.0,0.0,0.0,0.0,0.0,0.0,0.0,0.0,0.0,0.0,0.0,0.0,0.0,0.0,0.0,0.0,0.0,0.0,0.0,0.0,0.0,0.0,0.0,0.0,0.0,0.0,0.0,0.0,0.0,0.0,0.0,0.0,0.0,0.0,0.0,0.0,0.0,0.0,0.0,0.0,0.0,0.0,0.0,0.0,0.0,0.0,0.0,0.0,0.0,0.0,0.0,0.0,0.0,0.0,0.0,0.0,0.0,0.0,0.0,0.0,0.0,0.0,0.0,0.0,0.0,0.0,0.0,0.0,0.0,0.0,0.0,0.0,0.0,0.0,0.0,0.0,0.0,0.0,0.0,0.0,0.0,0.0,0.0,0.0,0.0,0.0,0.0,0.0,0.0,0.0,0.0,0.0,0.0,0.0,0.0,0.0,0.0,0.0,0.0,0.0,0.0,0.0,0.0,0.0,0.0,0.0,0.0,0.0,0.0,0.0,0.0,0.0,0.0,0.0,0.0,0.0,0.0,0.0,0.0,0.0,0.0,0.0,0.0,0.0,0.0,0.0,0.0,0.0,0.0,0.0,0.0,0.0,0.0,0.0,0.0,0.0,0.0,0.0,0.0,0.0,0.0,0.0,0.0,0.0,0.0,0.0,0.0,0.0,0.0,0.0,0.0,0.0,0.0,0.0,0.0,0.0,0.0,0.0,0.0,0.0,0.0,0.0,0.0,0.0,0.0,0.0,0.0,0.0,0.0,0.0,0.0,0.0,0.0,0.0,0.0,0.0,0.0,0.0,0.0,0.0,0.0,0.0,0.0,0.0,0.0,0.0,0.0,0.0,0.0,0.0,0.0,0.0,0.0,0.0,0.0,0.0,0.0,0.0,0.0,0.0,0.0,0.0,0.0,0.0,0.0,0.0,0.0,0.0,0.0,0.0,0.0,0.0,0.5538,0.0,0.0,0.0,0.0,0.0,0.0,0.0,0.0,0.0,0.0,0.0,0.0,0.0,0.0,0.0,0.0,0.0,0.0,0.0,0.0,0.0,0.0,0.0,0.0,0.0,0.0,0.0,0.0,0.0,0.0,0.0,0.0,0.0,0.0,0.0,0.0,0.0,0.0,0.0,0.0,0.0,0.0,0.0,0.0,0.0,0.0,0.0,0.0,0.0,0.0,0.0,0.0,0.0,0.0,0.0,0.0,0.0,0.0,0.0,0.0,0.0,0.0,0.0,0.0,0.0,0.0,0.0,0.0,0.0,0.0,0.0,0.0,0.0,0.0,0.0,0.0,0.0,0.0,0.0,0.0,0.0,0.0,0.0,0.0,0.0,0.0,0.0,0.0,0.0,0.0,0.0,0.0,0.0,0.0,0.0,0.0,0.0,0.0,0.0,0.0,0.0,0.0,0.0,0.0,0.0,0.0,0.0,0.0,0.0,0.0,0.0,0.0,0.0,0.0,0.0,0.0,0.5812,0.0,0.0,0.0,0.0,0.0,0.0,0.0,0.0,0.0,0.0,0.0,0.0,0.0,0.0,0.0,0.0,0.0,0.0,0.0,0.0,0.0,0.0,0.0,0.0,0.0,0.0,0.0,0.0,0.0,0.0,0.0,0.0,0.0,0.0,0.0,0.0,0.0,0.0,0.0,0.0,0.0,0.0,0.0,0.0,0.0,0.0,0.0,0.0,0.0,0.0,0.0,0.0,0.0,0.0,0.0,0.0,0.0,0.0,0.0,0.0,0.0,0.0,0.0,0.0,0.0,0.0,0.0,0.0,0.0,0.0,0.0,0.0,0.0,0.0,0.0,0.0,0.0,0.0,0.0,0.0,0.0,0.0,0.0,0.0,0.0,0.0,0.0,0.0,0.0,0.0,0.0,0.0,0.0,0.0,0.0,0.0,0.0,0.0,0.0,0.0,0.0,0.0,0.0,0.0,0.0,0.0,0.0,0.0,0.7548,0.7706,0.7207,0.7207,0.7514,0.805,0.7553,0.7322,0.728,0.6703,0.0,0.0,0.0,0.0,0.0,0.0,0.0,0.0,0.0,0.0,0.0,0.0,0.0,0.0,0.0,0.0,0.0,0.0,0.0,0.0,0.0,0.0,0.0,0.0,0.0,0.0,0.0,0.0,0.0,0.0,0.0,0.0,0.0,0.0,0.0,0.0,0.0,0.0,0.0,0.0,0.0,0.0,0.0,0.0,0.0,0.0,0.0,0.0,0.0,0.0,0.0,0.0,0.0,0.0,0.0,0.0,0.0,0.0,0.0,0.0,0.0,0.0,0.0,0.0,0.0,0.0,0.0,0.0,0.0,0.0,0.0,0.0,0.0,0.0,0.0,0.0,0.0,0.0,0.0,0.0,0.0,0.0,0.0,0.0,0.0,0.0,0.8327,0.9036,0.0,0.0,0.0,0.0,0.0,0.0,0.0,0.0,0.0,0.0,0.0,0.0,0.0,0.847,0.8508,0.8508,0.847,0.8356,0.8508,0.8551,0.847,0.847,0.8703,0.9094,0.9018,0.0,0.7706,0.7629,0.0,0.0,0.0,0.0,0.0,0.0,0.0,0.0,0.0,0.0,0.0,0.0,0.0,0.0,0.0,0.0,0.0,0.0,0.0,0.0,0.0,0.0,0.0,0.0,0.0,0.0,0.0,0.0,0.0,0.0,0.0,0.0,0.0,0.0,0.0,0.0,0.0,0.0,0.0,0.0,0.0,0.0,0.0,0.0,0.0,0.0,0.0,0.0,0.0,0.0,0.0,0.0,0.0,0.0,0.0,0.0,0.0,0.0,0.0,0.0,0.0,0.0,0.0,0.0,0.0,0.0,0.0,0.0,0.0,0.0,0.0,0.0,0.0,0.0,0.0,0.0,0.0,0.0,0.0,0.0,0.0,0.0,0.0,0.0,0.0,0.8441,0.8775,0.8775,0.8775,0.8813,0.0,0.0,0.0,0.0,0.0,0.0,0.0,0.0,0.0,1.0019,0.9609,0.9387,0.9387,0.9165,0.8932,0.8703,0.8932,0.8932,0.8703,0.8703,0.8932,0.9322,0.9647,0.9679,0.9453,0.9112,0.8623,0.8122,0.0,0.0,0.0,0.0,0.9513,0.9771,0.0,0.0,0.0,0.0,0.0,0.0,0.0,0.0,0.0,0.0,0.0,0.0,0.0,0.0,0.0,1.3709,0.0,0.0,0.0,0.0,0.0,0.0,0.0,0.0,0.0,0.0,0.0,0.0,0.0,0.0,0.0,0.0,0.0,0.0,0.0,0.0,0.0,0.0,0.0,0.0,0.0,0.0,0.0,0.0,0.0,0.0,0.0,0.0,0.0,0.0,0.0,0.0,0.0,0.0,0.0,0.0,0.0,0.0,0.0,0.0,0.0,0.0,0.0,0.0,0.0,0.0,0.0,0.0,0.0,0.0,0.0,0.0,0.0,0.0,0.0,0.0,0.0,0.9193,0.9453,0.9415,0.9604,0.9825,0.0,0.0,0.0,0.0,0.0,0.0,1.1074,1.0513,1.0481,1.1074,1.0588,1.0288,1.0288,0.9879,0.9539,0.9231,0.9392,0.9316,0.9008,0.9155,0.9458,0.9884,1.0496,1.0981,1.1298,1.0625,1.0094,0.9744,1.0207,1.0088,0.9814,1.073,1.1267,1.1586,0.0,0.0,0.0,0.0,0.0,0.0,0.0,0.0,0.0,0.0,0.0,0.0,0.0,0.0,1.3745,1.4494,1.4565,1.4601,0.0,0.0,0.0,0.0,0.0,0.0,0.0,0.0,0.0,0.0,0.0,0.0,0.0,0.0,0.0,0.0,0.0,0.0,0.0,0.0,0.0,0.0,0.0,0.0,0.0,0.0,0.0,0.0,0.0,0.0,0.0,0.0,0.0,0.0,0.0,0.0,0.0,0.0,0.0,0.0,0.0,0.0,0.0,0.0,0.0,0.0,0.0,0.0,0.0,0.0,0.0,0.0,0.0,0.0,0.0,0.0,0.0,0.0,0.0,0.0,0.0,1.1929,1.1446,0.0,0.0,0.0,0.0,1.1111,1.1074,1.1074,1.1111,1.1074,1.1074,1.1111,1.1242,1.1304,1.1304,1.0919,1.07,1.07,1.0143,0.9846,0.9846,1.0438,1.0925,1.1335,1.1946,1.2432,1.2746,1.1946,1.1601,1.1564,1.1601,1.1601,1.1569,1.169,1.177,1.1766,0.0,0.0,0.0,0.0,0.0,0.0,0.0,0.0,0.0,0.0,0.0,0.0,0.0,1.4394,1.5081,1.5365,1.5824,1.6245,1.6576,0.0,0.0,0.0,0.0,0.0,0.0,0.0,0.0,0.0,0.0,0.0,0.0,0.0,0.0,0.0,0.0,0.0,0.0,0.0,0.0,0.0,0.0,0.0,0.0,0.0,0.0,0.0,0.0,0.0,0.0,0.0,0.0,0.0,0.0,0.0,0.0,0.0,0.0,0.0,0.0,0.0,0.0,0.0,0.0,0.0,0.0,0.0,0.0,0.0,0.0,0.0,0.0,0.0,0.0,0.0,0.0,0.0,0.0,0.0,0.0,1.1521,1.1744,0.0,1.1855,1.1855,1.2077,1.2599,1.2157,1.2114,1.2636,1.215,1.215,1.2826,1.2402,1.2248,1.2345,1.1977,1.165,1.1391,1.1428,1.1316,1.1056,1.1279,1.1613,1.202,1.2609,1.3127,1.347,1.3535,1.3127,1.2475,1.2475,1.2475,1.2478,1.265,1.2713,1.2775,0.0,0.0,0.0,0.0,0.0,0.0,0.0,0.0,0.0,0.0,0.0,1.2712,1.3745,1.5037,1.5903,1.6158,1.6786,1.7373,1.7833,0.0,0.0,0.0,0.0,0.0,0.0,0.0,0.0,0.0,0.0,0.0,0.0,0.0,0.0,0.0,0.0,0.0,0.0,0.0,0.0,0.0,0.0,0.0,1.0932,0.0,0.0,0.0,0.0,0.0,0.0,0.0,0.0,0.0,0.0,0.0,0.0,0.0,0.0,0.0,0.0,0.0,0.0,0.0,0.0,0.0,0.0,0.0,0.0,0.0,0.0,0.0,0.0,0.0,0.0,0.0,0.0,0.0,0.0,0.0,1.2187,1.1929,1.2378,1.2709,1.2709,1.2709,1.2936,1.3455,1.301,1.2936,1.3455,1.3046,1.3119,1.3797,1.3411,1.3288,1.3382,1.3011,1.2682,1.2418,1.2462,1.2352,1.2094,1.2315,1.2565,1.2828,1.3419,1.3825,1.4093,1.4453,1.431,1.3861,1.3586,1.3477,1.3462,1.3379,1.3317,1.3393,0.0,0.0,0.0,0.0,0.0,0.0,0.0,0.0,0.0,0.0,1.1965,1.2924,1.4458,1.533,1.6123,1.6864,1.7407,1.7867,1.82,1.8723,0.0,0.0,0.0,0.0,0.0,0.0,0.0,0.0,0.0,0.0,0.0,0.0,0.0,0.0,0.0,0.0,0.0,0.0,0.0,0.0,0.0,0.0,1.197,0.0,0.0,0.0,0.0,0.0,0.0,0.0,0.0,0.0,0.0,0.0,0.0,0.0,0.0,0.0,0.0,0.0,0.0,0.0,0.0,0.0,0.0,0.0,0.0,0.0,0.0,0.0,0.0,0.0,0.0,0.0,0.0,0.0,1.2452,1.2342,1.2636,1.3419,1.3492,1.3492,1.3492,1.3492,1.3492,1.3492,1.3492,1.3492,1.3492,1.3681,1.3797,1.379,1.4181,1.4389,1.4397,1.4021,1.3833,1.3833,1.3222,1.2936,1.2973,1.3542,1.3833,1.3869,1.4418,1.4641,1.4641,1.4677,1.5125,1.5745,1.4903,1.4625,1.4573,1.3864,1.3627,1.3647,0.0,0.0,0.0,0.0,0.0,0.0,0.0,0.0,0.0,0.0,1.2452,1.4127,1.4565,1.5789,1.6821,1.7442,1.7604,1.807,1.8924,0.0,0.0,0.0,0.0,0.0,0.0,0.0,0.0,0.0,0.0,0.0,0.0,0.0,0.0,0.0,0.0,0.0,0.0,0.0,0.0,0.0,0.0,0.0,1.3766,0.0,0.0,0.0,0.0,0.0,0.0,0.0,0.0,0.0,0.0,0.0,0.0,0.0,0.0,0.0,0.0,0.0,0.0,0.0,0.0,0.0,0.0,0.0,0.0,0.0,0.0,0.0,0.0,0.0,0.0,0.0,0.0,1.3419,1.32,1.3156,1.3236,1.3455,1.3492,1.3492,1.3492,1.3492,1.3492,1.3492,1.3492,1.3492,1.3492,1.3681,1.3863,1.3992,1.4281,1.4469,1.4533,1.4453,1.4382,1.4382,1.4201,1.4129,1.4129,1.431,1.4382,1.4418,1.5161,1.548,1.5515,1.6035,1.6207,1.5983,1.4731,1.4869,1.5623,1.4341,1.4261,1.4784,0.0,0.0,0.0,0.0,0.0,0.0,0.0,0.0,0.0,0.0,1.2595,1.425,1.4573,1.5683,1.6786,1.7638,1.791,1.8442,1.9431,0.0,0.0,0.0,0.0,0.0,0.0,0.0,0.0,0.0,0.0,0.0,0.0,0.0,0.0,0.0,0.0,0.0,0.0,0.0,0.0,0.0,0.0,0.0,1.453,1.4006,1.3666,1.3492,1.3579,1.355,1.3528,1.3731,0.0,0.0,0.0,0.0,0.0,0.0,0.0,0.0,0.0,0.0,0.0,0.0,0.0,0.0,0.0,0.0,0.0,0.0,0.0,0.0,0.0,0.0,0.0,0.0,1.3949,1.3949,1.3949,1.3702,1.355,1.3682,1.3697,1.3697,1.3697,1.3697,1.3638,1.3506,1.3492,1.3492,1.3492,1.3783,1.3992,1.4093,1.4353,1.4533,1.4605,1.4605,1.4605,1.4605,1.4605,1.4605,1.4605,1.4605,1.4776,1.5133,1.5586,1.5965,1.6271,1.6508,1.6637,1.6557,0.0,0.0,0.0,0.0,1.4799,1.5235,0.0,0.0,0.0,0.0,0.0,0.0,0.0,0.0,0.0,0.0,0.0,1.3781,1.453,1.533,1.6315,1.7604,1.8206,1.8911,0.0,0.0,0.0,0.0,0.0,0.0,0.0,0.0,0.0,0.0,0.0,0.0,0.0,0.0,0.0,0.0,0.0,0.0,0.0,0.0,0.0,0.0,0.0,0.0,1.4851,1.4744,1.433,1.3848,1.4502,1.4294,1.3848,1.4502,0.0,0.0,0.0,0.0,0.0,0.0,0.0,0.0,0.0,0.0,0.0,0.0,0.0,0.0,0.0,0.0,0.0,0.0,0.0,0.0,0.0,0.0,0.0,0.0,1.4708,1.4724,1.48,1.4139,1.3763,1.3983,1.4011,1.4026,1.3989,1.3982,1.385,1.3521,1.3492,1.3499,1.3535,0.0,0.0,0.0,0.0,1.4605,1.4605,1.4605,1.4605,1.4605,1.4605,1.4605,1.4605,1.4605,1.5026,1.5798,1.5903,1.635,1.7007,1.6624,1.6764,1.721,1.6548,1.597,1.5491,1.5411,1.5385,1.5429,0.0,0.0,0.0,0.0,0.0,0.0,0.0,0.0,0.0,1.0384,1.2201,1.3781,1.453,1.533,1.6315,1.7604,1.8206,1.9034,0.0,0.0,0.0,0.0,0.0,0.0,0.0,0.0,0.0,0.0,0.0,0.0,0.0,0.0,0.0,0.0,0.0,0.0,0.0,0.0,0.0,0.0,0.0,0.0,1.6367,1.5737,1.5392,1.5286,1.5428,1.5392,1.5286,1.5428,1.5498,1.5463,1.5321,0.0,0.0,0.0,0.0,0.0,0.0,0.0,0.0,0.0,0.0,0.0,0.0,0.0,0.0,0.0,0.0,0.0,0.0,0.0,0.0,1.5384,1.5498,1.5635,1.6012,1.5324,1.4588,1.4043,1.4254,1.4313,1.4042,1.3982,1.385,1.3521,1.3492,1.3572,1.3717,1.3956,1.4173,1.4353,1.4497,1.4605,1.4605,1.4605,1.4605,1.4605,1.4605,0.0,1.4605,1.4605,1.5026,1.5833,1.642,1.7104,1.7794,1.7928,1.7601,1.7053,1.6901,1.6327,1.5645,1.6257,1.6548,1.6691,0.0,0.0,0.0,0.0,0.0,0.0,0.0,0.0,0.0,0.0,1.191,1.3527,1.4482,1.4966,1.5877,1.756,1.8576,0.0,0.0,0.0,0.0,0.0,0.0,0.0,0.0,0.0,0.0,0.0,0.0,0.0,0.0,0.0,0.0,0.0,0.0,0.0,0.0,0.0,0.0,0.0,0.0,0.0,1.7364,1.6585,1.6053,1.5745,1.6167,1.6026,1.5745,1.6167,1.6306,1.6228,1.5816,1.5991,1.6237,0.0,0.0,0.0,0.0,0.0,0.0,0.0,0.0,0.0,0.0,0.0,0.0,0.0,0.0,1.5242,0.0,0.0,1.5486,1.643,1.6608,1.675,1.7213,1.7055,1.6573,1.5857,1.5327,1.4996,1.4858,1.4652,1.4275,1.3557,1.3492,1.3608,1.379,1.3992,1.4201,1.4389,1.4533,1.4605,1.4605,1.4605,1.4605,1.4605,1.4605,1.4605,1.4605,1.5026,1.5621,1.6385,1.7139,1.7867,1.8536,1.8202,1.7522,1.6715,1.6715,1.6463,1.6151,1.6637,1.6881,1.7039,0.0,0.0,0.0,0.0,0.0,0.0,0.0,0.0,0.0,0.0,0.0,1.3017,1.4338,1.4533,1.5455,0.0,0.0,0.0,0.0,0.0,0.0,0.0,0.0,0.0,0.0,0.0,0.0,0.0,0.0,0.0,0.0,0.0,0.0,0.0,0.0,0.0,0.0,0.0,0.0,0.0,0.0,0.0,1.794,1.7329,1.6724,1.6237,1.6872,1.6689,1.6237,1.6906,1.7113,1.701,1.6341,1.6585,1.6975,1.6341,1.6062,0.0,0.0,0.0,0.0,0.0,0.0,0.0,0.0,0.0,1.5983,1.6132,1.6026,1.5991,1.6132,1.6087,1.6422,1.7538,1.7775,1.8006,1.8462,1.8561,1.8457,1.8015,1.6782,1.5898,1.5821,1.5367,1.4696,1.3761,1.3637,1.3645,1.3863,1.4029,1.4245,1.4425,1.4533,1.4605,1.4605,1.4605,1.4605,1.4605,1.474,1.4812,1.4848,1.5657,1.642,1.7139,1.7901,1.8502,1.8911,1.8061,1.7223,1.6498,1.6444,1.6477,1.6637,1.6751,1.6881,1.7039,0.0,0.0,0.0,0.0,0.0,0.0,0.0,0.0,0.0,0.0,0.0,0.0,0.0,0.0,0.0,0.0,0.0,0.0,0.0,0.0,0.0,0.0,0.0,0.0,0.0,0.0,0.0,0.0,0.0,0.0,0.0,0.0,0.0,0.0,0.0,0.0,0.0,0.0,0.0,0.0,0.0,0.0,1.7974,1.7906,1.7828,1.7759,1.7828,1.7828,1.7759,1.7872,1.7872,1.7862,1.7759,1.7794,1.7862,1.7759,0.0,1.6759,1.6759,1.6237,1.5877,1.6585,1.6237,1.6062,0.0,0.0,1.6941,1.7613,1.7226,1.6975,1.7623,1.75,1.7547,1.8341,1.8821,1.9246,1.9635,1.9079,1.884,1.9563,1.8172,1.6924,1.6218,1.552,1.4917,1.4525,1.4029,1.3863,1.4065,1.4245,1.4425,1.4569,1.4605,1.4605,1.4605,1.4605,1.4605,1.4605,1.5303,1.5657,1.5692,1.6455,1.7173,1.7935,1.8654,1.8804,1.8445,1.7936,1.7399,1.6903,1.6539,1.6477,1.6637,1.6751,1.6881,1.7039,0.0,0.0,0.0,0.0,0.0,0.0,0.0,0.0,0.0,0.0,0.0,0.0,0.0,0.0,0.0,0.0,0.0,0.0,0.0,0.0,0.0,0.0,0.0,0.0,0.0,0.0,0.0,0.0,0.0,0.0,0.0,0.0,0.0,0.0,0.0,0.0,0.0,0.0,0.0,0.0,0.0,0.0,1.8008,1.8008,1.8008,1.8008,1.8008,1.8008,0.0,0.0,1.8008,1.8008,1.8008,1.8008,1.8008,1.8008,1.7794,0.0,1.7545,1.7295,0.0,0.0,1.7116,1.6846,1.7503,1.7403,1.7293,1.758,1.7586,1.7613,1.794,1.8072,1.833,0.0,1.9375,1.9842,2.0397,1.985,1.9439,1.9681,1.8757,1.7816,1.7045,1.6464,1.5908,1.5294,1.4617,1.441,1.474,1.4812,1.4776,1.4605,1.5062,1.5062,1.4605,1.4605,1.4848,1.5303,1.5621,1.6,1.6455,1.7207,1.7935,1.8654,1.8965,1.8839,1.8361,1.8185,1.7812,1.7399,1.7213,1.719,1.7177,1.6809,1.6825,1.7011,0.0,0.0,0.0,0.0,0.0,0.0,0.0,0.0,0.0,0.0,0.0,0.0,0.0,0.0,0.0,0.0,0.0,0.0,0.0,0.0,0.0,0.0,0.0,0.0,0.0,0.0,0.0,0.0,0.0,0.0,0.0,0.0,0.0,0.0,0.0,0.0,0.0,0.0,0.0,0.0,0.0,0.0,1.7725,1.7906,1.8008,1.8008,1.8008,1.8008,0.0,0.0,1.8008,1.8008,1.8008,1.8008,1.8008,1.8008,1.8008,1.7988,1.7871,0.0,0.0,1.7686,1.7432,1.7236,1.7353,1.7383,1.7422,1.7529,1.7803,1.8008,1.8076,1.835,1.8779,1.9301,1.9588,1.994,2.0543,2.0143,1.9701,1.9367,1.9006,1.8488,1.78,1.7011,1.6411,1.6062,1.5242,1.4903,1.5169,1.5515,1.5338,1.4605,1.5374,1.5409,1.4605,1.4812,1.524,1.5798,1.621,1.6698,1.7242,1.7969,1.8586,1.9108,1.9108,1.8911,1.859,1.8465,1.8195,1.7874,1.775,1.7699,1.7657,1.7092,1.7093,1.732,0.0,0.0,0.0,0.0,0.0,0.0,0.0,0.0,0.0,0.0,0.0,0.0,0.0,0.0,0.0,0.0,0.0,0.0,0.0,0.0,0.0,0.0,0.0,0.0,0.0,0.0,0.0,0.0,0.0,0.0,0.0,0.0,0.0,0.0,0.0,0.0,0.0,0.0,0.0,0.0,0.0,0.0,1.701,1.7725,1.8008,1.8008,1.8008,0.0,0.0,0.0,1.8008,1.8008,1.8008,1.8008,0.0,1.8008,1.8008,0.0,0.0,0.0,1.7305,1.6843,1.6726,1.6833,1.7285,1.7383,1.75,1.791,1.7998,1.8076,1.8236,1.8453,1.8825,1.9492,1.9426,1.9453,1.9873,1.9738,1.9351,1.8711,1.8978,1.8938,0.0,1.6733,1.6062,1.6793,1.5824,1.5196,1.5204,1.6245,1.6175,1.4641,1.5374,1.5409,1.4605,1.5374,1.5762,1.5833,1.7242,1.7935,1.8003,1.8721,1.9065,1.9108,1.9108,1.9098,1.9046,1.86,1.8403,1.8319,1.7864,1.7699,1.7699,1.7668,1.7893,1.8114,0.0,0.0,0.0,0.0,0.0,0.0,0.0,0.0,0.0,0.0,0.0,0.0,0.0,0.0,0.0,0.0,0.0,0.0,0.0,0.0,0.0,0.0,0.0,0.0,0.0,0.0,0.0,0.0,0.0,0.0,0.0,0.0,0.0,0.0,0.0,0.0,0.0,0.0,0.0,0.0,0.0,0.0,1.6202,1.6975,1.726,1.7329,0.0,0.0,0.0,0.0,0.0,0.0,1.8008,0.0,0.0,1.8008,0.0,0.0,0.0,0.0,1.6882,1.6736,1.6514,1.6406,1.6846,1.6953,1.707,1.751,1.7812,1.8008,1.8076,1.8159,1.8271,1.8497,1.8717,1.8942,1.9268,1.9195,1.9092,1.9014,1.8848,0.0,0.0,0.0,0.0,1.7818,1.6524,1.5798,1.593,1.6402,1.6053,1.4641,1.586,1.6175,1.5409,1.5657,1.628,1.7276,1.8273,1.8721,1.8731,1.8998,1.9108,1.9108,1.9108,1.9108,1.9088,1.8932,1.887,1.8859,1.8671,1.862,1.862,1.862,1.8749,1.8828,0.0,0.0,0.0,0.0,0.0,0.0,0.0,0.0,0.0,0.0,0.0,0.0,0.0,0.0,0.0,0.0,0.0,0.0,0.0,0.0,0.0,0.0,0.0,0.0,0.0,0.0,0.0,0.0,0.0,0.0,0.0,0.0,0.0,0.0,0.0,0.0,0.0,0.0,0.0,0.0,0.0,0.0,1.5384,1.6158,1.6655,0.0,0.0,0.0,0.0,0.0,0.0,0.0,0.0,0.0,0.0,0.0,0.0,0.0,0.0,1.6709,1.6455,1.6268,1.6045,1.5986,1.656,1.6697,1.6863,1.749,1.7822,1.7959,1.787,1.7817,1.7817,1.7841,1.7871,1.8135,1.8681,1.8616,1.8644,1.8927,1.8822,1.864,0.0,0.0,0.0,1.8212,1.6837,1.6097,1.6306,1.6498,1.5983,1.4641,1.6105,1.6411,1.5374,1.5939,1.6793,1.8003,1.8754,1.9108,1.9108,1.9108,1.9108,1.9108,1.9108,1.9108,1.9108,1.9108,1.9108,1.9108,1.9108,1.9108,1.9131,1.9363,1.9396,1.9203,0.0,0.0,0.0,0.0,0.0,0.0,0.0,0.0,0.0,0.0,0.0,0.0,0.0,0.0,0.0,0.0,0.0,0.0,0.0,0.0,0.0,0.0,0.0,0.0,0.0,0.0,0.0,0.0,0.0,0.0,0.0,0.0,0.0,0.0,0.0,0.0,0.0,0.0,0.0,0.0,0.0,0.0,1.4601,1.5349,0.0,0.0,0.0,0.0,0.0,0.0,0.0,0.0,0.0,0.0,0.0,0.0,0.0,1.7171,1.6349,1.6114,1.5987,1.5547,1.5449,1.5674,1.6502,1.6697,1.6941,1.7803,1.7978,1.7875,0.0,0.0,1.737,1.7513,1.7049,1.7047,1.8051,1.8041,1.8059,0.0,0.0,0.0,0.0,0.0,0.0,1.8042,0.0,1.6114,1.6341,1.6507,1.5983,1.4713,1.614,1.6175,1.4677,1.6202,1.731,1.8003,1.8754,1.9108,1.9108,1.9108,1.9108,1.9108,1.9108,1.9108,1.9108,1.9108,1.9108,1.9108,1.9108,1.9108,1.9164,1.9846,1.9791,1.9311,0.0,0.0,0.0,0.0,0.0,0.0,0.0,0.0,0.0,0.0,0.0,0.0,0.0,0.0,0.0,0.0,0.0,0.0,0.0,0.0,0.0,0.0,0.0,0.0,0.0,0.0,0.0,0.0,0.0,0.0,0.0,0.0,0.0,0.0,0.0,0.0,0.0,0.0,0.0,0.0,0.0,0.0,1.3876,0.0,0.0,0.0,0.0,0.0,0.0,0.0,0.0,0.0,0.0,0.0,1.7519,0.0,0.0,1.6457,1.6533,1.6318,1.6065,1.5958,1.5928,1.6075,1.657,1.6697,1.6853,1.7432,1.7539,1.7445,0.0,0.0,0.0,1.6613,1.6493,0.0,1.6917,1.7597,0.0,1.819,0.0,1.9008,1.8808,1.8741,0.0,0.0,1.6966,1.6481,1.7088,1.642,1.586,1.5515,1.6411,1.6446,1.5515,1.6966,1.7823,1.8003,1.8754,1.9108,1.9108,1.9108,1.9108,1.9108,1.9108,1.9108,1.9108,1.9108,1.9108,1.9108,1.9108,1.9108,1.9164,1.9846,1.9998,1.9901,0.0,0.0,0.0,0.0,0.0,0.0,0.0,0.0,0.0,0.0,0.0,0.0,0.0,0.0,0.0,0.0,0.0,0.0,0.0,0.0,0.0,0.0,0.0,0.0,0.0,0.0,0.0,0.0,0.0,0.0,0.0,0.0,0.0,0.0,0.0,0.0,0.0,0.0,0.0,0.0,0.0,0.0,0.0,0.0,0.0,0.0,0.0,0.0,0.0,0.0,0.0,1.8008,1.8008,1.7715,1.7344,1.7148,0.0,1.6367,1.6426,1.6396,1.6309,1.6144,1.6095,1.6163,1.6387,1.6436,1.6562,1.7002,1.71,0.0,0.0,0.0,0.0,0.0,0.0,0.0,1.6587,1.7338,1.7942,0.0,1.8763,0.0,1.8808,1.8707,1.8583,0.0,1.7079,1.662,1.7373,1.6009,1.5374,1.5798,1.6524,1.6862,1.6759,1.7276,1.7687,1.8003,1.8754,1.9108,1.9108,1.9108,1.9108,1.9108,1.9108,1.9108,1.9108,1.9108,1.9108,1.9108,1.9108,1.9108,1.9164,1.9846,2.0096,2.0128,0.0,0.0,0.0,0.0,0.0,0.0,0.0,0.0,0.0,0.0,0.0,0.0,0.0,0.0,0.0,0.0,0.0,0.0,0.0,0.0,0.0,0.0,0.0,0.0,0.0,0.0,0.0,0.0,0.0,0.0,0.0,0.0,0.0,0.0,0.0,0.0,0.0,0.0,0.0,0.0,0.0,0.0,0.0,0.0,0.0,0.0,0.0,0.0,0.0,0.0,1.7398,1.8008,1.8008,1.7686,1.7227,1.6814,1.6658,1.6572,1.6271,1.6475,1.6677,1.629,1.6183,1.6163,1.6105,1.6095,1.6222,1.6609,0.0,1.6592,1.6173,1.6095,1.6018,1.5781,0.0,1.5986,1.6655,1.7134,1.7636,1.8237,1.8735,1.8969,1.8831,1.864,1.8448,1.8236,1.7148,1.6768,1.7373,1.5621,1.4955,1.5762,1.6315,1.6932,1.7687,1.7173,1.7207,1.7857,1.8687,1.9108,1.9108,1.9108,1.9108,1.9108,1.9108,1.9108,1.9108,1.9108,1.9108,1.9108,1.9108,1.9108,1.9164,1.9846,2.0096,2.0128,0.0,0.0,0.0,0.0,0.0,0.0,0.0,0.0,0.0,0.0,0.8612,0.8612,0.0,0.0,0.0,0.0,0.0,0.0,0.0,0.0,0.0,0.0,0.0,0.0,0.0,0.0,0.0,0.0,0.0,0.0,0.0,0.0,0.0,0.0,0.0,0.0,0.0,0.0,0.0,0.0,0.0,0.0,0.0,0.0,0.0,0.0,0.0,0.0,0.0,0.0,1.7398,1.8008,1.8008,1.7447,1.6804,1.6726,1.6465,1.6271,1.6502,1.6934,1.7168,1.6697,1.659,1.6523,1.6183,1.6095,0.0,0.0,0.0,1.6592,1.6173,1.6095,0.0,1.5897,0.0,0.0,0.0,0.0,1.7265,0.0,0.0,0.0,0.0,0.0,0.0,0.0,1.7604,1.7432,1.7407,1.6219,1.5621,1.5798,1.5267,1.5374,1.6175,1.6655,1.6966,1.7104,1.8452,1.9108,1.9108,1.9108,1.9108,1.9108,1.9108,1.9108,1.9108,1.9108,1.9108,1.9108,1.9108,1.9108,1.9164,1.9846,2.0096,2.0193,0.0,0.0,0.0,0.0,0.0,0.0,0.0,0.8612,0.8612,0.8612,0.8612,0.8612,0.8612,0.8612,0.0,0.0,0.0,0.0,0.0,0.0,0.0,0.0,0.0,0.0,0.0,0.0,0.0,0.0,0.0,0.0,0.0,0.0,0.0,0.0,0.0,0.0,0.0,0.0,0.0,0.0,0.0,0.0,0.0,0.0,0.0,0.0,0.0,0.0,0.0,0.0,1.6481,1.751,1.7872,1.7389,1.6697,1.6697,1.6551,1.6455,1.6648,1.7051,1.7275,1.6804,1.6531,1.6269,1.585,0.0,0.0,0.0,0.0,1.6592,1.6173,0.0,0.0,0.0,0.0,0.0,0.0,0.0,0.0,0.0,0.0,0.0,0.0,0.0,0.0,1.8022,1.809,1.7954,1.7579,1.6802,1.621,1.5798,1.5026,1.5161,1.635,1.635,1.6524,1.6897,1.8003,1.8519,1.8553,1.8931,1.9108,1.9108,1.9108,1.9108,1.9108,1.9108,1.9108,1.9108,1.9108,1.9108,1.9131,1.9462,1.9813,2.0096,0.0,0.0,0.0,0.0,0.0,0.0,0.0,0.8612,0.8612,0.8612,0.8612,0.8612,0.8612,0.8612,0.8612,0.0,0.0,0.0,0.0,0.0,0.0,0.0,0.0,0.0,0.0,0.0,0.0,0.0,0.0,0.0,0.0,0.0,0.0,0.0,0.0,0.0,0.0,0.0,0.0,0.0,0.0,0.0,0.0,0.0,0.0,0.0,0.0,0.0,0.0,0.0,1.5411,1.655,1.726,1.7148,1.6697,1.6697,1.6638,1.656,1.656,1.6904,1.7139,1.6699,1.6328,1.6007,1.5625,1.585,0.0,0.0,1.6631,1.6758,1.6447,0.0,0.0,0.0,0.0,0.0,0.0,0.0,0.0,0.0,0.0,0.0,0.0,0.0,0.0,1.7954,1.792,1.7818,1.7535,1.6975,1.6315,1.5551,1.4919,1.5196,1.6411,1.6,1.607,1.6689,1.7584,1.8003,1.8037,1.8754,1.9108,1.9108,1.9108,1.9108,1.9108,1.9108,1.9108,1.9108,1.9108,1.9108,1.9108,1.9108,1.9429,1.9846,0.0,0.0,0.0,0.0,0.0,0.0,0.0,0.8612,0.8612,0.8612,0.8612,0.8612,0.8612,0.8612,0.8612,0.0,0.0,0.0,0.0,0.0,0.0,0.0,0.0,0.0,0.0,0.0,0.0,0.0,0.0,0.0,0.0,0.0,0.0,0.0,0.0,0.0,0.0,0.0,0.0,0.0,0.0,0.0,0.0,0.0,0.0,0.0,0.0,0.0,0.0,0.0,0.0,1.4958,1.5666,1.6254,1.6697,1.6697,0.0,0.0,1.6153,1.6445,1.6658,1.6271,1.6124,1.6085,1.6046,0.0,0.0,1.7132,1.7295,1.7314,1.7298,0.0,0.0,0.0,0.0,0.0,0.0,0.0,0.0,0.0,0.0,0.0,0.0,0.0,0.0,1.6846,1.6324,1.6315,1.6932,1.628,1.5551,1.4748,1.4641,1.4669,1.4812,1.548,1.5833,1.5903,1.731,1.8003,1.8037,1.8754,1.9108,1.9108,1.9108,1.9108,1.9108,1.9108,1.9108,1.9108,1.9108,1.9108,1.9108,1.9108,1.9131,1.9264,0.0,0.0,0.0,0.0,0.0,0.0,0.8612,0.8612,0.8612,0.8612,0.8612,0.8612,0.8612,0.8612,0.8612,0.0,0.0,0.0,0.0,0.0,0.0,0.0,0.0,0.0,0.0,0.0,0.0,0.0,0.0,0.0,0.0,0.0,0.0,0.0,0.0,0.0,0.0,0.0,0.0,0.0,0.0,0.0,0.0,0.0,0.0,0.0,0.0,0.0,0.0,0.0,0.0,0.0,1.4958,1.5351,0.0,0.0,1.6246,1.6406,1.6163,1.6222,1.6289,1.6134,1.5899,1.5674,1.5674,0.0,0.0,1.6924,1.7402,1.7686,1.7432,0.0,0.0,0.0,0.0,0.0,0.0,0.0,0.0,0.0,0.0,0.0,0.0,0.0,0.0,1.7784,1.6941,1.6594,1.6862,1.621,1.5444,1.4641,1.4605,1.4605,1.4605,1.4919,1.5098,1.5098,1.6175,1.6906,1.7345,1.8104,1.8687,1.9108,1.9108,1.9108,1.9108,1.9108,1.9108,1.9108,1.9108,1.9108,1.9108,1.9108,1.9108,1.9131,0.0,0.0,0.0,0.0,0.0,0.8612,0.8612,0.8612,0.8612,0.8612,0.8612,0.8612,0.8612,0.8612,0.8612,0.8612,0.0,0.0,0.0,0.0,0.0,0.0,0.0,0.0,0.0,0.0,0.0,0.0,0.0,0.0,0.0,0.0,0.0,0.0,0.0,0.0,0.0,0.0,0.0,0.0,0.0,0.0,0.0,0.0,0.0,0.0,0.0,0.0,0.0,0.0,0.0,0.0,0.0,0.0,0.0,0.0,1.5978,1.6174,1.6122,1.5997,1.5899,1.5899,1.5732,1.5644,0.0,0.0,0.0,1.7015,1.7388,1.7639,1.7584,0.0,0.0,0.0,0.0,0.0,0.0,0.0,0.0,0.0,0.0,0.0,0.0,0.0,1.7954,1.8539,1.7113,1.6411,1.6862,1.593,1.5133,1.4605,1.4605,1.4605,1.4605,1.4605,1.4605,1.4605,1.5409,1.607,1.6629,1.755,1.8273,1.8798,1.8998,1.9108,1.9108,1.9108,1.9108,1.9108,1.9108,1.9108,1.9108,1.9108,1.9108,1.9108,0.0,0.0,0.0,0.0,0.0,0.0,0.8612,0.8612,0.8612,0.8612,0.8612,0.8612,0.8612,0.8612,0.8612,0.8612,0.0,0.0,0.0,0.0,0.0,0.0,0.0,0.0,0.0,0.0,0.8612,0.8612,0.8828,0.0,0.0,0.0,0.0,0.0,0.0,0.0,0.0,0.0,0.0,0.0,0.0,0.0,0.0,0.0,0.0,0.0,0.0,0.0,0.0,0.0,0.0,0.0,0.0,0.0,0.0,0.0,1.5592,1.5096,1.5872,1.5752,1.542,1.542,1.5732,1.6202,0.0,0.0,0.0,1.7731,1.7398,1.7148,1.7862,0.0,0.0,0.0,0.0,0.0,0.0,0.0,0.0,0.0,0.0,0.0,0.0,0.0,1.7001,1.8674,1.6202,0.0,1.6828,1.5338,1.4461,1.4605,1.4605,1.4605,1.4605,1.4605,1.4605,1.4605,1.5409,1.5798,1.5868,1.7345,1.8003,1.8037,1.8787,1.9108,1.9108,1.9108,1.9108,1.9108,1.9108,1.9108,1.9108,1.9108,1.9108,1.9108,0.0,0.0,0.0,0.0,0.0,0.0,0.0,0.8612,0.8612,0.8612,0.8612,0.8612,0.8612,0.8612,0.8612,0.8612,0.0,0.0,0.0,0.0,0.0,0.0,0.0,0.0,0.0,0.0,0.8828,0.8828,0.9043,0.9174,0.9174,0.0,0.0,0.0,0.0,0.0,0.0,0.0,0.0,0.0,0.0,0.0,0.0,0.0,0.0,0.0,0.0,0.0,0.0,0.0,0.0,0.0,0.0,0.0,0.0,0.0,0.0,0.0,1.6372,1.6385,1.6287,1.6287,1.6385,1.6531,1.6668,0.0,0.0,0.0,1.7634,0.0,0.0,0.0,0.0,0.0,0.0,0.0,0.0,0.0,0.0,0.0,0.0,0.0,0.0,0.0,1.6932,1.8472,1.6105,1.5267,1.6828,1.5303,1.4425,1.4461,1.4461,1.4461,1.4461,1.4569,1.4605,1.4605,1.4848,1.5275,1.5833,1.6793,1.7242,1.731,1.8553,1.8798,1.8385,1.8898,1.9108,1.9108,1.9108,1.9108,1.9108,1.9108,1.9108,1.9108,0.0,0.0,0.0,0.0,0.0,0.0,0.0,0.8767,0.8767,0.8767,0.8706,0.8662,0.8662,0.8649,0.8612,0.8612,0.0,0.0,0.0,0.0,0.0,0.0,0.0,0.0,0.0,0.8955,0.8955,0.9257,0.9305,0.9262,0.9174,0.9432,0.9519,0.0,0.0,0.0,0.0,0.0,0.0,0.0,0.0,0.0,0.9795,0.0,0.0,0.0,0.0,0.0,0.0,0.0,0.0,0.0,0.0,0.0,0.0,0.0,0.0,0.0,0.0,1.6824,1.6697,1.6697,1.6824,0.0,0.0,0.0,0.0,0.0,0.0,0.0,0.0,0.0,0.0,0.0,0.0,0.0,0.0,0.0,0.0,0.0,0.0,0.0,0.0,1.7226,1.7157,1.8414,1.649,1.5719,1.6828,1.5436,1.4525,1.4389,1.4317,1.4317,1.4389,1.4461,1.4533,1.4605,1.4605,1.4848,1.5374,1.614,1.649,1.6559,1.7765,1.8003,0.0,1.8375,1.8687,1.8721,1.8998,1.9108,1.9108,1.9108,1.9108,1.9108,0.0,0.0,0.0,0.0,0.0,0.0,0.0,0.0,0.9096,0.9096,0.895,0.884,0.884,0.8702,0.8649,0.8649,0.0,0.0,0.0,0.0,0.0,0.0,0.0,0.0,0.0,0.913,0.913,0.9946,0.9519,0.9174,0.8955,0.9646,0.9864,0.9646,0.9646,0.9777,0.9994,0.9994,0.9994,0.9994,0.9994,0.9994,0.0,0.0,0.0,0.0,0.0,0.0,0.0,0.0,0.0,0.0,0.0,0.0,0.0,0.0,0.0,0.0,0.0,0.0,0.0,0.0,0.0,0.0,0.0,0.0,0.0,0.0,0.0,0.0,0.0,0.0,0.0,0.0,0.0,0.0,0.0,0.0,0.0,0.0,0.0,0.0,1.823,1.7579,1.751,1.8414,1.7035,1.6341,1.6828,1.5569,1.4697,1.4389,1.4173,1.4173,1.4389,1.4397,1.4461,1.4605,1.4605,1.4605,1.4641,1.5444,1.5762,1.5762,1.6559,1.6897,1.6932,1.7628,1.7969,1.8138,1.8721,1.8965,1.9008,1.8965,1.8965,1.9031,0.0,0.0,0.0,0.0,0.0,0.0,0.0,0.0,0.0,0.0,0.906,0.9031,0.9031,0.8999,0.8974,0.0,0.0,0.0,0.0,0.0,0.0,0.0,0.0,0.0,0.0,0.9994,0.9994,1.0207,0.9607,0.9345,0.9432,0.9602,0.9777,0.9907,0.9907,0.9951,0.9994,0.9994,0.9994,0.9994,0.9994,0.9994,0.0,0.0,0.0,0.0,1.0741,1.137,0.0,0.0,0.0,0.0,0.0,0.0,0.0,0.0,1.5242,0.0,0.0,0.0,0.0,0.0,0.0,0.0,0.0,0.0,0.0,0.0,0.0,0.0,0.0,0.0,0.0,0.0,0.0,0.0,0.0,0.0,0.0,0.0,0.0,1.7582,1.8037,1.6985,1.6846,1.8236,1.6018,1.5144,1.6376,1.5073,1.4238,1.4173,1.3964,1.4036,1.4389,1.4497,1.4569,1.4605,1.4605,1.4605,1.4641,1.5444,1.5444,1.4955,1.6306,1.6897,1.6897,1.707,1.7833,1.8754,1.7789,1.7755,1.8172,1.7619,1.7755,1.8273,0.0,0.0,0.0,0.0,0.0,0.0,0.0,0.0,0.0,0.0,0.0,0.0,0.0,0.0,0.0,0.0,0.0,0.0,0.0,0.0,0.0,0.0,0.0,0.0,1.1703,1.1316,1.1268,1.1703,1.0636,1.0077,1.0033,0.9864,0.9777,0.982,0.9951,0.9951,0.982,0.9951,0.9994,0.9994,0.9994,0.0,0.0,0.0,0.0,0.0,1.0594,1.1185,0.0,1.2396,1.2995,1.3492,0.0,0.0,0.0,0.0,1.4887,0.0,0.0,0.0,0.0,0.0,0.0,0.0,0.0,0.0,0.0,0.0,0.0,0.0,0.0,0.0,0.0,0.0,0.0,0.0,0.0,0.0,0.0,0.0,0.0,1.7764,0.0,1.7054,1.6941,1.8202,1.6167,1.5251,1.6237,1.5037,1.4302,1.4245,1.4029,1.4109,1.4389,1.4389,1.4461,1.4605,1.4605,1.4605,1.4605,1.5062,1.5026,1.4641,1.5471,1.586,1.586,1.6245,1.6862,1.755,1.707,1.7139,1.7448,1.7035,1.7139,1.7491,0.0,0.0,0.0,0.0,0.0,0.0,0.0,0.0,0.0,0.0,0.0,0.0,0.0,0.0,0.0,0.0,0.0,0.0,0.0,0.0,0.0,0.0,0.0,1.2211,1.3154,1.2547,1.2547,1.3197,1.1666,1.0766,1.0419,1.0077,0.982,0.9689,0.9907,0.9864,0.9689,0.9907,0.9994,0.9994,0.9994,0.0,0.0,0.0,0.0,0.0,0.0,0.0,0.0,1.2298,1.2917,1.3492,1.3492,0.0,0.0,0.0,0.0,0.0,0.0,0.0,0.0,0.0,0.0,0.0,0.0,0.0,0.0,0.0,0.0,0.0,0.0,0.0,0.0,0.0,0.0,0.0,0.0,0.0,0.0,0.0,1.8008,0.0,1.8008,1.7329,1.7285,1.8202,1.655,1.5745,1.6167,1.51,1.4446,1.4317,1.4137,1.4137,1.4353,1.4209,1.431,1.4605,1.4569,1.4569,1.4569,1.4569,1.4569,1.4569,1.4569,1.4641,1.482,1.5382,1.5762,1.6009,1.642,1.662,1.6724,1.6585,1.662,1.6759,0.0,0.0,0.0,0.0,0.0,0.0,0.0,0.0,0.0,0.0,0.0,0.0,0.0,0.0,0.0,0.0,0.0,0.0,0.0,0.0,0.0,0.0,1.2188,1.2052,1.2223,1.2857,1.2857,1.2223,1.1149,1.0337,0.9728,0.9689,0.9777,0.9951,0.9994,0.9994,0.9951,0.9994,0.9994,0.9994,0.9994,0.0,0.0,0.0,0.0,0.0,0.0,0.0,0.0,1.1814,1.2599,1.3492,1.3492,0.0,0.0,0.0,0.0,0.0,1.4887,0.0,0.0,0.0,0.0,0.0,0.0,0.0,0.0,0.0,0.0,0.0,0.0,0.0,0.0,0.0,0.0,0.0,0.0,0.0,0.0,1.8008,0.0,1.8008,1.8008,1.7329,1.7217,1.7974,1.6018,1.5065,1.5745,1.4589,1.3891,1.3899,1.3863,1.3928,1.4129,1.4281,1.4425,1.4605,1.4461,1.4425,1.4425,1.4425,1.4425,1.4425,1.4425,1.4883,1.5586,1.5026,1.5551,1.662,1.5401,1.5374,1.5903,1.5196,1.5374,1.607,0.0,0.0,0.0,0.0,0.0,0.0,0.0,0.0,0.0,0.0,0.0,0.0,0.0,0.0,0.0,0.0,0.0,0.0,0.0,0.0,0.0,1.2494,1.3237,1.376,1.4087,1.4353,1.4272,1.3851,1.2942,1.2345,1.2003,1.0977,1.0593,1.0679,1.0212,0.9994,0.9994,0.9994,0.9994,0.9994,0.0,0.0,0.0,0.0,0.0,0.0,0.0,0.0,0.0,0.0,1.2517,1.3492,1.3492,0.0,0.0,0.0,0.0,0.0,1.4966,1.5702,0.0,0.0,0.0,0.0,0.0,0.0,0.0,0.0,0.0,0.0,0.0,0.0,0.0,0.0,0.0,0.0,1.8178,1.8236,1.8245,0.0,0.0,1.8008,1.8008,1.7329,1.7226,1.794,1.6271,1.5349,1.5675,1.476,1.4101,1.379,1.3797,1.3899,1.4093,1.4072,1.4145,1.431,1.4281,1.4245,1.4245,1.4245,1.4317,1.4389,1.4389,1.4677,1.5133,1.474,1.5018,1.5578,1.4883,1.482,1.5098,1.4748,1.4812,1.5204,0.0,0.0,0.0,0.0,0.0,0.0,0.0,0.0,0.0,0.0,0.0,0.0,0.0,0.0,0.0,0.0,0.0,0.0,0.0,0.0,1.2605,1.2883,1.431,1.5226,1.5569,1.5538,1.5378,1.5082,1.444,1.4013,1.3753,1.2303,1.1494,1.1284,1.0593,1.0207,0.9994,0.9994,0.9994,0.9994,0.0,0.0,0.0,0.0,0.0,0.0,0.0,0.0,0.0,0.0,0.0,0.0,0.0,0.0,0.0,0.0,1.3492,1.3811,1.5286,1.571,1.6062,0.0,0.0,0.0,0.0,0.0,0.0,0.0,0.0,0.0,0.0,0.0,0.0,0.0,0.0,1.8516,1.8371,1.8347,1.8269,1.8076,1.8042,1.8008,1.8008,1.751,1.7398,1.7974,1.6733,1.5886,1.571,1.4994,1.433,1.3754,1.3717,1.3783,1.3956,1.3819,1.3855,1.4093,1.4057,1.4029,1.4029,1.4093,1.4165,1.4317,1.4397,1.4461,1.4605,1.4605,1.4605,1.4605,1.4605,1.4605,1.4605,1.4605,1.4605,1.4605,0.0,0.0,0.0,0.0,0.0,0.0,0.0,0.0,0.0,0.0,0.0,0.0,0.0,0.0,0.0,0.0,0.0,0.0,0.0,0.0,1.3519,1.5427,1.5385,1.5064,1.4589,1.5447,1.534,1.4181,1.4139,1.3669,1.2802,1.2674,1.2126,1.1284,1.1241,1.0766,0.9994,0.9994,0.9994,0.9994,0.9994,0.0,0.0,0.0,0.0,0.0,0.0,0.0,0.0,0.0,0.0,0.0,0.0,0.0,0.0,0.0,0.0,1.3811,1.5286,1.571,1.6062,1.7613,0.0,0.0,0.0,0.0,0.0,0.0,0.0,0.0,0.0,0.0,0.0,0.0,0.0,1.8707,1.8516,0.0,1.8438,1.8303,1.811,1.8008,1.8008,1.794,1.794,1.8008,1.726,1.6481,1.5745,1.4994,1.4258,1.3528,1.3528,1.3535,1.3528,1.3535,1.371,1.4093,1.3891,1.3826,1.3826,1.3992,1.4093,1.4129,1.4317,1.4461,1.4605,1.4605,1.4605,1.4605,1.4605,1.4605,1.4605,1.4605,1.4605,1.4605,0.0,0.0,0.0,0.0,0.0,0.0,0.0,0.0,0.0,0.0,0.0,0.0,0.0,0.0,0.0,0.0,0.0,0.0,0.0,0.0,1.4978,1.5751,1.6261,1.638,1.6,1.5937,1.5676,1.5205,1.5007,1.4741,1.4356,1.3837,1.3366,1.2991,1.1837,1.1111,1.0766,1.0207,0.9994,0.9994,0.9994,0.9994,0.0,0.0,0.0,0.0,0.0,0.0,0.0,0.0,0.0,0.0,0.0,0.0,0.0,0.0,0.0,1.3811,1.5286,1.571,0.0,0.0,0.0,0.0,0.0,0.0,0.0,0.0,0.0,0.0,0.0,0.0,0.0,0.0,1.8741,1.8908,1.8707,1.8684,1.8573,1.8337,1.8236,1.8144,1.8008,1.8008,1.8008,1.8008,1.7329,1.655,1.5745,1.4994,1.4258,1.3528,1.3492,1.3492,1.3492,1.3492,1.3564,1.3746,1.3645,1.3608,1.3608,1.3674,1.3848,1.4093,1.4165,1.4353,1.4605,1.4605,1.4605,1.4605,1.4605,1.4605,1.4605,1.4605,1.4605,1.4605,0.0,0.0,0.0,0.0,0.0,0.0,0.0,0.0,0.0,0.0,0.0,0.0,0.0,0.0,0.0,0.0,0.0,0.0,1.3638,1.5026,1.594,1.6278,1.6943,1.7223,1.7011,1.6484,1.6118,1.5913,1.5542,1.5389,1.5389,1.4783,1.4356,1.4055,1.2772,1.2003,1.166,1.0809,1.0424,1.0381,1.0125,0.9994,0.0,0.0,0.0,0.0,0.0,0.0,0.0,0.0,0.0,0.0,0.0,0.0,0.0,0.0,0.0,0.0,1.5357,1.5886,0.0,0.0,0.0,0.0,0.0,0.0,0.0,0.0,0.0,0.0,0.0,0.0,0.0,0.0,1.8783,1.9031,1.8908,1.8841,1.8674,1.8414,1.8337,1.8202,1.8008,1.8008,1.8008,1.8008,1.7545,1.6793,1.5745,1.5207,1.451,1.3528,1.3492,1.3492,1.3492,1.3492,1.3492,1.3492,1.3492,1.3492,1.3492,1.3637,1.3848,1.4093,1.4173,1.4346,1.4605,1.4569,1.4569,1.4605,1.4605,1.4605,1.4605,1.4605,1.4605,1.4605,0.0,0.0,0.0,0.0,0.0,0.0,0.0,0.0,0.0,0.0,0.0,0.0,0.0,0.0,0.0,0.0,0.0,0.0,1.5744,1.5798,1.6278,1.7279,1.7279,1.7279,1.7279,1.7018,1.6587,1.5913,1.5549,1.5389,1.5389,1.5389,1.4957,1.4097,1.4097,1.3578,1.2632,1.1703,1.1327,1.1241,1.0381,1.0038,1.0038,0.0,0.0,0.0,0.0,0.0,0.0,0.0,0.0,0.0,0.0,0.0,0.0,0.0,1.4013,1.4744,1.5498,1.6263,0.0,0.0,0.0,0.0,0.0,0.0,0.0,0.0,0.0,0.0,0.0,0.0,0.0,1.8092,1.8666,1.9098,1.9108,1.8942,1.8741,1.8516,1.8381,1.8245,1.8008,1.8008,1.8008,1.8008,1.7974,1.7329,1.5781,1.571,1.501,1.3564,1.3492,1.3492,1.3492,1.3492,1.3492,1.3492,1.3492,1.3492,1.3528,1.392,1.4093,1.4093,1.4317,1.4461,1.4605,1.4461,1.4461,1.4605,1.4605,1.4605,1.4605,1.4605,1.4605,1.4605,0.0,0.0,0.0,0.0,0.0,0.0,0.0,0.0,0.0,0.0,0.0,0.0,0.0,0.0,0.0,0.0,0.0,0.0,1.5798,1.6466,1.699,1.7279,1.7279,1.7279,1.7279,1.7018,1.6587,1.5913,1.5818,1.5608,1.5389,1.5389,1.5257,1.4999,1.4356,1.3964,1.3626,1.2681,1.2297,1.2211,1.1278,1.1322,1.1826,0.0,0.0,0.0,0.0,0.0,0.0,0.0,0.0,0.0,0.0,0.0,0.0,0.0,1.3637,1.3985,1.4716,0.0,0.0,0.0,0.0,0.0,0.0,0.0,0.0,0.0,0.0,0.0,0.0,0.0,0.0,1.799,1.8398,1.8735,1.9056,1.9031,1.8942,1.8741,1.8674,1.8539,1.8236,1.8202,1.8144,1.8008,1.751,1.7044,1.6585,1.5525,1.4716,1.4294,1.3775,1.3492,1.3492,1.3492,1.3492,1.3492,1.3645,1.3717,1.3717,1.3826,1.4036,1.4317,1.4353,1.4461,1.4605,1.4569,1.4569,1.4605,1.4605,1.4605,1.4605,1.4605,1.4605,1.4605,0.0,0.0,0.0,0.0,0.0,0.0,0.0,0.0,0.0,0.0,0.0,0.0,0.0,0.0,0.0,0.0,0.0,0.0,0.0,1.6943,1.7279,1.7279,1.7279,1.7279,1.7279,1.7135,1.6733,1.6096,1.5972,1.5752,1.5389,1.5389,1.5389,1.5389,1.4873,1.4615,1.4573,1.362,1.3275,1.3148,1.2211,1.2211,1.2632,0.0,0.0,0.0,0.0,0.0,0.0,0.0,0.0,0.0,0.0,0.0,0.0,1.3492,1.3702,1.4122,1.4922,0.0,0.0,0.0,0.0,0.0,0.0,0.0,0.0,0.0,0.0,0.0,0.0,0.0,0.0,1.7574,1.809,1.8507,1.8787,1.8984,1.9008,1.8707,1.8741,1.864,1.8202,1.8236,1.8212,1.8008,1.7579,1.7226,1.6932,1.6018,1.5384,1.5029,1.433,1.3949,1.3949,1.3637,1.3492,1.3492,1.3608,1.3717,1.3797,1.3891,1.4029,1.4281,1.4353,1.4469,1.4533,1.4533,1.4569,1.4605,1.4605,1.4605,1.4605,1.4605,1.4605,1.4605,0.0,0.0,0.0,0.0,0.0,0.0,0.0,0.0,0.0,0.0,0.0,0.0,0.0,0.0,0.0,0.0,0.0,0.0,0.0,0.0,1.7279,1.7279,1.7279,1.7279,1.7279,1.7279,1.7011,1.6411,1.6089,1.5774,1.5389,1.5389,1.5389,1.5389,1.5389,1.5389,1.5347,1.4566,1.4223,1.4139,1.319,1.2887,1.293,1.2845,0.0,0.0,0.0,0.0,0.0,0.0,0.0,0.0,0.0,0.0,0.0,1.3492,1.3985,1.4708,0.0,0.0,0.0,0.0,0.0,0.0,0.0,0.0,0.0,0.0,0.0,0.0,0.0,1.649,1.6806,1.6977,1.7761,1.8362,1.8403,1.8808,1.8975,1.8617,1.8717,1.864,1.811,1.8212,1.8236,1.8042,1.8008,1.7725,1.7044,1.6932,1.655,1.5842,1.51,1.4673,1.4601,1.3949,1.3564,1.3492,1.3528,1.3608,1.3797,1.3992,1.4093,1.4129,1.4317,1.4425,1.4389,1.4425,1.4497,1.4605,1.4605,1.4605,1.4605,1.4605,1.4605,1.4605,0.0,0.0,0.0,0.0,0.0,0.0,0.0,0.0,0.0,0.0,0.0,0.0,0.0,0.0,0.0,0.0,0.0,0.0,0.0,0.0,1.7279,1.7279,1.7279,1.7279,1.7279,1.7279,1.7011,1.6411,1.6345,1.5987,1.5389,1.5389,1.5389,1.5389,1.5389,1.5389,1.5389,1.5215,1.5131,1.5041,1.4139,1.4223,1.4741,1.4055,1.4223,0.0,0.0,0.0,0.0,0.0,0.0,0.0,0.0,1.3492,1.3492,1.3492,1.371,1.4036,0.0,0.0,0.0,0.0,0.0,0.0,0.0,0.0,0.0,0.0,0.0,0.0,1.6316,1.6428,1.6603,1.6925,1.7482,1.7988,1.8362,1.8808,1.9075,1.8975,1.9008,1.8942,1.864,1.8516,1.8414,1.8245,1.8076,1.794,1.7759,1.7226,1.6828,1.6655,1.5886,1.5171,1.4601,1.443,1.4086,1.3492,1.3645,1.3754,1.3797,1.3992,1.4201,1.4353,1.4497,1.4497,1.4397,1.4497,1.4569,1.4605,1.4605,1.4605,1.4605,1.4605,1.4605,1.4605,0.0,0.0,0.0,0.0,0.0,0.0,0.0,0.0,0.0,0.0,0.0,0.0,0.0,0.0,0.0,0.0,0.0,0.0,0.0,0.0,0.0,1.7279,1.7279,1.7279,1.7279,1.7179,1.6865,1.6411,1.6221,0.0,0.0,0.0,0.0,1.5389,1.5389,1.5389,1.5389,1.5389,1.5465,1.5499,1.495,1.5124,1.5673,1.5068,1.5151,1.5519,1.5412,0.0,0.0,0.0,0.0,0.0,0.0,0.0,1.3645,1.3645,1.3783,1.4036,0.0,0.0,0.0,0.0,0.0,0.0,0.0,0.0,0.0,0.0,0.0,0.0,1.6374,1.6413,1.6456,1.6684,1.7265,1.7781,1.804,1.8651,1.9065,1.8975,1.9042,1.8975,1.8684,1.8549,1.8448,1.8303,1.811,1.8008,1.8008,1.7657,1.7432,1.7432,1.6689,1.6088,1.5693,1.5313,1.4752,1.4013,1.4129,1.4065,1.3797,1.3992,1.4165,1.4245,1.431,1.4425,1.4497,1.4497,1.4533,1.4605,1.4605,1.4605,1.4605,1.4605,1.4605,1.4605,0.0,0.0,0.0,0.0,0.0,0.0,0.0,0.0,0.0,0.0,0.0,0.0,0.0,0.0,0.0,0.0,0.0,0.0,0.0,0.0,0.0,1.7279,1.7279,1.7326,1.738,1.711,1.6876,1.6756,0.0,0.0,0.0,0.0,0.0,1.5389,0.0,1.5389,1.5389,1.5431,1.5541,1.5692,1.553,1.5674,1.5996,1.564,1.5569,1.5572,1.5303,1.5093,1.4844,1.4294,0.0,0.0,0.0,0.0,1.3761,1.3761,1.3891,1.4238,0.0,0.0,0.0,0.0,0.0,0.0,0.0,0.0,0.0,0.0,0.0,1.6413,1.6413,1.6413,1.6413,1.6413,1.714,1.7699,1.7699,1.8506,1.9042,1.8875,1.9008,1.8975,1.8583,1.8516,1.8448,1.8303,1.811,1.8008,1.8008,1.8008,1.8008,1.8008,1.7398,1.6966,1.6689,1.6018,1.5286,1.4394,1.443,1.423,1.3797,1.3992,1.4093,1.4093,1.4129,1.4317,1.4569,1.4461,1.4497,1.4605,1.4605,1.4605,1.4605,1.4605,1.4605,1.4605,0.0,0.0,0.0,0.0,0.0,0.0,0.0,0.0,0.0,0.0,0.0,0.0,0.0,0.0,0.0,0.0,0.0,0.0,0.0,0.0,0.0,1.7279,1.7279,1.7426,1.7628,1.7354,1.7504,1.8146,0.0,0.0,0.0,0.0,0.0,1.5389,0.0,0.0,1.5431,1.5582,1.5699,1.567,1.5604,1.5604,1.5622,1.5048,1.4935,1.5069,1.4844,1.4868,1.4956,1.4623,1.4389,0.0,0.0,0.0,1.3535,1.3535,1.3681,0.0,0.0,0.0,0.0,0.0,0.0,0.0,0.0,0.0,0.0,0.0,1.6413,1.6413,1.6413,1.6413,1.6413,1.6413,1.714,1.7699,1.7699,1.8506,1.9108,1.9065,1.9065,1.9008,1.8774,1.8617,1.8448,1.8303,1.811,1.8008,1.8008,1.8008,1.8008,1.8008,1.7896,1.7226,1.5877,1.5745,1.5002,1.3637,1.3819,1.3863,1.3797,1.3992,1.4093,1.4093,1.4281,1.4389,1.4425,1.4533,1.4569,1.4605,1.4605,1.4605,1.4605,1.4605,1.4605,1.4605,0.0,0.0,0.0,0.0,0.0,0.0,0.0,0.0,0.0,0.0,0.0,0.0,0.0,0.0,0.0,0.0,0.0,0.0,0.0,0.0,0.0,0.0,1.7527,1.7667,1.79,1.7387,1.757,0.0,0.0,0.0,0.0,1.7649,1.6935,0.0,0.0,0.0,0.0,0.0,1.5989,1.6075,1.5713,0.0,0.0,0.0,0.0,0.0,0.0,0.0,0.0,0.0,1.4249,1.4153,1.4009,0.0,0.0,0.0,0.0,0.0,0.0,0.0,0.0,0.0,0.0,0.0,0.0,0.0,0.0,0.0,1.6413,1.6413,1.6413,1.6413,1.6413,1.6413,1.714,1.7699,1.7699,1.8506,1.9108,1.9108,1.9008,1.8908,1.8808,1.8549,1.8371,1.8303,1.811,1.8008,1.8008,1.8008,1.8008,1.8008,1.8008,1.7657,1.6985,1.6585,1.5596,1.4122,1.3775,1.3681,1.3797,1.3783,1.3956,1.4281,1.4245,1.4353,1.4497,1.4497,1.4533,1.4605,1.4605,1.4605,1.4605,1.4605,1.4605,1.4629,0.0,0.0,0.0,0.0,0.0,0.0,0.0,0.0,0.0,0.0,0.0,0.0,0.0,0.0,0.0,0.0,0.0,0.0,0.0,0.0,0.0,0.0,0.0,1.7815,1.8087,1.772,1.7972,0.0,0.0,0.0,1.9404,1.9207,1.8731,0.0,1.7155,0.0,0.0,0.0,0.0,0.0,0.0,0.0,0.0,0.0,0.0,0.0,0.0,0.0,0.0,0.0,0.0,0.0,0.0,0.0,0.0,0.0,0.0,0.0,0.0,0.0,0.0,0.0,0.0,0.0,0.0,0.0,0.0,0.0,1.655,1.6508,1.6423,1.6413,1.6413,1.6413,1.714,1.7699,1.7699,1.8506,1.9108,1.9108,1.8908,1.8774,1.8741,1.8472,1.8269,1.8245,1.8076,1.8008,1.8008,1.8008,1.8008,1.8008,1.8008,1.7906,1.7725,1.6975,1.5913,1.4601,1.4049,1.3783,1.379,1.3645,1.3891,1.4389,1.4201,1.4274,1.4533,1.4425,1.4461,1.4533,1.4533,1.4569,1.4605,1.4605,1.4605,1.466,0.0,0.0,0.0,0.0,0.0,0.0,0.0,0.0,0.0,0.0,0.0,0.0,0.0,0.0,0.0,0.0,0.0,0.0,0.0,0.0,0.0,0.0,0.0,0.0,1.8087,1.8423,0.0,0.0,0.0,0.0,2.1606,2.0779,2.0382,2.0265,1.9049,1.8012,1.7302,0.0,0.0,0.0,0.0,0.0,0.0,0.0,0.0,0.0,0.0,0.0,0.0,0.0,0.0,0.0,0.0,0.0,0.0,0.0,0.0,0.0,0.0,0.0,0.0,0.0,0.0,0.0,0.0,0.0,0.0,0.0,1.6975,1.6851,1.6456,1.6413,1.6413,1.6413,1.714,1.7699,1.7699,1.8506,1.9108,1.9108,1.8908,1.8741,1.8516,1.8371,1.8202,1.8042,1.8008,1.8008,1.8008,1.8008,1.8008,1.8008,1.8008,1.7647,1.6966,1.6167,1.5384,1.4601,1.4565,1.4266,1.3797,1.379,1.4008,1.4389,1.4201,1.4209,1.4397,1.4389,1.4389,1.4425,1.4425,1.4497,1.4605,1.4605,1.4605,1.466,0.0,0.0,0.0,0.0,0.0,0.0,0.0,0.0,0.0,0.0,0.0,0.0,0.0,0.0,0.0,0.0,0.0,0.0,0.0,0.0,0.0,0.0,0.0,0.0,0.0,0.0,0.0,0.0,0.0,2.0934,2.1807,2.1492,2.1049,2.0459,1.9492,1.889,1.8621,1.8979,0.0,0.0,0.0,0.0,0.0,0.0,0.0,0.0,0.0,0.0,0.0,0.0,0.0,0.0,0.0,0.0,0.0,0.0,0.0,0.0,0.0,0.0,0.0,0.0,0.0,0.0,0.0,0.0,0.0,1.6792,1.689,1.6965,1.68,1.657,1.6467,1.6727,1.7296,1.7802,1.8112,1.8714,1.9108,1.9108,1.8908,1.8707,1.8516,1.8448,1.8313,1.8008,1.811,1.8144,1.8008,1.8008,1.8008,1.8008,1.8008,1.7647,1.6906,1.662,1.5842,1.4601,1.4601,1.4338,1.3797,1.3681,1.3819,1.4209,1.4,1.4145,1.4497,1.4317,1.431,1.4533,1.4533,1.4569,1.4605,1.4605,1.4756,1.5038,0.0,0.0,0.0,0.0,0.0,0.0,0.0,0.0,0.0,0.0,0.0,0.0,0.0,0.0,0.0,0.0,0.0,0.0,0.0,0.0,0.0,0.0,0.0,0.0,0.0,0.0,0.0,0.0,0.0,0.0,0.0,2.1807,2.1492,2.0895,2.0372,1.9972,0.0,0.0,0.0,1.8956,0.0,0.0,1.622,0.0,0.0,0.0,0.0,0.0,0.0,0.0,0.0,0.0,0.0,0.0,0.0,0.0,0.0,0.0,0.0,0.0,0.0,0.0,0.0,0.0,0.0,0.0,1.7106,1.6876,1.7181,1.742,1.7265,1.7036,1.6881,1.6986,1.7523,1.805,1.8372,1.8808,1.9108,1.9108,1.8908,1.8741,1.8607,1.8516,1.8347,1.811,1.8168,1.8144,1.8008,1.8008,1.8042,1.811,1.811,1.7896,1.7423,1.7389,1.6749,1.5552,1.5207,1.476,1.4173,1.3783,1.3783,1.4093,1.3899,1.4036,1.4418,1.4201,1.4274,1.4533,1.4533,1.4569,1.4621,1.474,1.4975,1.5245,0.0,0.0,0.0,0.0,0.0,0.0,0.0,0.0,0.0,0.0,0.0,0.0,0.0,0.0,0.0,0.0,0.0,0.0,0.0,0.0,0.0,0.0,0.0,0.0,0.0,0.0,0.0,0.0,0.0,0.0,0.0,0.0,2.1807,0.0,2.1807,2.1328,2.0576,0.0,2.1065,1.9891,0.0,1.8108,1.6313,0.0,0.0,0.0,1.4641,1.4641,0.0,1.4605,0.0,0.0,0.0,0.0,0.0,0.0,0.0,0.0,0.0,0.0,0.0,0.0,0.0,0.0,0.0,0.0,1.6958,1.7191,1.7855,1.8215,1.7771,1.7719,1.7575,1.713,1.7812,1.8414,1.8434,1.8818,1.9108,1.9108,1.8942,1.8808,1.8774,1.8506,1.8303,1.8303,1.811,1.8008,1.8008,1.8008,1.811,1.8303,1.8303,1.8371,1.8482,1.8381,1.7978,1.737,1.6446,1.5613,1.4903,1.4173,1.3928,1.4129,1.3928,1.3928,1.4093,1.4093,1.4245,1.4397,1.4397,1.4505,1.466,1.5054,1.5197,1.5308,0.0,0.0,0.0,0.0,0.0,0.0,0.0,0.0,0.0,0.0,0.0,0.0,0.0,0.0,0.0,0.0,0.0,0.0,0.0,0.0,0.0,0.0,0.0,0.0,0.0,0.0,0.0,0.0,0.0,0.0,0.0,0.0,0.0,0.0,2.1807,2.1683,2.1454,2.1693,0.0,0.0,1.9551,1.8585,0.0,0.0,0.0,0.0,0.0,1.5488,1.5374,0.0,1.4605,1.4605,0.0,0.0,0.0,0.0,0.0,0.0,1.4569,0.0,0.0,0.0,0.0,0.0,0.0,0.0,0.0,1.6208,1.6963,1.7546,1.7427,1.7834,1.8164,1.803,1.8216,1.8528,1.887,1.9025,1.9108,1.9108,1.9031,1.8908,1.8617,1.864,1.8506,0.0,1.8178,1.8212,1.8212,1.8313,1.8347,1.8303,1.8303,1.8303,1.8337,1.8303,1.791,1.7173,1.6367,1.5877,1.5658,1.4939,1.4697,1.4883,1.4848,1.4633,1.4317,1.4317,1.4425,1.4533,1.4533,1.4764,1.5046,1.5149,1.5499,1.5952,0.0,0.0,0.0,0.0,0.0,0.0,0.0,0.0,0.0,0.0,0.0,0.0,0.0,0.0,0.0,0.0,0.0,0.0,0.0,0.0,0.0,0.0,0.0,0.0,0.0,0.0,0.0,0.0,0.0,0.0,0.0,0.0,0.0,0.0,0.0,0.0,0.0,0.0,0.0,0.0,1.9743,0.0,0.0,1.7516,1.7173,0.0,0.0,0.0,1.5727,1.5275,1.4883,0.0,0.0,0.0,0.0,0.0,0.0,0.0,0.0,0.0,0.0,0.0,0.0,0.0,1.4605,1.524,1.5798,0.0,1.6508,1.7221,1.7555,1.7929,1.8324,1.8639,1.8704,1.8797,1.9067,1.9108,1.9108,1.9108,1.9042,1.8875,1.865,1.8607,1.8586,1.8513,1.8547,1.8616,1.8684,1.8694,1.8638,1.8516,1.8438,1.8405,1.8506,1.8438,1.8192,1.7799,1.6966,1.6472,1.6219,1.549,1.5054,1.4883,1.4883,1.4713,1.4513,1.4662,1.4667,1.4605,1.4605,1.4863,1.5205,1.534,1.5737,1.623,0.0,0.0,0.0,0.0,0.0,0.0,0.0,0.0,0.0,0.0,0.0,0.0,0.0,0.0,0.0,0.0,0.0,0.0,0.0,0.0,0.0,0.0,2.0186,0.0,0.0,0.0,0.0,0.0,0.0,0.0,0.0,0.0,0.0,0.0,0.0,0.0,0.0,0.0,0.0,2.0317,1.9948,1.9127,0.0,0.0,1.7731,1.7139,1.7035,1.6585,1.6035,1.5939,1.5374,0.0,0.0,0.0,0.0,0.0,1.4605,0.0,0.0,0.0,0.0,0.0,0.0,0.0,1.4605,1.5161,1.5657,1.5657,1.6245,1.6966,1.7619,1.7833,1.8104,1.8754,1.8865,1.8898,1.9065,1.9065,1.9075,1.9075,1.8875,1.8761,1.8812,1.8542,1.8596,1.9184,1.9143,1.9153,1.9294,1.9179,1.9048,1.8866,1.8687,1.8633,1.8774,1.8583,1.8583,1.8741,1.7852,1.7226,1.681,1.6088,1.5417,1.4868,1.4868,1.4928,1.5029,1.5397,1.5206,1.4668,1.47,1.5011,1.5482,1.5771,1.6186,1.658,0.0,0.0,0.0,0.0,0.0,0.0,0.0,0.0,0.0,0.0,0.0,0.0,0.0,0.0,0.0,0.0,0.0,0.0,0.0,0.0,2.1377,2.0974,2.161,0.0,0.0,0.0,0.0,0.0,0.0,0.0,0.0,0.0,0.0,0.0,0.0,0.0,0.0,0.0,0.0,1.9917,1.9834,0.0,1.8898,1.8898,1.8798,1.8586,1.8003,1.7687,1.7482,1.6897,1.6175,1.5551,0.0,0.0,0.0,1.4605,0.0,0.0,0.0,0.0,0.0,0.0,0.0,0.0,1.4605,1.4713,1.4812,1.4812,1.5444,1.607,1.621,1.6724,1.7173,1.731,1.731,1.7721,1.8931,1.8975,1.8875,1.8875,1.8674,1.8646,1.8849,1.882,1.9008,1.9481,1.9639,1.9792,2.0007,1.9915,1.9712,1.9369,1.9162,1.8912,1.8549,1.8516,1.8516,1.8549,1.7954,1.791,1.8351,1.7594,1.7499,1.7845,1.7845,1.7711,1.7504,1.7585,1.6624,1.5102,1.5372,1.6141,1.7072,1.7101,1.7787,1.8682,0.0,0.0,0.0,0.0,0.0,0.0,0.0,0.0,0.0,0.0,0.0,0.0,0.0,0.0,0.0,0.0,0.0,0.0,0.0,0.0,0.0,2.1459,2.1916,0.0,0.0,0.0,0.0,0.0,0.0,0.0,0.0,0.0,0.0,0.0,0.0,0.0,0.0,0.0,1.9965,1.9772,1.9544,0.0,1.9108,1.9108,1.9108,1.9031,1.8687,1.8307,1.7901,1.7139,1.6655,0.0,1.635,1.607,1.5754,0.0,1.5754,1.5683,0.0,0.0,0.0,1.4713,0.0,0.0,0.0,1.4605,1.4605,1.4605,1.4919,1.5303,1.5727,1.6105,1.6481,1.6828,1.6897,1.7173,1.7901,1.824,1.8529,1.8908,1.8978,1.9031,1.9173,1.9314,1.9635,2.0206,2.0632,2.0774,2.0648,2.0565,2.0324,1.9969,1.9569,1.9353,1.9353,1.913,1.913,1.9353,1.9099,1.8984,1.9034,1.8684,1.8473,1.8459,1.8459,1.8355,1.823,1.8405,1.7927,1.6977,1.6951,1.745,1.8139,1.8139,1.8653,1.9256,0.0,0.0,0.0,0.0,0.0,0.0,0.0,0.0,0.0,0.0,0.0,0.0,0.0,0.0,0.0,0.0,0.0,0.0,0.0,0.0,0.0,0.0,0.0,2.1807,0.0,0.0,0.0,0.0,0.0,0.0,0.0,0.0,0.0,0.0,0.0,0.0,0.0,0.0,0.0,1.9627,0.0,1.9108,1.9108,1.9108,1.9108,1.9108,1.9108,1.8721,1.8138,1.7516,1.7242,1.7104,1.7104,1.7001,0.0,0.0,0.0,0.0,0.0,0.0,0.0,0.0,0.0,1.4776,0.0,0.0,0.0,1.4605,0.0,0.0,0.0,0.0,0.0,0.0,0.0,0.0,0.0,1.736,0.0,1.8873,1.9191,1.9434,1.9676,2.0001,2.0417,2.0988,2.1449,2.1604,2.1232,2.1083,2.0868,2.054,2.0037,1.9925,2.0211,1.9808,1.9843,2.0211,2.0237,1.9965,1.9502,1.9502,1.9251,1.8777,1.8777,1.8824,1.8919,1.9231,1.9383,1.9307,1.8657,1.8693,1.9114,1.9114,1.931,1.9462,0.0,2.4497,0.0,0.0,0.0,0.0,0.0,0.0,0.0,0.0,0.0,0.0,0.0,0.0,0.0,0.0,0.0,0.0,2.1911,0.0,0.0,0.0,0.0,0.0,2.1807,0.0,0.0,0.0,0.0,0.0,0.0,0.0,0.0,0.0,2.1745,0.0,0.0,0.0,1.9882,0.0,1.9119,1.9108,0.0,1.9108,1.9108,1.9108,1.9108,1.9031,1.8965,0.0,1.8418,1.7867,0.0,1.7413,1.6897,1.6897,0.0,0.0,0.0,0.0,0.0,0.0,1.5657,0.0,1.474,0.0,1.4605,1.4605,0.0,0.0,0.0,0.0,0.0,0.0,0.0,0.0,1.6268,1.6698,1.7302,1.8347,1.8603,1.9163,2.037,2.0981,2.1331,2.1431,2.152,2.1596,2.1697,2.1545,2.1302,2.1015,2.0827,2.0569,2.0211,2.016,2.016,2.0211,2.0334,2.0349,2.0278,2.0278,2.0468,2.0774,2.0774,2.0998,2.1377,2.1438,2.1458,2.1296,1.9771,1.9634,2.0314,2.0314,2.0343,2.0459,0.0,0.0,0.0,0.0,0.0,0.0,0.0,0.0,0.0,0.0,0.0,0.0,0.0,0.0,0.0,0.0,0.0,2.2014,0.0,0.0,0.0,0.0,0.0,0.0,0.0,0.0,0.0,0.0,2.1807,0.0,0.0,0.0,0.0,0.0,2.1248,0.0,2.0389,0.0,1.9777,0.0,0.0,0.0,0.0,1.9108,1.9108,1.9108,1.9108,1.9108,1.9108,0.0,1.8898,0.0,0.0,0.0,0.0,0.0,0.0,0.0,0.0,0.0,0.0,0.0,0.0,0.0,1.548,0.0,1.5169,0.0,0.0,0.0,0.0,0.0,0.0,0.0,1.5086,0.0,0.0,0.0,1.7034,0.0,0.0,0.0,2.0407,2.0757,2.1146,2.1655,2.1655,2.1693,2.1807,2.1731,2.16,2.1518,2.1195,2.1055,2.1127,2.0869,2.0869,2.1127,2.1191,2.1228,2.1228,2.1228,2.1331,2.1518,2.1518,2.1621,2.1807,2.1807,2.1807,2.1731,2.1049,2.0972,2.1252,2.1252,2.1252,2.1252,0.0,0.0,0.0,0.0,0.0,0.0,0.0,0.0,0.0,0.0,0.0,0.0,2.3658,2.316,0.0,0.0,2.2224,2.1959,0.0,0.0,2.1845,0.0,0.0,0.0,0.0,0.0,0.0,0.0,0.0,0.0,0.0,0.0,0.0,0.0,0.0,2.1119,2.0983,0.0,2.0227,1.9715,2.0709,2.0516,1.9616,1.9231,1.9108,1.9108,1.9108,1.9108,1.9108,1.9108,1.9108,1.9108,1.9108,1.9108,1.9108,0.0,0.0,0.0,1.8452,0.0,0.0,0.0,0.0,0.0,0.0,0.0,0.0,0.0,0.0,0.0,0.0,0.0,0.0,0.0,0.0,1.5547,0.0,1.6126,0.0,0.0,0.0,0.0,0.0,2.0741,2.1136,2.1769,2.1807,2.1807,2.1807,2.1807,2.1807,2.1807,2.1476,2.1466,2.1797,2.1476,2.1476,2.1807,2.1807,2.1807,2.1807,2.1807,2.1807,2.1807,2.1807,2.1807,2.1807,2.1807,2.1807,2.1807,2.1807,2.1807,2.1807,2.1807,2.1645,2.1367,2.7723,2.6193,0.0,0.0,0.0,0.0,0.0,0.0,0.0,0.0,0.0,0.0,0.0,0.0,0.0,0.0,0.0,2.2289,2.2101,0.0,2.1987,0.0,0.0,2.1997,0.0,0.0,0.0,0.0,0.0,0.0,0.0,0.0,0.0,0.0,0.0,2.296,2.2502,2.1977,2.1485,2.1028,2.1092,2.106,2.0901,0.0,1.9108,1.9108,1.9108,0.0,0.0,1.9108,1.9108,1.9108,1.9108,0.0,0.0,0.0,0.0,0.0,0.0,0.0,0.0,1.8138,0.0,0.0,0.0,0.0,1.6862,0.0,0.0,0.0,0.0,0.0,0.0,0.0,0.0,0.0,0.0,0.0,0.0,0.0,0.0,0.0,0.0,2.1252,2.1769,2.1807,2.1807,2.1807,2.1807,2.1807,2.1807,2.1807,2.1797,2.1787,2.1807,2.1797,2.1797,2.1807,2.1807,2.1807,2.1807,2.1807,2.1807,2.1807,2.1807,2.1807,2.1807,2.1807,2.1807,2.1807,2.1807,2.1807,2.1807,2.1807,2.1252,2.0653,0.0,0.0,0.0,0.0,0.0,0.0,0.0,2.6384,0.0,0.0,2.5344,0.0,0.0,2.4005,2.3468,0.0,0.0,2.2365,2.2289,2.2289,0.0,0.0,0.0,2.2138,0.0,0.0,0.0,0.0,0.0,0.0,0.0,0.0,0.0,0.0,0.0,2.3094,0.0,0.0,0.0,0.0,0.0,2.1471,2.1678,0.0,2.042,2.0355,1.9911,1.9748,1.9682,1.9231,1.9108,1.9108,1.9108,1.9108,1.9108,1.9108,1.9108,1.9108,1.9108,1.9108,1.9031,1.8798,1.8721,0.0,0.0,0.0,0.0,0.0,0.0,0.0,0.0,0.0,0.0,0.0,0.0,0.0,0.0,0.0,0.0,0.0,0.0,0.0,0.0,0.0,2.1175,2.1769,2.1807,2.1807,2.1807,2.1807,2.1807,2.1807,2.1807,2.1807,2.1807,2.1807,2.1807,2.1807,2.1807,2.1807,2.1807,2.1807,2.1807,2.1807,2.1807,2.1807,2.1807,2.1807,2.1807,2.1807,2.1807,2.1807,2.1807,2.1807,2.1606,2.1405,2.9793,0.0,0.0,0.0,0.0,0.0,0.0,0.0,0.0,0.0,2.5877,0.0,2.5429,0.0,2.4289,0.0,2.3731,2.3265,2.2931,2.3191,0.0,2.244,2.2606,2.2606,0.0,0.0,0.0,0.0,0.0,2.3217,0.0,0.0,0.0,0.0,0.0,2.3862,2.3834,0.0,2.2567,0.0,0.0,2.2372,0.0,0.0,2.1628,2.1028,2.0613,2.0452,2.0387,1.9977,1.9649,1.9462,1.9462,1.9297,1.9108,1.9108,1.9108,1.9108,1.9108,1.9108,1.9108,1.9108,1.9108,1.8965,1.8486,0.0,1.8273,0.0,0.0,0.0,0.0,0.0,0.0,0.0,0.0,0.0,0.0,1.7164,0.0,0.0,0.0,0.0,0.0,2.0779,2.1213,2.1769,2.1807,2.1807,2.1807,2.1807,2.1807,2.1807,2.1807,2.1807,2.1807,2.1807,2.1807,2.1807,2.1807,2.1807,2.1807,2.1807,2.1807,2.1807,2.1807,2.1807,2.1807,2.1807,2.1807,2.1807,2.1807,2.1807,2.1807,2.1807,2.1807,2.1807,0.0,0.0,0.0,0.0,2.9492,0.0,0.0,0.0,2.7898,0.0,2.6449,2.638,2.6195,2.5687,2.5288,2.511,2.5217,2.4898,2.3927,2.4601,0.0,0.0,2.3401,2.3463,2.2542,0.0,0.0,0.0,0.0,0.0,0.0,0.0,0.0,0.0,2.5489,0.0,2.5262,2.4102,2.3628,2.3599,2.3628,2.3628,2.3599,2.3628,2.2628,2.1219,2.1187,2.1155,2.1167,2.1092,2.0677,2.0139,2.0139,1.9682,1.9142,1.9142,1.9131,1.9108,1.9108,1.9108,1.9108,1.9108,1.9108,1.9108,1.9108,1.9108,1.9108,0.0,0.0,0.0,0.0,0.0,0.0,0.0,0.0,0.0,0.0,0.0,0.0,0.0,0.0,0.0,0.0,2.1252,2.1759,2.1807,2.1807,0.0,0.0,2.1807,2.1807,2.1807,2.1807,2.1807,2.1807,2.1807,2.1807,2.1807,2.1807,2.1807,2.1807,2.1807,2.1807,2.1807,2.1807,2.1807,2.1807,2.1807,2.1807,2.1807,2.1807,2.1818,2.1838,2.1818,2.1818,2.1838,3.0986,3.0986,3.0768,0.0,2.9608,2.9272,0.0,0.0,0.0,0.0,2.7222,2.7209,2.7142,2.6517,2.6104,2.6057,2.5581,0.0,0.0,0.0,0.0,2.4587,2.4624,2.466,2.4551,2.466,2.4719,2.4826,0.0,0.0,2.5146,0.0,0.0,0.0,0.0,0.0,2.5589,2.4369,2.373,2.3628,2.376,2.373,2.3628,0.0,2.345,2.2871,2.2279,2.2063,2.197,2.1313,2.0996,2.0837,2.0837,2.0387,1.9846,1.9846,1.9495,1.9108,1.9108,1.9108,1.9108,1.9108,1.9108,1.9108,1.9108,1.9108,1.9108,1.9108,1.8965,1.8654,1.8104,0.0,0.0,0.0,0.0,0.0,0.0,0.0,0.0,1.7997,0.0,0.0,2.0421,2.0702,2.1098,2.1769,2.1807,2.1807,2.1807,2.1807,2.1807,2.1807,2.1807,2.1807,2.1807,2.1807,2.1807,2.1807,2.1807,2.1807,2.1807,2.1807,2.1807,2.1807,2.1807,2.1807,2.1807,2.1807,2.1807,2.1807,2.1807,2.2014,2.2273,2.1932,2.2025,2.2325,3.0986,0.0,0.0,3.0555,0.0,0.0,2.8996,2.8111,0.0,2.749,2.749,0.0,2.749,2.7142,2.6871,2.6871,2.6483,0.0,2.5791,0.0,0.0,2.5347,2.5487,2.5522,2.5312,2.5487,0.0,2.5791,0.0,0.0,2.6277,0.0,0.0,0.0,0.0,2.5793,0.0,2.4489,2.3907,2.3848,2.3936,2.3907,0.0,2.3936,2.3907,2.3747,2.3258,2.3005,2.2841,2.2372,2.197,2.1659,2.1659,2.1155,2.0549,2.0549,2.0074,1.9551,1.9551,1.933,1.9108,1.9108,1.9108,1.9108,1.9108,1.9108,1.9108,1.9108,1.9108,1.8965,1.8553,1.9404,0.0,0.0,0.0,0.0,0.0,0.0,0.0,0.0,1.8979,1.962,2.0421,2.0857,2.129,2.1769,2.1807,2.1807,0.0,2.1807,2.1807,2.1807,2.1807,2.1807,2.1807,2.1807,2.1807,2.1807,2.1807,2.1807,2.1807,2.1807,2.1807,2.1807,2.1807,2.1807,2.1807,2.1807,2.1921,2.2128,2.2335,2.2573,2.277,2.2501,2.2573,2.2801,0.0,0.0,0.0,0.0,0.0,0.0,0.0,2.8059,0.0,2.7503,0.0,2.749,2.749,2.749,2.749,2.749,2.749,2.7222,2.6598,2.7142,2.6939,2.5652,2.6208,2.6242,2.5581,2.6208,2.6552,0.0,0.0,0.0,0.0,0.0,0.0,0.0,0.0,0.0,0.0,2.4514,2.4083,2.4083,2.4083,2.4083,2.4083,2.4083,2.4083,2.4083,2.3979,2.3789,2.3628,2.3628,2.3125,2.2525,2.2525,2.1939,2.1219,2.1219,2.0773,2.0226,2.0226,1.9813,1.9363,1.9363,1.9297,1.9231,1.9231,1.9164,1.9108,1.9108,1.9108,1.9108,1.9108,1.9533,0.0,0.0,0.0,0.0,0.0,0.0,0.0,0.0,0.0,0.0,2.0421,2.1175,2.1693,2.1807,2.1807,2.1807,0.0,0.0,2.1807,2.1807,2.1807,2.1807,2.1807,2.1807,2.1807,2.1807,2.1807,2.1807,2.1807,2.1807,2.1807,2.1807,2.1807,2.1838,2.189,2.189,2.217,2.2635,2.3101,2.3277,2.3287,2.3339,2.337,2.335,0.0,0.0,0.0,0.0,0.0,3.0726,2.9922,2.8922,2.8059,2.7555,2.749,2.749,2.749,2.749,2.749,2.749,2.749,0.0,0.0,0.0,0.0,2.7121,2.7255,2.7255,2.7108,2.7255,2.7323,0.0,0.0,0.0,0.0,0.0,0.0,0.0,0.0,0.0,2.437,2.4174,0.0,2.4083,2.4083,2.4083,2.4083,2.4083,2.4083,2.4083,2.4054,2.3979,2.3819,2.3658,2.345,2.321,2.321,2.2628,2.1916,2.1916,2.1459,2.0933,2.0933,2.0837,2.0741,2.0741,2.0323,1.9901,1.9901,1.9485,1.9108,1.9108,1.9108,1.9108,1.9108,1.9748,0.0,0.0,0.0,0.0,0.0,0.0,0.0,0.0,0.0,2.0343,2.0508,2.0624,2.1021,2.1769,2.1807,2.1807,2.1807,2.1807,2.1807,2.1807,2.1807,2.1807,2.1807,2.1807,2.1807,2.1807,2.1807,2.1807,2.1807,2.1807,2.1807,2.1807,2.1807,2.2025,2.2377,2.2377,2.2646,2.3111,2.3577,2.3764,2.3805,2.4167,2.4259,2.4208,0.0,0.0,0.0,0.0,0.0,0.0,0.0,2.9617,2.8974,2.8085,2.7673,2.749,2.749,2.749,2.749,2.749,2.749,2.749,2.749,2.749,2.749,2.749,2.749,2.749,2.749,2.749,2.749,2.749,0.0,0.0,0.0,0.0,0.0,0.0,0.0,2.4909,0.0,0.0,2.4083,2.4083,2.4083,2.4083,2.4083,2.4083,2.4083,2.4083,2.4083,2.4067,2.3979,2.3907,2.376,2.3641,2.3539,2.3168,2.275,2.2659,2.2144,2.1616,2.1616,2.1376,2.1092,2.1092,2.0869,2.0613,2.0613,2.0355,2.0031,1.9682,1.9616,1.9518,1.9164,1.9658,2.0224,2.0679,2.1145,0.0,0.0,0.0,2.1011,0.0,0.0,0.0,0.0,0.0,0.0,0.0,0.0,2.1807,2.1807,2.1807,2.1807,2.1807,2.1807,2.1807,2.1807,2.1807,2.1807,2.1807,2.1807,2.1807,2.1807,2.1807,2.1807,2.1818,2.2056,2.2294,2.2532,2.3018,2.335,2.3588,2.4043,2.4219,2.425,2.4425,2.4497,2.4466,0.0,3.3575,0.0,0.0,3.2456,3.2176,3.093,3.0648,3.0051,2.8599,2.7994,2.7633,2.7503,2.749,2.749,2.749,2.749,2.749,2.749,2.749,2.749,2.749,2.749,2.749,2.749,2.749,2.749,0.0,0.0,0.0,0.0,0.0,0.0,0.0,0.0,0.0,0.0,2.4083,2.4083,2.4083,2.4083,2.4083,2.4083,2.4083,2.4083,2.4083,2.4083,2.4083,2.4083,2.4083,2.4008,2.3861,2.3658,2.3509,2.3373,2.3168,2.272,2.2298,2.2298,2.1939,2.1534,2.1534,2.1408,2.1313,2.1313,2.1187,2.0965,2.042,2.0193,1.9911,1.9231,1.9482,1.9938,2.0312,2.0777,2.128,0.0,0.0,0.0,0.0,0.0,0.0,2.1807,0.0,0.0,0.0,0.0,2.1807,2.1807,2.1807,2.1807,2.1807,2.1807,2.1807,2.1807,2.1807,2.1807,2.1807,2.1807,2.1807,2.1807,2.1901,2.1952,2.1973,2.2439,2.2697,2.2853,2.3681,2.4022,2.4053,2.4363,2.4497,2.4497,2.4497,2.4497,2.4497,0.0,0.0,0.0,0.0,0.0,3.3842,3.3038,3.2493,3.1288,2.8723,2.8368,2.8111,2.7555,2.749,2.749,2.749,2.749,2.749,2.749,2.749,2.749,2.749,2.749,2.749,2.749,2.749,2.749,0.0,0.0,2.749,0.0,0.0,0.0,0.0,0.0,2.4648,2.4083,2.4083,2.4083,2.4083,2.4083,2.4083,2.4083,2.4083,2.4083,2.4083,2.4083,2.4083,2.4083,2.4083,2.4008,2.3861,2.3658,2.3509,2.3373,2.3168,2.3078,2.3017,2.3017,2.2944,2.2914,2.2914,2.2463,2.2009,2.2009,2.1522,2.1092,2.1028,2.0516,1.9911,1.9231,1.9482,1.9938,2.0312,2.0777,2.128,2.1745,0.0,2.1807,2.1807,0.0,0.0,2.1807,2.1807,0.0,0.0,2.1807,2.1807,2.1807,2.1807,2.1807,2.1807,2.1807,2.1807,2.1807,2.1807,2.1807,2.1807,2.1807,2.1807,2.1818,2.2242,2.2428,2.2459,2.2925,2.336,2.3784,2.4281,2.4435,2.4435,2.4487,2.4497,2.4497,2.4497,2.4497,2.4497,0.0,0.0,0.0,3.4041,3.4095,3.4041,3.3318,3.3016,3.2367,3.0973,3.0151,2.9419,2.8772,2.8338,2.7941,2.7523,2.749,2.749,2.749,2.749,2.749,2.749,2.749,2.749,2.749,2.749,2.749,0.0,0.0,0.0,0.0,0.0,0.0,0.0,2.487,2.4334,2.4083,2.4083,2.4083,2.4083,2.4083,2.4083,2.4083,2.4083,2.4083,2.4083,2.4083,2.4083,2.4083,2.4083,2.4067,2.3995,2.3819,2.373,2.3641,2.345,2.333,2.3271,2.3271,2.3198,2.3108,2.3108,2.2914,2.2689,2.2689,2.2506,2.2187,2.1772,2.1187,2.0573,2.019,2.027,2.0506,2.0757,2.1,2.128,2.1745,0.0,0.0,2.1807,0.0,2.1807,0.0,2.1807,0.0,0.0,2.1807,2.1807,2.1807,2.1807,2.1807,2.1807,2.1807,2.1807,2.1807,2.1807,2.1807,2.1807,2.1807,2.1952,2.2232,2.2418,2.2801,2.3339,2.3525,2.3857,2.4291,2.4425,2.4497,2.4497,2.4497,2.4497,2.4497,2.4497,2.4497,2.4497,3.5198,3.5359,3.5246,3.4461,3.4495,3.4476,3.3968,3.3899,3.3742,3.3365,3.2346,3.1194,2.9936,2.921,2.8597,2.8111,2.7908,2.7776,2.7776,2.7623,2.749,2.749,2.749,0.0,2.749,2.749,2.749,2.749,2.749,0.0,2.749,2.715,2.6563,2.5741,2.4605,2.4083,2.4083,2.4083,2.4083,2.4083,2.4083,2.4083,2.4083,2.4083,2.4083,2.4083,2.4083,2.4083,2.4083,2.4083,2.4083,2.4083,2.3949,2.3891,2.3861,2.3658,2.3539,2.3463,2.3463,2.333,2.3198,2.3198,2.3138,2.3108,2.3108,2.3108,2.2914,2.2237,2.1871,2.1553,2.1174,2.1072,2.1136,2.1417,2.1261,2.128,2.1745,2.1807,0.0,2.1807,2.1807,2.1807,2.1807,2.1807,0.0,0.0,2.1807,2.1807,2.1807,2.1807,2.1807,2.1807,2.1807,2.1807,2.1807,2.1807,2.1807,2.1807,2.1942,2.218,2.2501,2.278,2.3329,2.4074,2.4074,2.425,2.4497,2.4497,2.4497,2.4497,2.4497,2.4497,2.4497,2.4497,2.4497,2.4497,3.4461,3.4938,3.5246,3.4461,3.4953,3.5472,3.5472,3.5472,3.5472,3.5457,3.4876,3.3448,3.0782,2.9901,2.9473,2.9473,2.8871,2.8481,2.8481,2.7875,2.749,2.749,2.749,2.749,2.749,2.749,2.749,2.749,0.0,2.749,2.7477,2.6341,2.5806,2.5741,2.4605,2.4083,2.4083,2.4083,2.4083,2.4083,2.4083,2.4083,2.4083,2.4083,2.4083,2.4083,2.4083,2.4083,2.4083,2.4083,2.4083,2.4083,2.3949,2.3891,2.3861,2.3658,2.3599,2.3599,2.3599,2.3509,2.3403,2.3403,2.3241,2.3108,2.3108,2.3108,2.2914,2.2237,2.2578,2.2747,2.2031,2.1733,2.1726,2.2193,2.1617,2.128,2.1745,2.1807,0.0,2.1807,2.1807,2.1807,2.1807,2.1807,0.0,0.0,2.1807,2.1807,2.1807,2.1807,2.1807,2.1807,2.1807,2.1807,2.1807,2.1807,2.1807,2.1818,2.2273,2.249,2.2532,2.3443,2.4105,2.4487,2.4487,2.4497,2.4497,2.4497,2.4497,2.4497,2.4497,2.4497,2.4497,2.4497,2.4497,2.4497,3.5166,3.5311,3.5424,3.5166,3.5326,3.5504,3.5504,3.5504,3.5504,3.5504,3.4906,3.4003,3.2707,3.154,3.0514,2.9577,2.9286,2.8998,2.8546,2.8287,2.7973,2.7523,2.749,2.749,2.749,2.749,2.749,2.749,2.749,2.749,2.7477,2.6328,2.5793,2.5741,2.4605,2.4083,2.4083,2.4083,2.4083,2.4083,2.4083,2.4083,2.4083,2.4083,2.4083,2.4083,2.4083,2.4083,2.4083,2.4083,2.4083,2.4083,2.4067,2.4037,2.4024,2.3966,2.3878,2.3789,2.3789,2.3671,2.3539,2.3539,2.342,2.33,2.33,2.3198,2.3147,2.335,2.3542,2.3686,2.3656,2.3625,2.3561,2.3512,2.2886,2.2456,2.2606,2.2138,2.1807,2.1807,2.1807,2.1807,2.1807,2.1807,0.0,0.0,2.1807,2.1807,2.1807,2.1807,2.1807,2.1807,2.1807,2.1807,2.1807,2.1807,2.1963,2.2273,2.2428,2.2832,2.3453,2.4064,2.4363,2.4497,2.4497,2.4497,2.4497,2.4497,2.4497,2.4497,2.4497,2.4497,2.4497,2.4497,2.4497,2.4497,3.5504,3.5504,3.5504,3.5504,3.5504,3.5504,3.5504,3.5554,3.5572,3.5572,3.5197,3.4703,3.4011,3.2924,3.1698,3.0371,3.0011,2.9704,2.9282,2.8789,2.832,2.7875,2.7623,2.749,2.749,2.749,2.749,2.749,2.749,2.749,2.7477,2.6328,2.5793,2.5741,2.4605,2.4083,2.4083,2.4083,2.4083,2.4083,2.4083,2.4083,2.4083,2.4083,2.4083,2.4083,2.4083,2.4083,2.4083,2.4083,2.4083,2.4083,2.4083,2.4083,2.4083,2.4083,2.4037,2.3979,2.3979,2.3848,2.3717,2.3717,2.3582,2.3463,2.3403,2.3465,2.3613,2.3916,2.4318,2.4666,2.4872,2.4846,2.4741,2.4589,2.3913,2.3412,2.3412,2.2968,2.2569,2.2289,2.2252,2.2138,2.1845,2.1807,2.1807,2.1807,0.0,2.1911,2.2214,2.1949,2.1807,2.1807,2.1807,2.1807,2.1807,2.1973,2.2211,2.2501,2.2853,2.3401,2.4136,2.4373,2.4497,2.4497,2.4497,2.4497,2.4497,2.4497,2.4497,2.4497,2.4497,2.4497,2.4497,2.4497,2.4497,2.4497,3.5504,3.5504,3.5504,3.5504,3.5504,3.5504,3.5504,3.5621,3.5688,3.5688,3.5688,3.5431,3.4768,3.4011,3.3036,3.169,3.0955,3.0554,3.0494,2.9314,2.8629,2.8565,2.7973,2.7623,2.7556,2.7556,2.7556,2.749,2.749,2.749,2.7477,2.6367,2.5845,2.5806,2.4657,2.4178,2.4178,2.4109,2.4083,2.4083,2.4083,2.4083,2.4083,2.4083,2.4083,2.4083,2.4083,2.4083,2.4083,2.4083,2.4083,2.4083,2.4083,2.4083,2.4083,2.4083,2.4083,2.4083,2.4083,2.4008,2.392,2.3891,2.376,2.3582,2.3513,2.386,2.4191,2.4155,2.4908,2.5598,2.5649,2.5495,2.5382,2.5382,2.4707,2.4181,2.4181,2.4156,2.3841,2.3176,2.3075,2.2767,2.2025,2.1949,2.1949,2.1949,0.0,2.2252,2.2964,2.2289,2.1894,2.1925,2.1887,2.1869,2.1901,2.2325,2.2563,2.2604,2.3494,2.4146,2.4497,2.4497,2.4497,2.4497,2.4497,2.4497,2.4497,2.4497,2.4497,2.4497,2.4497,2.4497,2.4497,2.4497,2.4497,2.4497,3.5504,3.5504,3.5504,3.5504,3.5504,3.5504,3.5504,3.5621,3.5671,3.5554,3.5653,3.5415,3.4626,3.4369,3.3709,3.2392,3.1663,3.1058,3.0524,3.0208,2.9811,2.93,2.9111,2.8807,2.8287,2.8254,2.8006,2.749,2.749,2.749,2.7477,2.6804,2.6478,2.6457,2.5306,2.4796,2.4769,2.4308,2.4083,2.4083,2.4083,2.4083,2.4083,2.4083,2.4083,2.4083,2.4083,2.4083,2.4083,2.4083,2.4083,2.4083,2.4083,2.4083,2.4083,2.4083,2.4083,2.4083,2.4083,2.4083,2.4037,2.392,2.376,2.3701,2.4136,2.4218,2.4437,2.5299,2.5522,2.5737,2.621,2.6261,2.6211,2.6211,2.5558,2.5016,2.5016,2.4492,2.4047,2.3877,2.3829,2.3756,2.3573,2.3573,2.3573,2.3573,2.3573,2.3401,2.3038,2.2815,2.2891,2.3248,2.2664,2.2501,2.2853,2.2967,2.3194,2.3557,2.4115,2.4394,2.4497,2.4497,2.4497,2.4497,2.4497,2.4497,2.4497,2.4497,2.4497,2.4497,2.4497,2.4497,2.4497,2.4497,2.4497,2.4497,3.5504,3.5504,3.5504,3.5504,3.5504,3.5504,3.5504,3.5621,3.5655,3.5589,3.5638,3.552,3.511,3.4715,3.4068,3.3051,3.2333,3.1663,3.0984,3.0673,3.0329,2.9981,2.9659,2.9331,2.8967,2.8661,2.8157,2.749,2.749,2.749,2.749,2.6935,2.6706,2.6667,2.5746,2.5367,2.5328,2.4753,2.4504,2.4491,2.4217,2.4083,2.4083,2.4083,2.4083,2.4083,2.4083,2.4083,2.4083,2.4083,2.4083,2.4083,2.4083,2.4083,2.4083,2.4083,2.4083,2.4083,2.4083,2.4083,2.4148,2.435,2.4236,2.4227,2.4748,2.4925,2.5121,2.5651,2.5912,2.6122,2.6436,2.6499,2.6499,2.6499,2.6129,2.5851,2.5851,2.5476,2.5063,2.4707,2.4636,2.448,2.4156,2.4108,2.4108,2.4108,2.4108,2.4095,2.4045,2.3598,2.3286,2.3161,2.2715,2.2718,2.3184,2.3391,2.3732,2.4188,2.4383,2.4497,2.4497,2.4497,2.4497,2.4497,2.4497,2.4497,2.4497,2.4497,2.4497,2.4497,2.4497,2.4497,2.4497,2.4497,2.4497,2.4497,3.5504,3.5504,3.5504,3.5504,3.5504,3.5504,3.5504,3.5621,3.5688,3.5671,3.5688,3.5688,3.5671,3.5046,3.4367,3.3709,3.3036,3.2303,3.1555,3.097,3.0644,3.0644,3.0103,2.9766,2.9659,2.8998,2.832,2.7656,2.7656,2.759,2.749,2.7027,2.6837,2.6811,2.6203,2.5955,2.5916,2.5341,2.5123,2.5083,2.4478,2.4243,2.4243,2.4122,2.4083,2.4083,2.4083,2.4083,2.4083,2.4083,2.4083,2.4083,2.4083,2.4178,2.4243,2.4243,2.4279,2.4347,2.4269,2.4279,2.4461,2.4975,2.4984,2.4942,2.5402,2.5742,2.5948,2.5878,2.6215,2.6521,2.6521,2.6499,2.6499,2.6499,2.6499,2.6499,2.6499,2.6499,2.6245,2.5558,2.5488,2.5229,2.4516,2.448,2.448,2.448,2.448,2.4743,2.5385,2.4548,2.3755,2.3111,2.2964,2.3114,2.3574,2.3857,2.4167,2.4497,2.4497,2.4497,2.4497,2.4497,2.4497,2.4497,2.4497,2.4497,2.4497,2.4497,2.4497,2.4497,2.4497,2.4497,2.4497,2.4497,2.4497,2.4497,3.5504,3.5504,3.5504,3.5504,3.5504,3.5504,3.5504,3.5621,3.5671,3.5554,3.5621,3.5671,3.5554,3.54,3.507,3.4414,3.3724,3.2826,3.1585,3.1409,3.1351,3.1351,3.1248,3.0925,3.0359,2.9704,2.903,2.8352,2.8352,2.8039,2.749,2.7398,2.7392,2.7333,2.6791,2.6575,2.6536,2.5942,2.5694,2.5641,2.5066,2.4861,2.4809,2.4295,2.4083,2.4083,2.4083,2.4083,2.4083,2.4083,2.4083,2.4083,2.4083,2.4452,2.4861,2.4861,2.5184,2.5458,2.4992,2.5105,2.5434,2.5605,2.5569,2.563,2.6316,2.6382,2.6458,2.6935,2.6833,2.6692,2.6692,2.6589,2.6499,2.6499,2.6499,2.6499,2.6499,2.6499,2.6452,2.6314,2.6314,2.6267,2.6129,2.6129,2.6129,2.6129,2.6129,2.6082,2.5985,2.5827,2.5782,2.5876,2.5143,2.4968,2.5404,2.4724,2.4435,2.4497,2.4497,2.4497,2.4497,2.4497,2.4497,2.4497,2.4497,2.4497,2.4497,2.4497,2.4497,2.4497,2.4497,2.4497,2.4497,2.4497,2.4497,2.4497,3.5579,3.5504,3.5504,3.5504,3.5504,3.5504,3.5504,3.5539,3.5572,3.5504,3.5539,3.5572,3.5504,3.5504,3.5235,3.4563,3.4234,3.3469,3.2123,3.1705,3.1511,3.1511,3.1511,3.119,3.0524,3.0208,2.9704,2.903,2.903,2.868,2.8039,2.8039,2.7842,2.749,2.7249,2.7131,2.7092,2.653,2.6282,2.6229,2.5654,2.5432,2.5406,2.5101,2.501,2.501,2.501,2.501,2.501,2.501,2.501,2.501,2.501,2.521,2.5432,2.5432,2.5615,2.5741,2.5497,2.5566,2.5808,2.6171,2.6154,2.6213,2.6882,2.688,2.6804,2.7095,2.7011,2.6863,2.6863,2.6726,2.6624,2.6624,2.6555,2.6499,2.6499,2.6499,2.6499,2.6499,2.6499,2.6499,2.6499,2.6499,2.6499,2.6499,2.6763,2.6876,2.6744,2.6857,2.6962,2.7089,2.6094,2.5611,2.5777,2.4935,2.4497,2.4497,2.4497,2.4497,2.4497,2.4497,2.4497,2.4497,2.4497,2.4497,2.4497,2.4497,2.4497,2.4497,2.4497,2.4497,2.4497,2.4497,2.4497,2.4497,3.5863,3.5729,3.5684,3.5534,3.5504,3.5504,3.5504,3.5504,3.5504,3.5504,3.5504,3.5504,3.5504,3.5504,3.5295,3.4788,3.4593,3.3978,3.2826,3.2093,3.166,3.1511,3.1511,3.1248,3.0748,3.0748,3.0389,2.9721,2.9721,2.9393,2.8712,2.8712,2.8371,2.7723,2.7723,2.7656,2.7464,2.7053,2.6902,2.6817,2.6255,2.602,2.6007,2.5845,2.5793,2.5793,2.5793,2.5793,2.5793,2.5793,2.5793,2.5793,2.5793,2.5884,2.602,2.602,2.608,2.6158,2.6059,2.608,2.6321,2.6765,2.6785,2.6771,2.7232,2.7248,2.7113,2.7113,2.7079,2.7079,2.7079,2.6909,2.676,2.6714,2.6624,2.6521,2.6499,2.6499,2.6499,2.6499,2.6499,2.6499,2.6499,2.6612,2.6688,2.6688,2.719,2.7532,2.7657,2.7828,2.7975,2.8108,2.6811,2.6193,2.6442,2.5558,2.5115,2.5115,2.5115,2.5115,2.5115,2.5115,2.4988,2.4775,2.4775,2.47,2.4497,2.4497,2.4497,2.4497,2.4497,2.4497,2.4497,2.4497,2.4497,2.4497,3.6537,3.6417,3.6222,3.5609,3.5504,3.5504,3.5504,3.5504,3.5504,3.5504,3.5504,3.5504,3.5504,3.5504,3.5489,3.5429,3.4846,3.4173,3.3469,3.2811,3.2138,3.1525,3.1511,3.1467,3.1438,3.1438,3.1087,3.0419,3.0419,3.0072,2.9411,2.9411,2.9079,2.8417,2.8417,2.8072,2.749,2.7451,2.7438,2.7385,2.6844,2.6641,2.6588,2.602,2.5793,2.5793,2.5793,2.5793,2.5793,2.5793,2.5793,2.5793,2.5793,2.6177,2.6641,2.6641,2.6987,2.7255,2.6752,2.7,2.7385,2.7425,2.7438,2.7451,2.749,2.7469,2.7469,2.7469,2.7369,2.7268,2.7268,2.7113,2.6909,2.6726,2.6679,2.6658,2.6521,2.6499,2.6499,2.6499,2.6499,2.6499,2.6499,2.6952,2.7218,2.7218,2.7733,2.8273,2.875,2.8813,2.905,2.9626,2.7919,2.7435,2.8291,2.7395,2.6905,2.6905,2.6905,2.6905,2.6905,2.6905,2.6483,2.5704,2.5704,2.5263,2.4497,2.4497,2.4497,2.4497,2.4497,2.4497,2.4497,2.4497,2.4497,2.4497,3.718,3.6746,3.6417,3.6148,3.5774,3.5504,3.5504,3.5504,3.5504,3.5504,3.5504,3.5504,3.5504,3.5504,3.5504,3.5504,3.5265,3.4831,3.4174,3.3484,3.2647,3.1555,3.1511,3.1511,3.1511,3.1511,3.138,3.1117,3.1117,3.0777,3.0103,3.0103,2.9766,2.9111,2.9111,2.8744,2.8137,2.8137,2.7875,2.7477,2.7288,2.721,2.7183,2.6929,2.685,2.685,2.685,2.685,2.685,2.685,2.685,2.685,2.685,2.6994,2.721,2.721,2.732,2.7451,2.7262,2.7333,2.749,2.749,2.749,2.749,2.749,2.749,2.749,2.749,2.7469,2.7436,2.7436,2.718,2.6977,2.6909,2.6705,2.6555,2.6499,2.6499,2.6499,2.6499,2.6801,2.7002,2.7002,2.7469,2.7795,2.7795,2.8298,2.8675,2.8888,2.9264,2.9566,2.9779,2.9131,2.8673,2.8502,2.7557,2.711,2.711,2.711,2.711,2.711,2.711,2.6607,2.5777,2.5777,2.5306,2.4497,2.4497,2.4497,2.4497,2.4497,2.4497,2.4497,2.4497,2.4497,2.4497,3.7853,3.721,3.6716,3.6522,3.5953,3.5504,3.5504,3.5504,3.5504,3.5504,3.5504,3.5504,3.5504,3.5504,3.5504,3.5504,3.5504,3.522,3.4548,3.3858,3.2901,3.157,3.1511,3.1511,3.1511,3.1511,3.1511,3.1511,3.1511,3.1248,3.0807,3.0807,3.045,2.9827,2.9827,2.9456,2.8807,2.8597,2.8222,2.7809,2.759,2.749,2.749,2.749,2.749,2.749,2.749,2.749,2.749,2.749,2.749,2.749,2.749,2.749,2.749,2.749,2.749,2.749,2.749,2.749,2.749,2.749,2.749,2.749,2.749,2.749,2.749,2.749,2.749,2.749,2.749,2.7302,2.7146,2.7113,2.6909,2.6726,2.6671,2.6822,2.6936,2.6867,2.7311,2.7639,2.7639,2.807,2.836,2.8434,2.8913,2.9202,2.9202,2.9578,2.9792,2.9792,2.9792,2.9495,2.891,2.8263,2.7931,2.7931,2.7931,2.7931,2.7931,2.7931,2.7476,2.6648,2.6648,2.6121,2.5316,2.5316,2.5316,2.5316,2.5316,2.5316,2.5274,2.5031,2.4903,2.4861,3.8527,3.7868,3.7225,3.6596,3.5953,3.5504,3.5504,3.5504,3.5504,3.5504,3.5504,3.5504,3.5504,3.5504,3.5504,3.5504,3.5504,3.522,3.4548,3.3858,3.2916,3.157,3.1511,3.1511,3.1511,3.1511,3.1511,3.1511,3.1511,3.1511,3.1511,3.1511,3.1161,3.0524,3.0524,3.0133,2.9442,2.8776,2.8514,2.8417,2.7776,2.749,2.749,2.749,2.749,2.749,2.749,2.749,2.749,2.749,2.749,2.749,2.749,2.749,2.749,2.749,2.749,2.749,2.749,2.749,2.749,2.749,2.749,2.749,2.749,2.749,2.749,2.749,2.749,2.749,2.749,2.749,2.7469,2.7315,2.7315,2.7248,2.7037,2.7545,2.7822,2.7624,2.8094,2.8424,2.8424,2.871,2.9001,2.9175,2.9567,2.9792,2.9792,2.9792,2.9792,2.9792,2.9792,2.9792,2.9792,2.9792,2.9792,2.9792,2.9792,2.9792,2.9792,2.9792,2.9326,2.8502,2.8502,2.7971,2.711,2.711,2.711,2.711,2.711,2.711,2.6987,2.611,2.5819,2.5704,3.9155,3.8556,3.7898,3.724,3.6611,3.6028,3.5579,3.5504,3.5504,3.5504,3.5504,3.5504,3.5504,3.5504,3.5504,3.5504,3.5504,3.522,3.4548,3.4324,3.3799,3.2946,3.2437,3.1974,3.1511,3.1511,3.1511,3.1511,3.1511,3.1511,3.1511,3.1511,3.138,3.119,3.119,3.0584,2.9473,2.93,2.8648,2.7776,2.759,2.749,2.749,2.749,2.749,2.749,2.749,2.749,2.749,2.749,2.749,2.749,2.749,2.749,2.749,2.749,2.749,2.749,2.749,2.749,2.749,2.749,2.749,2.749,2.749,2.749,2.749,2.749,2.749,2.749,2.749,2.7436,2.7465,2.7799,2.776,2.7846,2.8139,2.8344,2.8446,2.8375,2.8873,2.9119,2.8996,2.9441,2.9707,2.9643,2.973,2.9869,3.0011,2.9869,2.9869,3.0011,2.9869,2.9792,2.9792,2.9792,2.9792,2.9792,2.9792,2.9792,2.9792,2.9792,2.9326,2.8502,2.8502,2.7971,2.711,2.711,2.711,2.711,2.711,2.711,2.7069,2.6812,2.6689,2.67,3.9388,3.8856,3.8182,3.7524,3.6896,3.6267,3.5609,3.5504,3.5504,3.5504,3.5504,3.5504,3.5504,3.5504,3.5504,3.5504,3.5504,3.5325,3.4906,3.4891,3.4608,3.3903,3.3499,3.2856,3.1914,3.1645,3.1511,3.1511,3.1511,3.1511,3.1511,3.1511,3.1511,3.1511,3.1511,3.1058,3.0269,2.9721,2.9048,2.8241,2.7709,2.749,2.749,2.749,2.749,2.749,2.749,2.749,2.749,2.749,2.749,2.749,2.749,2.749,2.749,2.749,2.749,2.749,2.749,2.749,2.7555,2.7811,2.7659,2.749,2.749,2.749,2.7555,2.7824,2.7863,2.7941,2.8177,2.816,2.8209,2.8512,2.8507,2.8553,2.8902,2.9112,2.9205,2.9119,2.9634,2.9906,2.9693,3.0012,3.019,3.0049,2.9972,2.9972,3.0075,2.9972,2.9934,2.9972,2.9869,2.9792,2.9792,2.9792,2.9792,2.9792,2.9792,2.9792,2.9792,2.9792,2.9495,2.9,2.9,2.8712,2.8183,2.8183,2.8183,2.8183,2.8183,2.8183,2.8143,2.777,2.7637,2.7597,3.9388,3.8916,3.8272,3.7614,3.6985,3.6357,3.5684,3.5549,3.5504,3.5504,3.5504,3.5504,3.5504,3.5504,3.5504,3.5504,3.5504,3.5504,3.5504,3.5504,3.522,3.4623,3.4533,3.3918,3.2721,3.1959,3.1585,3.1585,3.1525,3.1511,3.1511,3.1511,3.1511,3.1511,3.1511,3.1467,3.1322,3.0103,2.9504,2.9286,2.8078,2.7556,2.749,2.749,2.749,2.749,2.749,2.749,2.749,2.749,2.749,2.749,2.749,2.749,2.749,2.749,2.749,2.7503,2.7555,2.7568,2.7745,2.832,2.8072,2.7646,2.7646,2.7646,2.7837,2.836,2.8499,2.8669,2.9218,2.931,2.9336,2.934,2.9353,2.9379,2.9454,2.9889,3.0092,2.9932,3.0399,3.066,3.0444,3.0406,3.0406,3.0406,3.0228,3.0113,3.0152,3.0113,3.0011,2.9869,2.983,2.983,2.983,2.983,2.983,2.983,2.983,2.983,2.9869,2.983,2.983,2.983,2.9792,2.9792,2.9792,2.9792,2.9792,2.9792,2.9792,2.9792,2.9714,2.8922,2.8633,2.8502,3.9388,3.929,3.8975,3.8302,3.7644,3.7,3.6372,3.5833,3.5504,3.5504,3.5504,3.5504,3.5504,3.5504,3.5504,3.5504,3.5504,3.5504,3.5504,3.5504,3.5444,3.5295,3.4788,3.4369,3.4053,3.2901,3.2273,3.2273,3.1765,3.1511,3.1511,3.1511,3.1511,3.1511,3.1511,3.1219,3.0703,3.0419,2.9673,2.8693,2.8417,2.7973,2.749,2.749,2.749,2.749,2.749,2.749,2.749,2.749,2.749,2.749,2.749,2.749,2.749,2.749,2.749,2.7594,2.8072,2.819,2.8333,2.8935,2.9022,2.8895,2.8895,2.8895,2.8935,2.91,2.9114,2.9118,2.9297,2.931,2.9431,2.9839,2.9918,3.0111,3.0555,3.0725,3.0803,3.0753,3.0871,3.0836,3.066,3.0482,3.0406,3.0406,3.0368,3.0406,3.0546,3.0279,3.0152,3.0254,3.0113,3.0049,3.0049,3.019,3.019,3.0049,3.0049,3.0113,3.0254,3.0113,3.0049,3.0049,2.9869,2.9792,2.9792,2.9792,2.9792,2.9792,2.9792,2.9792,2.9792,2.9585,2.9507,2.9495,3.9388,3.9388,3.92,3.8512,3.8108,3.7569,3.6626,3.6193,3.5863,3.5549,3.5504,3.5504,3.5504,3.5504,3.5504,3.5504,3.5504,3.5504,3.5504,3.5504,3.5504,3.5504,3.516,3.4966,3.4966,3.3978,3.3305,3.2976,3.2317,3.1974,3.1974,3.1645,3.1511,3.1511,3.1511,3.1117,3.0494,3.0178,2.9425,2.8509,2.8464,2.8218,2.7968,2.8255,2.8373,2.8373,2.8373,2.8373,2.8373,2.8373,2.8373,2.8373,2.8373,2.8373,2.8373,2.8373,2.8373,2.8438,2.8726,2.8852,2.8948,2.9536,2.9693,2.9614,2.9375,2.931,2.9353,2.9627,2.9693,2.9771,3.0045,3.0098,3.0189,3.049,3.0542,3.0647,3.0947,3.0986,3.0986,3.0986,3.0986,3.0949,3.0849,3.0558,3.0482,3.0672,3.0609,3.0571,3.0698,3.0508,3.0381,3.0406,3.0292,3.0228,3.0228,3.0368,3.0406,3.0394,3.0305,3.0254,3.0254,3.0152,3.0049,2.9934,2.9869,2.9792,2.9792,2.9792,2.9792,2.9792,2.9792,2.9792,2.9792,2.9792,2.9792,2.983,3.9409,3.9388,3.923,3.8661,3.8467,3.8033,3.6971,3.6626,3.6297,3.5744,3.5579,3.5504,3.5504,3.5504,3.5504,3.5504,3.5504,3.5504,3.5504,3.5504,3.5504,3.5504,3.5504,3.5504,3.5504,3.4951,3.4322,3.3664,3.3006,3.2677,3.2677,3.2093,3.1839,3.1839,3.1839,3.1516,3.0979,3.0432,2.981,2.9164,2.8986,2.8847,2.8776,2.9162,2.931,2.931,2.931,2.931,2.931,2.931,2.931,2.931,2.931,2.931,2.931,2.931,2.931,2.9301,2.9392,2.9431,2.9562,3.01,3.0244,3.0163,2.968,2.9611,2.9706,3.014,3.0244,3.0424,3.0895,3.0986,3.0986,3.0986,3.0986,3.0986,3.0986,3.0986,3.0986,3.0986,3.0986,3.0986,3.0986,3.071,3.0634,3.0986,3.0849,3.0736,3.0736,3.0736,3.0609,3.0444,3.0444,3.0444,3.0444,3.0482,3.0609,3.0736,3.0558,3.0406,3.0203,3.0152,3.0049,2.9869,2.9792,2.9792,2.9792,2.9792,2.9792,2.9792,2.9792,2.9792,2.9792,2.9792,2.9792,2.983,3.9517,3.9388,3.9394,3.929,3.8796,3.8332,3.8167,3.7195,3.6447,3.6372,3.5863,3.5504,3.5504,3.5504,3.5504,3.5504,3.5504,3.5504,3.5504,3.5504,3.5504,3.5504,3.5504,3.5504,3.5504,3.5415,3.504,3.4369,3.3679,3.3365,3.3365,3.3275,3.323,3.323,3.323,3.32,3.3093,3.3001,3.257,3.191,3.1251,3.0662,3.0065,2.9504,2.931,2.931,2.931,2.931,2.931,2.931,2.931,2.931,2.931,2.931,2.931,2.931,2.931,2.9392,2.9889,2.9983,3.0113,3.0725,3.0869,3.0843,3.0777,3.0751,3.0777,3.0856,3.0869,3.0895,3.096,3.0986,3.0986,3.0986,3.0986,3.0986,3.0986,3.0986,3.0986,3.0986,3.0986,3.0986,3.0986,3.0949,3.0949,3.0986,3.0986,3.0949,3.0949,3.0811,3.0698,3.066,3.066,3.066,3.066,3.0836,3.0949,3.0949,3.0949,3.0798,3.0622,3.0457,3.0254,3.0049,2.9869,2.9792,2.9792,2.9792,2.9792,2.9792,2.9792,2.9792,2.9792,2.9792,2.9792,2.983,4.0076,3.9681,3.9388,3.9388,3.917,3.8841,3.8452,3.7913,3.73,3.6582,3.6237,3.5908,3.5549,3.5504,3.5504,3.5504,3.5504,3.5504,3.5504,3.5504,3.5504,3.5504,3.5504,3.5504,3.5504,3.5504,3.5355,3.5055,3.4382,3.4038,3.4038,3.3664,3.3499,3.3499,3.3499,3.3285,3.2914,3.2504,3.1943,3.1301,3.0849,3.0489,3.021,3.0243,3.0228,3.0228,3.0228,3.0228,3.0228,3.0228,3.0228,3.0228,3.0228,3.0228,3.0228,3.0228,3.0228,3.0294,3.0542,3.0607,3.0673,3.0921,3.0986,3.0986,3.0986,3.0986,3.0986,3.0986,3.0986,3.0986,3.0986,3.0986,3.0986,3.0986,3.0986,3.0986,3.0986,3.0986,3.0986,3.0986,3.0986,3.0986,3.0986,3.0986,3.0986,3.0986,3.0986,3.0986,3.0986,3.0911,3.0874,3.0874,3.0874,3.0874,3.0874,3.0949,3.0986,3.0986,3.0986,3.0874,3.0698,3.0609,3.0457,3.0254,3.019,3.0152,3.0152,3.0152,3.0152,3.0152,3.0152,3.0152,3.0152,3.0152,3.0152,3.0152]}]]